[[{"header":{"parameterUnit":"m.s-1","parameterCategory":1,"la1":31.0,"la2":29.5877,"lo1":-88.7671,"lo2":-86.6584,"dy":0.0162,"dx":0.0185,"nx":115,"ny":88,"refTime":"2023-08-15T06:00:00:Z","depth":0,"parameterNumber":2,"parameterNumberName":"U-component_of_WINDS"},"data":[0.0,0.0,0.0,0.0,0.0,0.0,0.0,0.0,0.0,0.0,0.0,0.0,0.0,0.0,0.0,0.0,0.0,0.0,0.0,0.0,0.0,0.0,0.0,0.0,0.0,0.0,0.0,0.0,0.0,0.0,0.0,0.0,0.0,0.0,0.0,0.0,0.0,0.0,0.0,0.0,0.0,0.0,0.0,0.0,0.0,0.0,0.0,0.0,0.0,0.0,0.0,0.0,0.0,0.0,0.0,0.0,0.0,0.0,0.0,0.0,0.0,0.0,0.0,0.0,0.0,0.0,0.0,0.0,0.0,0.0,0.0,0.0,0.0,0.0,0.0,0.0,0.0,0.0,0.0,0.0,0.0,0.0,0.0,0.0,0.0,0.0,0.0,0.0,0.0,0.0,0.0,0.0,0.0,0.0,0.0,0.0,0.0,0.0,0.0,0.0,0.0,0.0,0.0,0.0,0.0,0.0,0.0,0.0,0.0,0.0,0.0,0.0,0.0,0.0,0.0,0.0,0.0,0.0,0.0,0.0,0.0,0.0,0.0,0.0,0.0,0.0,0.0,0.0,0.0,0.0,0.0,0.0,0.0,0.0,0.0,0.0,0.0,0.0,0.0,0.0,0.0,0.0,0.0,0.0,0.0,0.0,0.0,0.0,0.0,0.0,0.0,0.0,0.0,0.0,0.0,0.0,0.0,0.0,0.0,0.0,0.0,0.0,0.0,0.0,0.0,0.0,0.0,0.0,0.0,0.0,0.0,0.0,0.0,0.0,0.0,0.0,0.0,0.0,0.0,0.0,0.0,0.0,0.0,0.0,0.0,0.0,0.0,0.0,0.0,0.0,0.0,0.0,0.0,0.0,0.0,0.0,0.0,0.0,0.0,0.0,0.0,0.0,0.0,0.0,0.0,0.0,0.0,0.0,0.0,0.0,0.0,0.0,0.0,0.0,0.0,0.0,0.0,0.0,0.0,0.0,0.0,0.0,0.0,0.0,0.0,0.0,0.0,0.0,0.0,0.0,0.0,0.0,0.0,0.0,0.0,0.0,0.0,0.0,0.0,0.0,0.0,0.0,0.0,0.0,0.0,0.0,0.0,0.0,0.0,0.0,0.0,0.0,0.0,0.0,0.0,0.0,0.0,0.0,0.0,0.0,0.0,0.0,0.0,0.0,0.0,0.0,0.0,0.0,0.0,0.0,0.0,0.0,0.0,0.0,0.0,0.0,0.0,0.0,0.0,0.0,0.0,0.0,0.0,0.0,0.0,0.0,0.0,0.0,0.0,0.0,0.0,0.0,0.0,0.0,0.0,0.0,0.0,0.0,0.0,0.0,0.0,0.0,0.0,0.0,0.0,0.0,0.0,0.0,0.0,0.0,0.0,0.0,0.0,0.0,0.0,0.0,0.0,0.0,0.0,0.0,0.0,0.0,0.0,0.0,0.0,0.0,0.0,0.0,0.0,0.0,0.0,0.0,0.0,0.0,0.0,0.0,0.0,0.0,0.0,0.0,0.0,0.0,0.0,0.0,0.0,0.0,0.0,0.0,0.0,0.0,0.0,0.0,0.0,0.0,0.0,0.0,0.0,0.0,0.0,0.0,0.0,0.0,0.0,0.0,0.0,0.0,0.0,0.0,0.0,0.0,0.0,0.0,0.0,0.0,0.0,0.0,0.0,0.0,0.0,0.0,0.0,0.0,0.0,0.0,0.0,0.0,0.0,0.0,0.0,0.0,0.0,0.0,0.0,0.0,0.0,0.0,0.0,0.0,0.0,0.0,0.0,0.0,0.0,0.0,0.0,0.0,0.0,0.0,0.0,0.0,0.0,0.0,0.0,0.0,0.0,0.0,0.0,0.0,0.0,0.0,0.0,0.0,0.0,0.0,0.0,0.0,0.0,0.0,0.0,0.0,0.0,0.0,0.0,0.0,0.0,0.0,0.0,0.0,0.0,0.0,0.0,0.0,0.0,0.0,0.0,0.0,0.0,0.0,0.0,0.0,0.0,0.0,0.0,0.0,0.0,0.0,0.0,0.0,0.0,0.0,0.0,0.0,0.0,0.0,0.0,0.0,0.0,0.0,0.0,0.0,0.0,0.0,0.0,0.0,0.0,0.0,0.0,0.0,0.0,0.0,0.0,0.0,0.0,0.0,0.0,0.0,0.0,0.0,0.0,0.0,0.0,0.0,0.0,0.0,0.0,0.0,0.0,0.0,0.0,0.0,0.0,0.0,0.0,0.0,0.0,0.0,0.0,0.0,0.0,0.0,0.0,0.0,0.0,0.0,0.0,0.0,0.0,0.0,0.0,0.0,0.0,0.0,0.0,0.0,0.0,0.0,0.0,0.0,0.0,0.0,0.0,0.0,0.0,0.0,0.0,0.0,0.0,0.0,0.0,0.0,0.0,0.0,0.0,0.0,0.0,0.0,0.0,0.0,0.0,0.0,0.0,0.0,0.0,0.0,0.0,0.0,0.0,0.0,0.0,0.0,0.0,0.0,0.0,0.0,0.0,0.0,0.0,0.0,0.0,0.0,0.0,0.0,0.0,0.0,0.0,0.0,0.0,0.0,0.0,0.0,0.0,0.0,0.0,0.0,0.0,0.0,0.0,0.0,0.0,0.0,0.0,0.0,0.0,0.0,0.0,0.0,0.0,0.0,0.0,0.0,0.0,0.0,0.0,0.0,0.0,0.0,0.0,0.0,0.0,0.0,0.0,0.0,0.0,0.0,0.0,0.0,0.0,0.0,0.0,0.0,0.0,0.0,0.0,0.0,0.0,0.0,0.0,0.0,0.0,0.0,0.0,0.0,0.0,0.0,0.0,0.0,0.0,0.0,0.0,0.0,0.0,0.0,0.0,0.0,0.0,0.0,0.0,0.0,0.0,0.0,0.0,0.0,0.0,0.0,0.0,0.0,0.0,0.0,0.0,0.0,0.0,0.0,0.0,0.0,0.0,0.0,0.0,0.0,0.0,0.0,0.0,0.0,0.0,0.0,0.0,0.0,0.0,0.0,0.0,0.0,0.0,0.0,0.0,0.0,0.0,0.0,0.0,0.0,0.0,0.0,0.0,0.0,0.0,0.0,0.0,0.0,0.0,0.0,0.0,0.0,0.0,0.0,0.0,0.0,0.0,0.0,0.0,0.0,0.0,0.0,0.0,0.0,0.0,0.0,0.0,0.0,0.0,0.0,0.0,0.0,0.0,0.0,0.0,0.0,0.0,0.0,0.0,0.0,0.0,0.0,0.0,0.0,0.0,0.0,0.0,0.0,0.0,0.0,0.0,0.0,0.0,0.0,0.0,0.0,0.0,0.0,0.0,0.0,0.0,0.0,0.0,0.0,0.0,0.0,0.0,0.0,0.0,0.0,0.0,0.0,0.0,0.0,0.0,0.0,0.0,0.0,0.0,0.0,0.0,0.0,0.0,0.0,0.0,0.0,0.0,0.0,0.0,0.0,0.0,0.0,0.0,0.0,0.0,0.0,0.0,0.0,0.0,0.0,0.0,0.0,0.0,0.0,0.0,0.0,0.0,0.0,0.0,0.0,0.0,0.0,0.0,0.0,0.0,0.0,0.0,0.0,0.0,0.0,0.0,0.0,0.0,0.0,0.0,0.0,0.0,0.0,0.0,0.0,0.0,0.0,0.0,0.0,0.0,0.0,0.0,0.0,0.0,0.0,0.0,0.0,0.0,0.0,0.0,0.0,0.0,0.0,0.0,0.0,0.0,0.0,0.0,0.0,0.0,0.0,0.0,0.0,0.0,0.0,0.0,0.0,0.0,0.0,0.0,0.0,0.0,0.0,0.0,0.0,0.0,0.0,0.0,0.0,0.0,0.0,0.0,0.0,0.0,0.0,0.0,0.0,0.0,0.0,0.0,0.0,0.0,0.0,0.0,0.0,0.0,0.0,0.0,0.0,0.0,0.0,0.0,0.0,0.0,0.0,0.0,0.0,0.0,0.0,0.0,0.0,0.0,0.0,0.0,0.0,0.0,0.0,0.0,0.0,0.0,0.0,0.0,0.0,0.0,0.0,0.0,0.0,0.0,0.0,0.0,0.0,0.0,0.0,0.0,0.0,0.0,0.0,0.0,0.0,0.0,0.0,0.0,0.0,0.0,0.0,0.0,0.0,0.0,0.0,0.0,0.0,0.0,0.0,0.0,0.0,0.0,0.0,0.0,0.0,0.0,0.0,0.0,0.0,0.0,0.0,0.0,0.0,0.0,0.0,0.0,0.0,0.0,0.0,0.0,0.0,0.0,0.0,0.0,0.0,0.0,0.0,0.0,0.0,-3.6813,0.0,0.0,0.0,0.0,0.0,0.0,0.0,0.0,0.0,0.0,0.0,0.0,0.0,0.0,0.0,0.0,0.0,0.0,0.0,0.0,0.0,0.0,0.0,0.0,0.0,0.0,0.0,0.0,0.0,0.0,0.0,0.0,0.0,0.0,0.0,0.0,0.0,0.0,0.0,0.0,0.0,0.0,0.0,0.0,0.0,0.0,0.0,0.0,0.0,0.0,0.0,0.0,0.0,0.0,0.0,0.0,0.0,0.0,0.0,0.0,0.0,0.0,0.0,0.0,0.0,0.0,0.0,0.0,0.0,0.0,0.0,0.0,0.0,0.0,0.0,0.0,0.0,0.0,0.0,0.0,0.0,0.0,0.0,0.0,0.0,0.0,0.0,0.0,0.0,0.0,0.0,0.0,0.0,0.0,0.0,0.0,0.0,0.0,0.0,0.0,0.0,0.0,0.0,0.0,0.0,0.0,0.0,0.0,0.0,0.0,-3.7405,-3.7464,-3.7494,-3.7405,-3.7178,0.0,0.0,0.0,0.0,0.0,0.0,0.0,0.0,0.0,0.0,0.0,0.0,0.0,0.0,0.0,0.0,0.0,0.0,0.0,0.0,0.0,0.0,0.0,0.0,0.0,0.0,0.0,0.0,0.0,0.0,0.0,0.0,0.0,0.0,0.0,0.0,0.0,0.0,0.0,0.0,0.0,0.0,0.0,0.0,0.0,0.0,0.0,0.0,0.0,0.0,0.0,0.0,0.0,0.0,0.0,0.0,0.0,0.0,0.0,0.0,0.0,0.0,0.0,0.0,0.0,0.0,0.0,0.0,0.0,0.0,0.0,0.0,0.0,0.0,0.0,0.0,0.0,0.0,0.0,0.0,0.0,0.0,0.0,0.0,0.0,0.0,0.0,0.0,0.0,0.0,0.0,0.0,0.0,0.0,0.0,0.0,0.0,0.0,0.0,0.0,0.0,0.0,0.0,0.0,0.0,0.0,0.0,0.0,0.0,0.0,0.0,0.0,-3.7918,-3.7831,-3.7474,0.0,0.0,0.0,0.0,0.0,0.0,0.0,0.0,0.0,0.0,0.0,0.0,0.0,0.0,0.0,0.0,0.0,0.0,0.0,0.0,0.0,0.0,0.0,0.0,0.0,0.0,0.0,0.0,0.0,0.0,0.0,0.0,0.0,0.0,0.0,0.0,0.0,0.0,0.0,0.0,0.0,0.0,0.0,0.0,0.0,0.0,0.0,0.0,0.0,0.0,0.0,0.0,0.0,0.0,0.0,0.0,0.0,0.0,0.0,0.0,0.0,0.0,0.0,0.0,0.0,0.0,0.0,0.0,0.0,0.0,0.0,0.0,0.0,0.0,0.0,0.0,0.0,0.0,0.0,0.0,0.0,0.0,0.0,0.0,0.0,0.0,0.0,0.0,0.0,0.0,0.0,0.0,0.0,0.0,0.0,0.0,0.0,0.0,0.0,0.0,0.0,0.0,0.0,0.0,0.0,0.0,0.0,0.0,0.0,0.0,-3.8001,-3.7905,-3.8017,0.0,-3.778,0.0,0.0,0.0,0.0,0.0,0.0,0.0,0.0,0.0,0.0,0.0,0.0,0.0,0.0,0.0,0.0,0.0,0.0,0.0,0.0,0.0,0.0,0.0,0.0,0.0,0.0,0.0,0.0,0.0,0.0,0.0,0.0,0.0,0.0,0.0,0.0,0.0,0.0,0.0,0.0,0.0,0.0,0.0,0.0,0.0,0.0,0.0,0.0,0.0,0.0,0.0,0.0,0.0,0.0,0.0,0.0,0.0,0.0,0.0,0.0,0.0,0.0,0.0,0.0,0.0,0.0,0.0,0.0,0.0,0.0,0.0,0.0,0.0,0.0,0.0,0.0,0.0,0.0,0.0,0.0,0.0,0.0,0.0,0.0,0.0,0.0,0.0,0.0,0.0,0.0,0.0,0.0,0.0,0.0,0.0,0.0,0.0,0.0,0.0,0.0,0.0,0.0,0.0,0.0,0.0,0.0,0.0,0.0,0.0,0.0,-3.8483,-3.8415,-3.8399,-3.8331,0.0,0.0,0.0,0.0,0.0,0.0,0.0,0.0,0.0,0.0,0.0,0.0,0.0,0.0,0.0,0.0,0.0,0.0,0.0,0.0,0.0,0.0,0.0,0.0,0.0,0.0,0.0,0.0,0.0,0.0,0.0,0.0,0.0,0.0,0.0,0.0,0.0,0.0,0.0,0.0,0.0,0.0,0.0,0.0,0.0,0.0,0.0,0.0,0.0,0.0,0.0,0.0,0.0,0.0,0.0,0.0,0.0,0.0,0.0,0.0,0.0,0.0,0.0,0.0,0.0,0.0,0.0,0.0,0.0,0.0,0.0,0.0,0.0,0.0,0.0,0.0,0.0,0.0,0.0,0.0,0.0,0.0,0.0,0.0,0.0,0.0,0.0,0.0,0.0,0.0,0.0,0.0,0.0,0.0,0.0,0.0,0.0,0.0,0.0,0.0,0.0,0.0,0.0,0.0,0.0,0.0,0.0,0.0,0.0,0.0,-3.8832,-3.886,-3.886,-3.8722,-3.8611,-3.8488,0.0,0.0,0.0,0.0,0.0,0.0,0.0,0.0,0.0,0.0,0.0,0.0,0.0,0.0,0.0,0.0,0.0,0.0,0.0,0.0,0.0,0.0,0.0,0.0,0.0,0.0,0.0,0.0,0.0,0.0,0.0,0.0,0.0,0.0,0.0,0.0,0.0,0.0,0.0,0.0,0.0,0.0,0.0,0.0,0.0,0.0,0.0,0.0,0.0,0.0,0.0,0.0,0.0,0.0,0.0,0.0,0.0,0.0,0.0,0.0,0.0,0.0,0.0,0.0,0.0,0.0,0.0,0.0,0.0,0.0,0.0,0.0,0.0,0.0,0.0,0.0,0.0,0.0,0.0,0.0,0.0,0.0,0.0,0.0,0.0,0.0,0.0,0.0,0.0,0.0,0.0,0.0,0.0,0.0,0.0,0.0,0.0,0.0,0.0,0.0,0.0,0.0,0.0,0.0,0.0,0.0,0.0,0.0,-3.8805,-3.8931,-3.9013,-3.9013,-3.886,-3.8777,0.0,0.0,0.0,0.0,0.0,0.0,0.0,0.0,0.0,0.0,0.0,0.0,0.0,0.0,0.0,0.0,0.0,0.0,0.0,0.0,0.0,0.0,0.0,0.0,0.0,0.0,0.0,0.0,0.0,0.0,0.0,0.0,0.0,0.0,0.0,0.0,0.0,0.0,0.0,0.0,0.0,0.0,0.0,0.0,0.0,0.0,0.0,0.0,0.0,0.0,0.0,0.0,0.0,0.0,0.0,0.0,0.0,0.0,0.0,0.0,0.0,0.0,0.0,0.0,0.0,0.0,0.0,0.0,0.0,0.0,0.0,0.0,0.0,0.0,0.0,0.0,0.0,0.0,0.0,0.0,0.0,0.0,0.0,0.0,0.0,0.0,0.0,0.0,0.0,0.0,0.0,0.0,0.0,0.0,0.0,0.0,0.0,0.0,0.0,0.0,0.0,0.0,0.0,0.0,0.0,0.0,0.0,0.0,0.0,-3.9831,-4.0288,-4.0348,-3.9902,-3.9875,-3.9561,0.0,0.0,0.0,0.0,0.0,0.0,0.0,0.0,0.0,0.0,0.0,0.0,0.0,0.0,0.0,0.0,0.0,0.0,0.0,0.0,0.0,0.0,0.0,0.0,0.0,0.0,0.0,0.0,0.0,0.0,0.0,0.0,0.0,0.0,0.0,0.0,0.0,0.0,0.0,0.0,0.0,0.0,0.0,0.0,0.0,0.0,0.0,0.0,0.0,0.0,0.0,0.0,0.0,0.0,0.0,0.0,0.0,0.0,0.0,0.0,0.0,0.0,0.0,0.0,0.0,0.0,0.0,0.0,0.0,0.0,0.0,0.0,0.0,0.0,0.0,0.0,0.0,0.0,0.0,0.0,0.0,0.0,0.0,0.0,0.0,0.0,0.0,0.0,0.0,0.0,0.0,0.0,0.0,0.0,0.0,0.0,0.0,0.0,0.0,0.0,0.0,0.0,0.0,0.0,0.0,0.0,0.0,0.0,0.0,-4.0862,0.0,-4.1316,-4.0873,-4.058,-4.016,0.0,0.0,0.0,0.0,0.0,0.0,0.0,0.0,0.0,0.0,0.0,0.0,0.0,0.0,0.0,0.0,0.0,0.0,0.0,0.0,0.0,0.0,0.0,0.0,0.0,0.0,0.0,0.0,0.0,0.0,0.0,0.0,0.0,0.0,0.0,0.0,0.0,0.0,0.0,0.0,0.0,0.0,0.0,0.0,0.0,0.0,0.0,0.0,0.0,0.0,0.0,0.0,0.0,0.0,0.0,0.0,0.0,0.0,0.0,0.0,0.0,0.0,0.0,0.0,0.0,0.0,0.0,0.0,0.0,0.0,0.0,0.0,0.0,0.0,0.0,0.0,0.0,0.0,0.0,0.0,0.0,0.0,0.0,0.0,0.0,0.0,0.0,0.0,0.0,0.0,0.0,0.0,0.0,0.0,0.0,0.0,0.0,0.0,0.0,0.0,0.0,0.0,0.0,0.0,0.0,0.0,0.0,0.0,-4.1228,-4.1898,-4.1982,-4.1949,-4.1711,-4.1077,-4.0606,0.0,0.0,0.0,0.0,0.0,0.0,0.0,0.0,0.0,0.0,0.0,0.0,0.0,0.0,0.0,0.0,0.0,0.0,0.0,0.0,0.0,0.0,0.0,0.0,0.0,0.0,0.0,0.0,0.0,0.0,0.0,0.0,0.0,0.0,0.0,0.0,0.0,0.0,0.0,0.0,0.0,0.0,0.0,0.0,0.0,0.0,0.0,0.0,0.0,0.0,0.0,0.0,0.0,0.0,0.0,0.0,0.0,0.0,0.0,0.0,0.0,0.0,0.0,0.0,0.0,0.0,0.0,0.0,0.0,0.0,0.0,0.0,0.0,0.0,0.0,0.0,0.0,0.0,0.0,0.0,0.0,0.0,0.0,0.0,0.0,0.0,0.0,0.0,0.0,0.0,0.0,0.0,0.0,0.0,0.0,0.0,0.0,0.0,0.0,0.0,0.0,0.0,0.0,0.0,0.0,0.0,0.0,0.0,0.0,-4.3422,-4.3925,-4.3913,-4.337,-4.3034,-4.2144,0.0,0.0,0.0,0.0,0.0,0.0,0.0,0.0,0.0,0.0,0.0,0.0,0.0,0.0,0.0,0.0,0.0,0.0,0.0,0.0,0.0,0.0,0.0,0.0,0.0,0.0,0.0,0.0,0.0,0.0,0.0,0.0,0.0,0.0,0.0,0.0,0.0,0.0,0.0,0.0,0.0,0.0,0.0,0.0,0.0,0.0,0.0,0.0,0.0,0.0,0.0,0.0,0.0,0.0,0.0,0.0,0.0,0.0,0.0,0.0,0.0,0.0,0.0,0.0,0.0,0.0,0.0,0.0,0.0,0.0,0.0,0.0,0.0,0.0,0.0,0.0,0.0,0.0,0.0,0.0,0.0,0.0,0.0,0.0,0.0,0.0,0.0,0.0,0.0,0.0,0.0,0.0,0.0,0.0,0.0,0.0,0.0,0.0,0.0,0.0,0.0,0.0,0.0,0.0,0.0,0.0,0.0,0.0,0.0,-4.5497,-4.5711,-4.5547,-4.5006,-4.4394,-4.3359,-4.1905,0.0,0.0,0.0,0.0,0.0,0.0,0.0,0.0,0.0,0.0,0.0,0.0,0.0,0.0,0.0,0.0,0.0,0.0,0.0,0.0,0.0,0.0,0.0,0.0,0.0,0.0,0.0,0.0,0.0,0.0,0.0,0.0,0.0,0.0,0.0,0.0,0.0,0.0,0.0,0.0,0.0,0.0,0.0,0.0,0.0,0.0,0.0,0.0,0.0,0.0,0.0,0.0,0.0,0.0,0.0,0.0,0.0,0.0,0.0,0.0,0.0,0.0,0.0,0.0,0.0,0.0,0.0,0.0,0.0,0.0,0.0,0.0,0.0,0.0,0.0,0.0,0.0,0.0,0.0,0.0,0.0,0.0,0.0,0.0,0.0,0.0,0.0,0.0,0.0,0.0,0.0,0.0,0.0,0.0,0.0,0.0,0.0,0.0,0.0,0.0,0.0,0.0,0.0,0.0,0.0,0.0,0.0,0.0,-4.7872,-4.7259,-4.6828,-4.6578,-4.5235,-4.4301,0.0,0.0,0.0,0.0,0.0,0.0,0.0,0.0,0.0,0.0,0.0,0.0,0.0,0.0,0.0,0.0,0.0,0.0,0.0,0.0,0.0,0.0,0.0,0.0,0.0,0.0,0.0,0.0,0.0,0.0,0.0,0.0,0.0,0.0,0.0,0.0,0.0,0.0,0.0,0.0,0.0,0.0,0.0,0.0,0.0,0.0,0.0,0.0,0.0,0.0,0.0,0.0,0.0,0.0,0.0,0.0,0.0,0.0,0.0,0.0,0.0,0.0,0.0,0.0,0.0,0.0,0.0,0.0,0.0,0.0,0.0,0.0,0.0,0.0,0.0,0.0,0.0,0.0,0.0,0.0,0.0,0.0,0.0,0.0,0.0,0.0,0.0,0.0,0.0,0.0,0.0,0.0,0.0,0.0,0.0,0.0,0.0,0.0,0.0,0.0,0.0,0.0,0.0,0.0,0.0,0.0,0.0,0.0,0.0,-4.7855,-4.8257,-4.8142,-4.7541,-4.7076,-4.5934,0.0,0.0,0.0,0.0,0.0,0.0,0.0,0.0,0.0,0.0,0.0,0.0,0.0,0.0,0.0,0.0,0.0,0.0,0.0,0.0,0.0,0.0,0.0,0.0,0.0,0.0,0.0,0.0,0.0,0.0,0.0,0.0,0.0,0.0,0.0,0.0,0.0,0.0,0.0,0.0,0.0,0.0,0.0,0.0,0.0,0.0,0.0,0.0,0.0,0.0,0.0,0.0,0.0,0.0,0.0,0.0,0.0,0.0,0.0,0.0,0.0,0.0,0.0,0.0,0.0,0.0,0.0,0.0,0.0,0.0,0.0,0.0,0.0,0.0,0.0,0.0,0.0,0.0,0.0,0.0,0.0,0.0,0.0,0.0,0.0,0.0,0.0,0.0,0.0,0.0,0.0,0.0,0.0,0.0,0.0,0.0,0.0,0.0,0.0,0.0,0.0,0.0,0.0,0.0,0.0,0.0,0.0,0.0,-4.7614,-4.8359,-4.8798,-4.8815,-4.8362,-4.798,-4.6948,0.0,0.0,0.0,0.0,0.0,0.0,0.0,0.0,0.0,0.0,0.0,0.0,0.0,0.0,0.0,0.0,0.0,0.0,0.0,0.0,0.0,0.0,0.0,0.0,0.0,0.0,0.0,0.0,0.0,0.0,0.0,0.0,0.0,0.0,0.0,0.0,0.0,0.0,0.0,0.0,0.0,0.0,0.0,0.0,0.0,0.0,0.0,0.0,0.0,0.0,0.0,0.0,0.0,0.0,0.0,0.0,0.0,0.0,0.0,0.0,0.0,0.0,0.0,0.0,0.0,0.0,0.0,0.0,0.0,0.0,0.0,0.0,0.0,0.0,0.0,0.0,0.0,0.0,0.0,0.0,0.0,0.0,0.0,0.0,0.0,0.0,0.0,0.0,0.0,0.0,0.0,0.0,0.0,0.0,0.0,0.0,0.0,0.0,0.0,0.0,0.0,0.0,0.0,0.0,0.0,0.0,0.0,0.0,-4.8274,-4.8984,-4.9018,-4.9001,-4.8984,-4.8376,-4.7541,0.0,0.0,0.0,0.0,0.0,0.0,0.0,0.0,0.0,0.0,0.0,0.0,0.0,0.0,0.0,0.0,0.0,0.0,0.0,0.0,0.0,0.0,0.0,0.0,0.0,0.0,0.0,0.0,0.0,0.0,0.0,0.0,0.0,0.0,0.0,0.0,0.0,0.0,0.0,0.0,0.0,0.0,0.0,0.0,0.0,0.0,0.0,0.0,0.0,0.0,0.0,0.0,0.0,0.0,0.0,0.0,0.0,0.0,0.0,0.0,0.0,0.0,0.0,0.0,0.0,0.0,0.0,0.0,0.0,0.0,0.0,0.0,0.0,0.0,0.0,0.0,0.0,0.0,0.0,0.0,0.0,0.0,0.0,0.0,0.0,0.0,0.0,0.0,0.0,0.0,0.0,0.0,0.0,0.0,0.0,0.0,0.0,0.0,0.0,0.0,0.0,0.0,0.0,0.0,0.0,0.0,0.0,0.0,-4.8244,-4.8984,-4.9018,-4.9018,-4.9018,-4.8849,-4.8048,0.0,0.0,0.0,0.0,0.0,0.0,0.0,0.0,0.0,0.0,0.0,0.0,0.0,0.0,0.0,0.0,0.0,0.0,0.0,0.0,0.0,0.0,0.0,0.0,0.0,0.0,0.0,0.0,0.0,0.0,0.0,0.0,0.0,0.0,0.0,0.0,0.0,0.0,0.0,0.0,0.0,0.0,0.0,0.0,0.0,0.0,0.0,0.0,-3.5526,0.0,0.0,0.0,0.0,0.0,0.0,0.0,0.0,0.0,0.0,0.0,0.0,0.0,0.0,0.0,0.0,0.0,0.0,0.0,0.0,0.0,0.0,0.0,0.0,0.0,0.0,0.0,0.0,0.0,0.0,0.0,0.0,0.0,0.0,0.0,0.0,0.0,0.0,0.0,0.0,0.0,0.0,0.0,0.0,0.0,0.0,0.0,0.0,0.0,0.0,0.0,0.0,0.0,0.0,0.0,0.0,0.0,0.0,0.0,-4.8706,-4.9475,-4.9509,-4.9526,-4.9509,-4.9509,-4.8785,0.0,0.0,0.0,0.0,0.0,0.0,0.0,0.0,0.0,0.0,0.0,0.0,0.0,0.0,0.0,0.0,0.0,0.0,0.0,0.0,0.0,0.0,0.0,0.0,0.0,0.0,0.0,0.0,0.0,0.0,0.0,0.0,0.0,0.0,0.0,0.0,0.0,0.0,0.0,0.0,0.0,0.0,0.0,0.0,0.0,0.0,0.0,0.0,0.0,0.0,0.0,0.0,0.0,0.0,0.0,0.0,0.0,0.0,0.0,0.0,0.0,0.0,0.0,0.0,0.0,0.0,0.0,0.0,0.0,0.0,0.0,0.0,0.0,0.0,0.0,0.0,0.0,0.0,0.0,0.0,0.0,0.0,0.0,0.0,0.0,0.0,0.0,0.0,0.0,0.0,0.0,0.0,0.0,0.0,0.0,0.0,0.0,0.0,0.0,0.0,0.0,0.0,0.0,0.0,0.0,0.0,0.0,-4.8161,-4.9255,-5.0004,-5.0139,-5.0139,-5.0069,-5.0052,-4.9427,-4.8091,0.0,0.0,0.0,0.0,0.0,0.0,0.0,0.0,0.0,0.0,0.0,0.0,0.0,0.0,0.0,0.0,0.0,0.0,0.0,0.0,0.0,0.0,0.0,0.0,0.0,0.0,0.0,0.0,0.0,0.0,0.0,0.0,0.0,0.0,0.0,0.0,0.0,0.0,-3.642,-3.6839,0.0,0.0,0.0,0.0,0.0,0.0,0.0,0.0,-4.0098,0.0,0.0,0.0,0.0,0.0,0.0,0.0,0.0,0.0,0.0,0.0,0.0,0.0,0.0,0.0,0.0,0.0,0.0,0.0,0.0,0.0,0.0,0.0,0.0,0.0,0.0,0.0,0.0,0.0,0.0,0.0,0.0,0.0,0.0,0.0,0.0,0.0,0.0,0.0,0.0,0.0,0.0,0.0,0.0,0.0,0.0,0.0,0.0,0.0,0.0,0.0,0.0,0.0,0.0,0.0,0.0,-4.6381,-4.8413,-4.9536,-4.9702,-5.0273,-5.0356,-4.9863,-4.9862,-4.9538,-4.8801,0.0,0.0,0.0,0.0,0.0,0.0,0.0,0.0,0.0,0.0,0.0,0.0,0.0,0.0,0.0,0.0,0.0,0.0,0.0,0.0,0.0,0.0,0.0,0.0,0.0,0.0,0.0,0.0,0.0,0.0,0.0,0.0,0.0,0.0,0.0,0.0,0.0,0.0,0.0,-3.905,-3.9753,0.0,0.0,0.0,0.0,0.0,0.0,0.0,0.0,-4.0158,0.0,0.0,0.0,0.0,0.0,0.0,0.0,0.0,0.0,0.0,0.0,0.0,0.0,0.0,0.0,0.0,0.0,0.0,0.0,0.0,0.0,0.0,0.0,0.0,0.0,0.0,0.0,0.0,0.0,0.0,0.0,0.0,0.0,0.0,0.0,0.0,0.0,0.0,0.0,0.0,0.0,0.0,0.0,0.0,0.0,0.0,0.0,0.0,0.0,0.0,0.0,0.0,0.0,0.0,0.0,-4.691,-4.8555,-4.9674,-5.0174,-5.0894,-5.0944,-5.0289,-5.0256,-4.9584,0.0,0.0,0.0,0.0,0.0,0.0,0.0,0.0,0.0,0.0,0.0,0.0,0.0,0.0,0.0,0.0,0.0,0.0,0.0,0.0,0.0,0.0,0.0,0.0,0.0,0.0,0.0,0.0,0.0,0.0,0.0,0.0,0.0,0.0,0.0,0.0,0.0,0.0,0.0,0.0,-3.9783,-4.0516,-4.0861,0.0,0.0,0.0,0.0,0.0,0.0,-4.1437,-4.1137,0.0,0.0,0.0,0.0,0.0,0.0,0.0,0.0,0.0,0.0,0.0,0.0,0.0,0.0,0.0,0.0,0.0,0.0,0.0,0.0,0.0,0.0,0.0,0.0,0.0,0.0,0.0,0.0,0.0,0.0,0.0,0.0,0.0,0.0,0.0,0.0,0.0,0.0,0.0,0.0,0.0,0.0,0.0,0.0,0.0,0.0,0.0,0.0,0.0,0.0,0.0,0.0,0.0,0.0,0.0,-4.721,-4.8612,-4.9726,-5.0476,-5.136,-5.1494,-5.081,-5.066,-4.9708,0.0,0.0,0.0,0.0,0.0,0.0,0.0,0.0,0.0,0.0,0.0,0.0,0.0,0.0,0.0,0.0,0.0,0.0,0.0,0.0,0.0,0.0,0.0,0.0,0.0,0.0,0.0,0.0,0.0,0.0,0.0,0.0,0.0,0.0,0.0,0.0,0.0,0.0,0.0,0.0,0.0,-4.0831,-4.1512,-4.1698,0.0,0.0,0.0,0.0,-4.1848,-4.2141,0.0,0.0,0.0,0.0,0.0,0.0,0.0,0.0,0.0,0.0,0.0,0.0,0.0,0.0,0.0,0.0,0.0,0.0,0.0,0.0,0.0,0.0,0.0,0.0,0.0,0.0,0.0,0.0,0.0,0.0,0.0,0.0,0.0,0.0,0.0,0.0,0.0,0.0,0.0,0.0,0.0,0.0,0.0,0.0,0.0,0.0,0.0,0.0,0.0,0.0,0.0,0.0,0.0,0.0,0.0,0.0,-4.6553,-4.8523,-4.9606,-4.9789,-5.1086,-5.1592,-5.1148,-5.052,-4.9825,0.0,0.0,0.0,0.0,0.0,0.0,0.0,0.0,0.0,0.0,0.0,0.0,0.0,0.0,0.0,0.0,0.0,0.0,0.0,0.0,0.0,0.0,0.0,0.0,0.0,0.0,0.0,0.0,0.0,0.0,0.0,0.0,0.0,0.0,0.0,0.0,0.0,0.0,0.0,0.0,0.0,-4.1542,-4.2201,-4.2746,-4.3065,0.0,0.0,-4.3155,-4.3065,-4.2686,0.0,0.0,0.0,0.0,0.0,0.0,0.0,0.0,0.0,0.0,0.0,0.0,0.0,0.0,0.0,0.0,0.0,0.0,0.0,0.0,0.0,0.0,0.0,0.0,0.0,0.0,0.0,0.0,0.0,0.0,0.0,0.0,0.0,0.0,0.0,0.0,0.0,0.0,0.0,0.0,0.0,0.0,0.0,0.0,0.0,0.0,0.0,0.0,0.0,0.0,0.0,0.0,0.0,0.0,0.0,-4.593,-4.7568,-4.8911,-4.9796,-5.0222,-5.1237,-5.1507,-5.0928,-5.0309,-4.9403,0.0,0.0,0.0,0.0,0.0,0.0,0.0,0.0,0.0,0.0,0.0,0.0,0.0,0.0,0.0,0.0,0.0,0.0,0.0,0.0,0.0,0.0,0.0,0.0,0.0,0.0,0.0,0.0,0.0,0.0,0.0,0.0,0.0,0.0,0.0,0.0,0.0,0.0,0.0,0.0,0.0,0.0,-4.2776,-4.311,0.0,0.0,0.0,-4.3305,-4.3305,0.0,0.0,0.0,0.0,0.0,0.0,0.0,0.0,0.0,0.0,0.0,0.0,0.0,0.0,0.0,0.0,0.0,0.0,0.0,0.0,0.0,0.0,0.0,0.0,0.0,0.0,0.0,0.0,0.0,0.0,0.0,0.0,0.0,0.0,0.0,0.0,0.0,0.0,0.0,0.0,0.0,0.0,0.0,0.0,0.0,0.0,0.0,0.0,0.0,0.0,0.0,0.0,0.0,0.0,0.0,0.0,0.0,-4.8176,-4.8958,-4.9658,-5.0391,-5.1108,-5.1259,-5.0758,-5.002,0.0,0.0,0.0,0.0,0.0,0.0,0.0,0.0,0.0,0.0,0.0,0.0,0.0,0.0,0.0,0.0,0.0,0.0,0.0,0.0,0.0,0.0,0.0,0.0,0.0,0.0,0.0,-3.727,0.0,0.0,0.0,0.0,0.0,0.0,0.0,0.0,0.0,0.0,0.0,0.0,0.0,0.0,-4.1848,-4.311,-4.3305,-4.3305,0.0,0.0,-4.329,-4.325,-4.3115,-4.2693,0.0,0.0,0.0,0.0,0.0,0.0,0.0,0.0,0.0,0.0,0.0,0.0,0.0,0.0,0.0,0.0,0.0,0.0,0.0,0.0,0.0,0.0,0.0,0.0,0.0,0.0,0.0,0.0,0.0,0.0,0.0,0.0,0.0,0.0,0.0,0.0,0.0,0.0,0.0,0.0,0.0,0.0,0.0,0.0,0.0,0.0,0.0,0.0,0.0,0.0,0.0,0.0,0.0,0.0,0.0,-4.7397,-4.8219,-4.8925,-4.9593,-5.0282,-5.0749,-5.0854,-4.9521,-4.8732,0.0,0.0,0.0,0.0,0.0,0.0,0.0,0.0,0.0,0.0,0.0,0.0,0.0,0.0,0.0,0.0,0.0,0.0,0.0,0.0,0.0,0.0,0.0,0.0,0.0,0.0,0.0,0.0,0.0,0.0,0.0,0.0,0.0,0.0,0.0,0.0,0.0,0.0,0.0,0.0,0.0,-4.1863,-4.311,-4.3305,-4.3305,0.0,0.0,-4.325,-4.3021,-4.2981,-4.2653,-4.162,0.0,0.0,0.0,0.0,0.0,0.0,0.0,0.0,0.0,0.0,0.0,0.0,0.0,0.0,0.0,0.0,0.0,0.0,0.0,0.0,0.0,0.0,0.0,0.0,0.0,0.0,0.0,0.0,0.0,0.0,0.0,0.0,0.0,0.0,0.0,0.0,0.0,0.0,0.0,0.0,0.0,0.0,0.0,0.0,0.0,0.0,0.0,0.0,0.0,0.0,0.0,0.0,0.0,-4.5013,-4.7575,-4.8095,-4.8855,-4.9885,-5.0352,-5.0573,-5.0464,-4.9619,-4.909,0.0,0.0,0.0,0.0,0.0,0.0,0.0,0.0,0.0,0.0,0.0,0.0,0.0,0.0,0.0,0.0,0.0,0.0,0.0,0.0,0.0,0.0,0.0,0.0,0.0,0.0,0.0,0.0,-4.0696,-4.1025,-4.0113,0.0,0.0,0.0,0.0,0.0,0.0,0.0,0.0,0.0,0.0,-4.2312,-4.317,-4.3305,0.0,0.0,-4.3195,-4.3061,-4.3036,-4.2809,-4.2493,-4.2081,-4.0949,0.0,0.0,0.0,0.0,0.0,0.0,0.0,0.0,0.0,0.0,0.0,0.0,0.0,0.0,0.0,0.0,0.0,0.0,0.0,0.0,0.0,0.0,0.0,0.0,0.0,0.0,0.0,0.0,0.0,0.0,0.0,0.0,0.0,0.0,0.0,0.0,0.0,0.0,0.0,0.0,0.0,0.0,0.0,0.0,0.0,0.0,0.0,0.0,0.0,0.0,0.0,0.0,-4.4971,-4.7509,-4.7937,-4.8715,-4.9908,-5.0113,-5.0113,-4.9908,-4.9376,-4.9027,0.0,0.0,0.0,0.0,0.0,0.0,0.0,0.0,0.0,0.0,0.0,0.0,0.0,0.0,0.0,0.0,0.0,0.0,0.0,0.0,0.0,0.0,0.0,0.0,0.0,0.0,0.0,0.0,-4.1103,-4.1053,-4.0591,0.0,0.0,0.0,0.0,0.0,0.0,0.0,0.0,0.0,0.0,-4.262,-4.32,-4.3305,-4.3305,-4.3305,-4.3115,-4.2981,-4.2915,-4.2622,-4.2351,-4.2213,0.0,0.0,0.0,0.0,0.0,0.0,0.0,0.0,0.0,0.0,0.0,0.0,0.0,0.0,0.0,0.0,0.0,0.0,0.0,0.0,0.0,0.0,0.0,0.0,0.0,0.0,0.0,0.0,0.0,0.0,-3.6071,0.0,0.0,0.0,0.0,0.0,0.0,0.0,0.0,0.0,0.0,0.0,0.0,0.0,0.0,0.0,0.0,0.0,0.0,0.0,0.0,0.0,0.0,-4.5264,-4.6904,-4.7555,-4.8357,-4.93,-4.9316,-4.9331,-4.93,-4.8691,-4.8292,-4.8277,0.0,0.0,0.0,0.0,0.0,0.0,0.0,0.0,0.0,0.0,0.0,0.0,0.0,0.0,0.0,0.0,0.0,0.0,0.0,0.0,0.0,0.0,0.0,0.0,0.0,0.0,-4.0851,-4.0772,-4.0811,0.0,0.0,0.0,0.0,0.0,0.0,0.0,0.0,0.0,0.0,-4.2396,-4.2635,-4.32,-4.3305,-4.3305,-4.3305,-4.313,-4.2915,-4.2729,-4.25,-4.2213,0.0,0.0,0.0,0.0,0.0,0.0,0.0,0.0,0.0,0.0,0.0,0.0,0.0,0.0,0.0,0.0,0.0,0.0,0.0,0.0,0.0,0.0,0.0,0.0,0.0,0.0,0.0,-3.6928,-3.6744,0.0,0.0,0.0,0.0,0.0,0.0,0.0,0.0,0.0,0.0,0.0,-4.0317,-4.0379,0.0,0.0,0.0,0.0,0.0,0.0,0.0,0.0,0.0,0.0,0.0,0.0,-4.4941,-4.662,-4.7196,-4.7861,-4.8646,-4.8785,-4.8785,-4.8646,-4.8419,-4.7743,-4.6554,0.0,0.0,0.0,0.0,0.0,0.0,0.0,0.0,0.0,0.0,0.0,0.0,0.0,0.0,0.0,0.0,0.0,0.0,0.0,0.0,0.0,0.0,0.0,0.0,0.0,-4.1499,0.0,0.0,0.0,0.0,0.0,0.0,0.0,0.0,0.0,0.0,0.0,-4.1194,-4.2028,-4.2638,-4.309,-4.326,-4.3305,-4.325,0.0,0.0,0.0,0.0,0.0,0.0,0.0,0.0,0.0,0.0,0.0,0.0,0.0,0.0,-3.6126,-3.5534,-3.5886,-3.6212,-3.5926,0.0,0.0,0.0,0.0,0.0,0.0,0.0,0.0,0.0,0.0,0.0,0.0,0.0,0.0,-3.7324,0.0,-3.709,0.0,0.0,0.0,0.0,0.0,0.0,0.0,0.0,-4.0268,-4.0686,-4.0763,-4.0797,-4.0775,0.0,-4.0801,-4.1125,0.0,0.0,0.0,0.0,0.0,0.0,0.0,0.0,-4.4858,-4.6301,-4.6882,-4.7425,-4.7949,-4.8091,-4.8091,-4.7964,-4.7964,-4.7265,-4.5758,-4.5575,-4.4537,0.0,0.0,0.0,0.0,0.0,0.0,0.0,0.0,0.0,0.0,0.0,0.0,0.0,0.0,0.0,0.0,0.0,0.0,0.0,0.0,0.0,0.0,0.0,-4.1162,0.0,0.0,0.0,0.0,0.0,0.0,0.0,0.0,0.0,-4.0032,-4.0766,-4.1464,-4.2164,-4.2743,-4.309,-4.309,0.0,0.0,0.0,0.0,0.0,0.0,0.0,-4.1535,-4.1071,-4.0534,-3.9816,-3.8997,-3.7878,-3.7059,-3.6973,0.0,0.0,-3.6266,-3.6663,-3.7024,-3.6816,-3.6889,-3.6989,-3.6992,-3.7079,-3.7363,0.0,0.0,0.0,0.0,0.0,0.0,0.0,0.0,-3.836,-3.8285,0.0,-3.798,0.0,0.0,0.0,0.0,0.0,-3.8968,0.0,0.0,-4.0158,-4.0408,-4.0676,-4.0823,-4.1194,-4.1608,-4.1613,-4.1977,-4.2626,-4.1179,0.0,0.0,0.0,0.0,0.0,0.0,-4.5043,-4.5893,-4.6575,-4.7019,-4.7251,-4.7266,-4.7251,-4.7251,-4.7251,-4.6793,-4.5878,-4.5058,-4.3877,-4.238,-4.1697,0.0,0.0,0.0,0.0,0.0,0.0,0.0,0.0,0.0,0.0,0.0,0.0,0.0,0.0,0.0,0.0,0.0,0.0,0.0,0.0,-3.9606,0.0,0.0,0.0,0.0,0.0,0.0,0.0,0.0,0.0,0.0,-4.0519,-4.1111,-4.1701,-4.2559,0.0,0.0,0.0,0.0,-4.2688,-4.2688,-4.25,-4.2213,-4.1785,-4.166,-4.1339,-4.0431,0.0,0.0,-3.8676,-3.7574,-3.6837,-3.6594,-3.6849,-3.6975,-3.6874,-3.6881,-3.6954,-3.7128,-3.7214,-3.7182,-3.6989,-3.7247,-3.7484,-3.9029,0.0,0.0,0.0,0.0,-3.8404,-3.8141,-3.7481,-3.7725,-3.7625,-3.7181,-3.7283,0.0,0.0,0.0,0.0,0.0,0.0,-3.9129,-3.9402,-3.9672,-3.993,-4.0209,-3.9996,-4.0226,-4.0696,-4.0696,-4.1175,-4.1945,-4.1532,-4.188,-4.2973,0.0,0.0,0.0,0.0,-4.5608,-4.6124,-4.6476,-4.6639,-4.6535,-4.6535,-4.6432,-4.624,-4.624,-4.5799,-4.4923,-4.4646,-4.3835,-4.2366,-4.1676,0.0,0.0,0.0,0.0,0.0,0.0,0.0,0.0,0.0,0.0,0.0,0.0,0.0,0.0,0.0,0.0,0.0,0.0,0.0,-4.0627,-4.0069,-3.9891,0.0,0.0,0.0,0.0,0.0,0.0,0.0,0.0,0.0,-3.9905,-4.0541,-4.116,0.0,0.0,-4.2266,-4.2459,-4.2474,-4.2459,-4.2459,-4.224,0.0,0.0,-4.1213,-4.0773,-4.0156,-3.9719,-3.9241,-3.8826,-3.822,-3.7801,-3.7712,-3.7702,-3.7632,-3.7578,-3.7725,-3.7656,-3.74,-3.7557,-3.7717,-3.7392,-3.7222,-3.722,-3.8436,-3.8337,-3.8543,-3.8358,-3.7984,-3.8162,-3.7804,-3.7127,-3.7308,-3.7116,-3.6689,-3.6629,-3.6961,-3.7514,-3.7794,0.0,0.0,0.0,-3.88,-3.9043,-3.936,-3.9626,-3.9853,-3.9669,-3.9861,-4.035,-4.0411,-4.0882,-4.1855,-4.1935,-4.2542,-4.3579,0.0,0.0,-4.4791,-4.4952,-4.5257,-4.5732,-4.5956,-4.5911,-4.5761,-4.5671,-4.5549,-4.5247,-4.5247,-4.4869,-4.415,-4.4001,-4.3397,-4.2287,-4.1651,-4.0816,0.0,0.0,0.0,0.0,0.0,0.0,0.0,0.0,0.0,0.0,0.0,-3.6312,-3.6934,0.0,0.0,0.0,-3.8549,-3.9016,-3.9986,-3.9315,0.0,0.0,0.0,0.0,0.0,0.0,0.0,-3.7695,-3.8136,-3.8694,-3.9431,-3.9971,-4.0576,-4.145,-4.1702,-4.1813,-4.198,0.0,-4.2022,-4.2022,-4.18,-4.1437,-4.1015,-4.0716,-4.0372,-3.9821,-3.9278,-3.8819,-3.8639,-3.8381,-3.8167,-3.8089,-3.7979,-3.79,-3.79,-3.8011,-3.7997,-3.7719,-3.7909,-3.7979,-3.7491,-3.7271,-3.7181,-3.7732,-3.7542,-3.7986,-3.808,-3.7933,-3.788,-3.7548,-3.7024,-3.7024,-3.6862,-3.6557,-3.6094,-3.646,-3.7418,-3.7761,0.0,-3.7172,-3.7927,-3.8396,-3.8687,-3.9037,-3.931,-3.9594,-3.9581,-3.989,-4.0402,-4.0402,-4.0946,-4.1904,-4.2124,-4.2514,-4.3033,-4.2819,-4.3234,-4.4148,-4.4222,-4.4507,-4.5064,-4.5078,-4.5032,-4.4986,-4.4769,-4.4565,-4.4303,-4.427,-4.4037,-4.3462,-4.3175,-4.2731,-4.2151,-4.1508,-4.05,-3.9207,0.0,0.0,0.0,0.0,0.0,0.0,0.0,0.0,0.0,0.0,0.0,0.0,0.0,0.0,0.0,-3.8068,0.0,-3.7464,-3.7853,0.0,0.0,0.0,-3.7166,-3.6843,-3.6834,-3.7046,-3.7604,0.0,0.0,-3.9135,-3.9411,-3.9968,-4.1086,-4.1269,-4.1297,-4.1297,-4.1297,-4.1297,-4.1354,-4.11,-4.0774,-4.0402,-4.0229,-3.9911,-3.9367,-3.9056,-3.8684,-3.8291,-3.8167,-3.8103,-3.7933,-3.79,-3.79,-3.79,-3.79,-3.7933,-3.8109,-3.8187,-3.7992,-3.7404,-3.7356,-3.7245,-3.6862,-3.6603,-3.6472,-3.6634,-3.697,-3.6796,-3.6472,-3.6134,-3.6145,-3.5993,-3.573,-3.579,-3.6085,-3.658,-3.67,-3.663,-3.6526,-3.6923,-3.7239,-3.7495,-3.785,-3.8275,-3.8684,-3.8684,-3.8998,-3.9569,-3.9581,-3.9917,-4.058,-4.082,-4.1209,-4.1654,-4.187,-4.2767,-4.4283,-4.4542,-4.4734,-4.4876,-4.4876,-4.4569,-4.3979,-4.377,-4.3546,-4.3273,-4.3273,-4.3204,-4.304,-4.2541,-4.1961,-4.136,-4.0773,-4.0072,-3.9292,-3.8276,0.0,0.0,0.0,0.0,0.0,0.0,0.0,0.0,0.0,-3.6388,-3.6529,0.0,-3.7345,0.0,-3.8092,-3.8519,-3.8471,-3.8213,0.0,0.0,-3.7418,-3.7129,-3.7032,-3.7019,-3.7176,-3.7515,-3.7743,-3.8158,-3.8724,-3.8922,-3.9264,-3.9719,-4.0126,-4.0372,-4.0531,-4.056,-4.0617,-4.0773,-4.0617,-4.0358,-4.0069,-3.9574,-3.9206,-3.9042,-3.8652,-3.8336,-3.82,-3.8057,-3.7933,-3.79,-3.79,-3.79,-3.79,-3.79,-3.79,-3.7979,-3.8089,-3.806,-3.7493,-3.7294,-3.7142,-3.6102,-3.5687,-3.5334,-3.5334,-3.5566,-3.5676,-3.5455,-3.5058,-3.5069,-3.4847,-3.4624,-3.4902,-3.5168,-3.5345,-3.5444,-3.5554,-3.573,-3.5982,-3.6254,-3.6526,-3.697,-3.7358,-3.7667,-3.7773,-3.8104,-3.8538,-3.8526,-3.8841,-3.9349,-3.9608,-3.9943,-4.0325,-4.0769,-4.1607,-4.2819,-4.3457,-4.3832,-4.394,-4.394,-4.3689,-4.3149,-4.3018,-4.279,-4.2533,-4.2435,-4.223,-4.1976,-4.1758,-4.1269,-4.0515,-4.0094,-3.9533,-3.8692,-3.7785,-3.7069,0.0,0.0,0.0,0.0,0.0,0.0,0.0,0.0,0.0,0.0,0.0,-3.6819,-3.6896,-3.7625,-3.7996,-3.7887,-3.7619,-3.7441,-3.7406,-3.71,-3.6968,-3.7049,-3.7108,-3.7155,-3.7307,-3.7446,-3.7677,-3.8057,-3.8213,-3.8427,-3.8769,-3.9024,-3.9367,-3.9793,-3.9924,-4.0041,-4.0199,-4.0112,-3.9895,-3.9587,-3.91,-3.8756,-3.8607,-3.8381,-3.8167,-3.8089,-3.7992,-3.79,-3.79,-3.79,-3.79,-3.79,-3.79,-3.79,-3.7861,-3.7756,-3.7511,-3.7091,-3.6771,-3.6525,-3.5345,-3.4869,-3.4534,-3.4188,-3.3974,-3.4479,-3.4423,-3.403,-3.3974,-3.3794,-3.3512,-3.3861,-3.3974,-3.403,-3.4267,-3.4568,-3.4813,-3.5124,-3.5378,-3.5587,-3.6211,-3.6483,-3.6538,-3.6796,-3.7131,-3.7489,-3.7489,-3.7732,-3.825,-3.8489,-3.8752,-3.9025,-3.9556,-4.0121,-4.0668,-4.1558,-4.2248,-4.2741,-4.2728,-4.2547,-4.2302,-4.2253,-4.2105,-4.1819,-4.1597,-4.1212,-4.069,-4.0895,-4.0509,-3.9494,-3.9399,-3.8864,-3.7795,-3.7461,-3.6994,0.0,-3.5823,0.0,0.0,0.0,0.0,0.0,0.0,0.0,0.0,-3.6358,-3.6134,-3.6649,-3.6875,-3.6909,-3.6675,-3.6675,-3.6675,-3.6675,-3.6662,-3.6769,-3.6968,-3.7015,-3.7015,-3.7062,-3.7062,-3.7155,-3.7413,-3.7459,-3.7585,-3.7985,-3.8063,-3.8291,-3.889,-3.9264,-3.9486,-3.9472,-3.9526,-3.9349,-3.898,-3.8711,-3.8453,-3.8258,-3.8154,-3.8089,-3.7933,-3.79,-3.79,-3.79,-3.79,-3.79,-3.79,-3.79,-3.7874,-3.7769,-3.7286,-3.6839,-3.6529,-3.6204,-3.582,-3.4524,-3.4255,-3.3918,-3.3445,-3.298,-3.3094,-3.3332,-3.3681,-3.3445,-3.3208,-3.2913,-3.3208,-3.3388,-3.3378,-3.3671,-3.3805,-3.3907,-3.4188,-3.4356,-3.4479,-3.5024,-3.54,-3.5653,-3.5916,-3.6363,-3.6874,-3.6874,-3.7024,-3.7346,-3.7691,-3.785,-3.7904,-3.825,-3.8659,-3.9169,0.0,0.0,0.0,-4.1733,-4.1484,-4.1185,-4.0997,-4.0744,-4.0478,-4.0236,0.0,-3.9892,-3.9702,-3.9293,-3.8692,-3.8351,0.0,0.0,0.0,0.0,0.0,0.0,0.0,0.0,0.0,0.0,0.0,-3.5064,-3.5286,-3.6049,-3.6252,-3.6339,-3.6439,-3.6499,-3.6499,-3.6452,-3.6439,-3.6452,-3.6452,-3.6452,-3.6452,-3.6546,-3.6546,-3.6593,-3.6769,-3.6769,-3.6862,-3.7108,-3.7155,-3.7201,-3.7294,-3.7294,-3.7328,-3.7526,-3.8304,-3.8769,-3.8769,-3.8814,-3.8782,-3.8679,-3.8453,-3.8258,-3.8213,-3.8057,-3.7933,-3.79,-3.79,-3.79,-3.79,-3.79,-3.79,-3.79,-3.79,-3.773,-3.7273,-3.6698,-3.624,-3.6166,-3.5881,-3.5568,-3.3794,0.0,-3.3208,-3.281,0.0,-3.2227,-3.241,-3.2706,-3.2581,-3.241,-3.2305,-3.241,-3.2534,-3.2524,-3.2649,-3.2877,-3.3161,-3.3332,-3.3558,-3.3861,-3.4311,-3.4646,-3.4791,-3.5168,-3.5566,-3.584,-3.6004,-3.6114,-3.6277,-3.6723,-3.6928,-3.6928,-3.7346,-3.7761,-3.8198,-3.8332,-3.9181,-4.0694,-4.0593,-4.044,-4.0287,-4.0198,-4.0044,-3.9878,0.0,0.0,0.0,0.0,0.0,0.0,0.0,0.0,0.0,0.0,0.0,-3.5943,-3.5646,-3.537,-3.5119,-3.524,-3.5251,-3.5183,-3.5291,-3.5486,-3.5722,-3.5889,-3.5991,-3.5991,-3.5991,-3.5991,-3.5991,-3.5991,-3.5991,-3.5991,-3.6133,-3.6193,-3.6228,-3.6323,-3.6452,-3.6534,-3.6546,-3.6581,-3.6734,-3.6747,-3.6781,-3.6875,-3.6909,-3.6968,-3.7121,-3.7631,-3.8103,-3.8213,-3.8213,-3.8226,-3.8272,-3.8148,-3.8057,-3.8011,-3.7979,-3.79,-3.79,-3.79,-3.79,-3.79,-3.79,-3.79,-3.7874,-3.7665,-3.7364,-3.7011,-3.6305,-3.5744,-3.5691,-3.543,-3.5167,-3.3094,-3.2628,-3.2581,-3.2238,-3.173,-3.173,-3.1672,-3.1614,0.0,0.0,0.0,-3.1672,-3.173,-3.174,-3.1787,-3.2065,-3.2514,-3.2571,-3.281,-3.3399,-3.3681,-3.3861,-3.3974,-3.4479,-3.4758,-3.4869,-3.5035,-3.5246,-3.5368,-3.584,-3.6102,-3.6157,-3.6592,-3.6982,-3.737,-3.7625,-3.825,-3.9154,-3.9362,-3.9374,-3.9426,-3.9335,-3.9335,-3.9322,-3.8963,-3.881,-3.881,-3.8099,-3.7458,-3.6857,-3.6467,-3.6027,-3.5513,-3.5464,-3.5476,-3.5464,-3.5464,-3.5268,-3.4852,-3.5184,-3.5185,-3.4698,-3.5088,-3.538,-3.5572,-3.5633,-3.5633,-3.5633,-3.5633,-3.562,-3.5633,-3.5633,-3.5633,-3.5633,-3.5812,-3.592,-3.5968,-3.6098,-3.6275,-3.6323,-3.6323,-3.637,-3.6417,-3.6417,-3.6439,-3.6581,-3.6628,-3.6722,-3.6968,-3.7261,-3.7539,-3.7651,-3.7743,-3.7756,-3.7769,-3.7736,-3.7749,-3.7749,-3.7749,-3.7762,-3.7762,-3.7749,-3.7749,-3.7716,-3.7749,-3.7697,-3.7593,-3.726,-3.6843,-3.6679,-3.5922,-3.526,-3.5159,-3.4931,-3.4795,-3.2638,-3.2363,-3.2018,-3.173,-3.1383,-3.1383,-3.1218,-3.1054,-3.1286,-3.1276,-3.1054,-3.1276,-3.1392,-3.1383,-3.1672,-3.1835,-3.196,-3.196,-3.2133,0.0,-3.2753,-3.3048,-3.3353,-3.3636,-3.3974,-3.4199,-3.4255,-3.4534,-3.5035,-3.5146,-3.5312,-3.5478,-3.5577,-3.5906,-3.644,-3.6754,-3.7078,-3.7453,-3.7986,-3.825,-3.825,-3.801,-3.7928,-3.7892,-3.7209,-3.6813,-3.6801,-3.6522,-3.6087,-3.5499,-3.5603,-3.5475,-3.4969,-3.492,-3.492,-3.492,-3.492,-3.4896,-3.4824,-3.4641,-3.447,-3.4215,-3.4274,-3.4652,-3.5537,-3.5633,-3.5633,-3.5633,-3.5572,-3.5633,-3.5633,-3.5572,-3.5572,-3.5572,-3.562,-3.5668,-3.5668,-3.5716,-3.58,-3.6051,-3.6051,-3.6146,-3.6323,-3.637,-3.6405,-3.6439,-3.6452,-3.6499,-3.6593,-3.6875,-3.7155,-3.7201,-3.7201,-3.7214,-3.7248,-3.7201,-3.7261,-3.7201,-3.7261,-3.7261,-3.7261,-3.7261,-3.7261,-3.7261,-3.7261,-3.7081,-3.6728,-3.6612,-3.6224,-3.5582,-3.5206,-3.5061,-3.4643,-3.4476,-3.4535,-3.2008,-3.173,-3.1614,-3.1334,-3.1054,-3.1054,-3.1005,-3.0889,-3.1064,-3.1005,-3.0889,-3.1054,-3.1112,-3.1112,-3.1228,-3.1392,-3.1508,-3.1498,-3.173,-3.2018,-3.2123,-3.2305,-3.2487,-3.2867,-3.3161,-3.3332,-3.3681,-3.3963,-3.4255,-3.4423,-3.459,-3.4702,-3.5047,-3.5423,-3.5785,-3.595,-3.6048,-3.6223,-3.7078,-3.7507,-3.7495,-3.7151,-3.6968,-3.6944,-3.6279,-3.5956,-3.5956,-3.5451,-3.5063,-3.4765,-3.4484,-3.4188,-3.3953,-3.3941,-3.3941,-3.3941,-3.3941,-3.393,-3.3941,-3.3843,-3.3694,-3.3607,-3.3607,-3.3805,-3.4237,-3.4592,-3.4799,-3.4799,-3.4799,-3.4847,-3.4932,-3.4932,-3.4981,-3.5114,-3.532,-3.5368,-3.5428,-3.5512,-3.5668,-3.5777,-3.5764,-3.586,-3.6146,-3.6181,-3.6228,-3.637,-3.6417,-3.6417,-3.6417,-3.6593,-3.6734,-3.6734,-3.6828,-3.6862,-3.6909,-3.7015,-3.7108,-3.7108,-3.7108,-3.7108,-3.7108,-3.7108,-3.7108,-3.7108,-3.7108,-3.689,-3.6378,-3.6097,-3.5614,-3.5015,-3.4517,-3.4305,-3.4072,-3.4147,-3.4369,-3.1556,-3.1325,-3.1218,-3.1112,-3.0889,-3.0898,-3.0898,-3.0898,-3.0898,-3.0898,-3.0898,-3.0898,-3.0898,-3.0898,-3.0898,-3.0995,-3.116,-3.1218,-3.1392,-3.1672,-3.1672,-3.173,-3.1845,-3.2295,-3.2514,-3.2571,-3.2991,-3.3285,-3.3388,-3.3671,-3.3861,-3.403,-3.4479,-3.4813,-3.5091,-3.5091,-3.5091,-3.509,-3.5931,-3.6418,-3.6514,-3.6103,-3.5835,-3.5812,-3.5323,-3.5055,-3.5021,-3.4352,-3.3973,-3.391,-3.3302,-3.2946,-3.2935,-3.2896,-3.2846,-3.2846,-3.2846,-3.2846,-3.2846,-3.2846,-3.2846,-3.2846,-3.2846,-3.2835,-3.2896,-3.3296,-3.3767,-3.3927,-3.4014,-3.4113,-3.4298,-3.4396,-3.4482,-3.4689,-3.4981,-3.5114,-3.5126,-3.532,-3.5476,-3.5512,-3.5524,-3.562,-3.5812,-3.592,-3.6003,-3.6228,-3.6323,-3.631,-3.6358,-3.6417,-3.6417,-3.6405,-3.6534,-3.6628,-3.6628,-3.6781,-3.6922,-3.6922,-3.6922,-3.6922,-3.6922,-3.6922,-3.6922,-3.6909,-3.6794,-3.6429,-3.5978,-3.5475,-3.4957,-3.4369,-3.4046,-3.3751,-3.3768,-3.3894,-3.4118,-3.1325,-3.1267,-3.1054,-3.0947,-3.0898,-3.0898,-3.0898,-3.0898,-3.0898,-3.0898,-3.0898,-3.0898,-3.0898,-3.0898,-3.0898,-3.0947,-3.0947,-3.0947,-3.1054,-3.1334,-3.1325,-3.1498,-3.173,-3.1845,-3.1903,-3.1903,-3.2018,-3.2295,-3.2753,-3.281,-3.3105,-3.3568,-3.3681,-3.3907,-3.4188,-3.4188,-3.4138,-3.3934,-3.4021,-3.436,-3.4868,-3.446,-3.4212,-3.4212,-3.3727,-3.3416,-3.3445,-3.2932,-3.2662,-3.2662,-3.2313,-3.2128,-3.2077,-3.1874,-3.1783,-3.1772,-3.1772,-3.1772,-3.1772,-3.1732,-3.1772,-3.1721,-3.1772,-3.1772,-3.1783,-3.2026,-3.2633,-3.3346,-3.3607,-3.3755,-3.4113,-3.4249,-3.4384,-3.4433,-3.4689,-3.4823,-3.4823,-3.4823,-3.4969,-3.5223,-3.5223,-3.532,-3.556,-3.5668,-3.5764,-3.6003,-3.6051,-3.6098,-3.6275,-3.6323,-3.637,-3.6358,-3.6405,-3.6452,-3.6452,-3.6465,-3.6546,-3.6499,-3.6499,-3.6499,-3.6546,-3.6546,-3.6499,-3.6555,-3.6062,-3.5609,-3.5088,-3.4527,-3.4172,-3.3822,-3.3658,-3.367,-3.367,-3.3713,-3.3852,-3.1054,-3.1054,-3.0947,-3.0898,-3.0898,-3.0898,-3.0898,-3.0898,-3.0898,-3.0898,-3.0898,-3.0898,-3.0898,-3.0898,-3.0898,-3.0898,-3.0898,-3.0898,-3.0947,-3.1054,-3.1054,-3.1112,-3.1286,-3.145,-3.1508,-3.1498,-3.1682,-3.1903,-3.2123,-3.218,-3.2363,-3.2753,-3.2742,-3.2788,-3.2896,-3.3109,-3.2965,-3.265,-3.2491,-3.2566,-3.2801,-3.2955,-3.3055,-3.3011,-3.255,-3.2285,-3.2222,-3.1933,-3.1732,-3.1742,-3.1487,-3.127,-3.1281,-3.1178,-3.1127,-3.1127,-3.1127,-3.1127,-3.1127,-3.1127,-3.1127,-3.1137,-3.1127,-3.1127,-3.1127,-3.123,-3.1629,-3.2331,-3.2908,-3.3331,-3.358,-3.3817,-3.4052,-3.4211,-3.4298,-3.4408,-3.4396,-3.4494,-3.4628,-3.4726,-3.4884,-3.5078,-3.532,-3.5512,-3.562,-3.5764,-3.5764,-3.5812,-3.5908,-3.5943,-3.6003,-3.6133,-3.6146,-3.6228,-3.637,-3.6417,-3.6417,-3.6417,-3.6417,-3.6417,-3.6417,-3.6417,-3.6405,-3.6417,-3.5893,-3.5332,-3.4864,-3.4318,-3.3852,-3.3455,-3.324,-3.3356,-3.3368,-3.3428,-3.3556,-3.0898,-3.0898,-3.0898,-3.0898,-3.0898,-3.0898,-3.0898,-3.0898,-3.0898,-3.083,-3.0762,-3.0762,-3.0704,-3.0645,-3.083,-3.083,-3.0762,-3.0772,-3.0713,-3.0645,-3.0645,-3.0655,-3.0645,-3.0927,-3.1034,-3.1092,-3.1383,-3.1566,-3.1682,-3.1787,-3.1893,-3.2065,-3.2123,-3.2013,-3.184,-3.2033,-3.1854,-3.1262,-3.1123,-3.0957,-3.0905,-3.1253,-3.1673,-3.1902,-3.1609,-3.1373,-3.1373,-3.1178,-3.1086,-3.1075,-3.0786,-3.0579,-3.0568,-3.0412,-3.0308,-3.0349,-3.036,-3.0349,-3.0308,-3.0349,-3.0349,-3.0297,-3.0349,-3.036,-3.0349,-3.0464,-3.0724,-3.1167,-3.1947,-3.2578,-3.3069,-3.3319,-3.3519,-3.3729,-3.3878,-3.3977,-3.3965,-3.415,-3.4298,-3.4347,-3.4531,-3.4775,-3.5017,-3.5223,-3.5368,-3.5464,-3.5476,-3.5524,-3.5572,-3.562,-3.5668,-3.5872,-3.592,-3.6051,-3.6323,-3.6417,-3.6417,-3.6417,-3.6417,-3.6417,-3.6417,-3.6417,-3.6417,-3.6367,-3.5855,-3.5332,-3.4781,-3.4286,-3.3709,-3.3282,-3.3124,-3.3124,-3.3167,-3.324,-3.327,-3.0898,-3.0898,-3.0898,-3.0898,-3.0898,-3.0898,-3.0889,-3.0889,-3.0889,-3.0713,-3.045,-3.045,-3.0274,-3.0049,-3.0587,-3.0704,-3.045,-3.0392,-3.0274,-3.0049,-2.9981,-2.9981,-2.999,-3.0274,-3.045,-3.0499,-3.0762,-3.1054,-3.1276,-3.1604,-3.1787,-3.1777,-3.17,-3.1536,-3.1134,-3.1099,-3.0727,-3.0005,-2.9938,-2.9702,-2.9338,-2.9341,-2.9878,-3.0787,-3.0838,-3.0776,-3.0838,-3.0838,-3.0776,-3.0776,-3.0308,-3.0047,-2.9994,-2.9511,-2.9237,-2.9237,-2.9237,-2.9237,-2.9237,-2.929,-2.929,-2.9237,-2.9343,-2.9237,-2.9343,-2.9774,-3.0047,-3.0099,-3.0868,-3.1629,-3.2342,-3.2706,-3.2846,-3.2958,-3.3346,-3.3545,-3.3595,-3.3805,-3.4064,-3.4113,-3.4298,-3.4531,-3.4775,-3.4835,-3.4981,-3.5126,-3.5223,-3.5271,-3.5476,-3.5572,-3.5572,-3.556,-3.5668,-3.5812,-3.6275,-3.6275,-3.6323,-3.6275,-3.6228,-3.6323,-3.6417,-3.6417,-3.637,-3.6257,-3.5703,-3.524,-3.4781,-3.4216,-3.364,-3.3238,-3.3075,-3.3038,-3.3081,-3.3124,-3.3167,-3.0898,-3.0898,-3.0898,-3.0898,-3.0898,-3.0898,-3.0772,-3.0577,-3.0577,-3.0392,-3.0108,-3.0098,-2.9981,-2.9922,-3.0167,-3.0225,-3.0108,-3.0098,-2.9981,-2.9922,-2.9922,-2.9922,-2.9922,-3.0039,-3.0098,-3.0098,-3.0216,-3.0343,-3.0392,-3.0509,-3.0567,-3.0558,-3.0335,-3.0043,-2.9834,-2.9734,-2.9476,-2.9132,-2.9276,-2.9293,-2.9099,-2.9132,-2.9343,-2.9659,-2.9711,-2.9711,-2.9722,-2.9711,-2.9711,-2.9711,-2.9511,-2.9406,-2.9406,-2.9237,-2.9132,-2.9132,-2.9132,-2.9132,-2.9132,-2.9132,-2.9132,-2.9132,-2.9132,-2.9079,-2.9132,-2.929,-2.9564,-2.9942,-3.0193,-3.0713,-3.1333,-3.1936,-3.2381,-3.2606,-3.2745,-3.2896,-3.2946,-3.3097,-3.3369,-3.358,-3.3915,-3.4298,-3.4433,-3.4531,-3.4628,-3.4884,-3.4932,-3.4981,-3.503,-3.5078,-3.5138,-3.5271,-3.5368,-3.5464,-3.58,-3.5895,-3.5895,-3.5895,-3.5847,-3.5908,-3.5908,-3.5955,-3.5955,-3.5893,-3.5509,-3.5062,-3.4587,-3.3729,-3.3195,-3.309,-3.2928,-3.2952,-3.3081,-3.3038,-3.3038,-3.0898,-3.0889,-3.0762,-3.0762,-3.0762,-3.0645,-3.046,-3.0216,-3.0216,-3.003,-2.9804,-2.9745,-2.9686,-2.9627,-2.9627,-2.9636,-2.9627,-2.9695,-2.9686,-2.9636,-2.9627,-2.9568,-2.9518,-2.9577,-2.9568,-2.9509,-2.9677,-2.9795,-2.9863,-2.9922,-2.9922,-2.9893,-2.9486,-2.9184,-2.901,-2.8754,-2.8558,-2.8369,-2.8558,-2.8708,-2.8698,-2.8814,-2.8814,-2.8814,-2.8867,-2.892,-2.9079,-2.9132,-2.9132,-2.9079,-2.9036,-2.892,-2.8867,-2.8824,-2.8824,-2.8814,-2.8867,-2.8867,-2.8814,-2.8814,-2.8814,-2.8814,-2.8814,-2.8824,-2.8877,-2.893,-2.9195,-2.9511,-2.9679,-2.9942,-3.0453,-3.1064,-3.1527,-3.1885,-3.2048,-3.2139,-3.2179,-3.2443,-3.2706,-3.3119,-3.3519,-3.3866,-3.4101,-3.4249,-3.4396,-3.4543,-3.4543,-3.4592,-3.4592,-3.4592,-3.464,-3.4799,-3.4799,-3.4835,-3.4981,-3.503,-3.5428,-3.5524,-3.556,-3.5524,-3.5476,-3.5524,-3.5512,-3.5499,-3.5241,-3.4846,-3.4195,-3.3322,-3.2936,-3.2846,-3.2692,-3.2692,-3.2779,-3.2896,-3.2959,-3.0889,-3.0772,-3.0518,-3.0392,-3.0333,-3.0098,-2.9922,-2.9922,-2.9931,-2.9745,-2.9499,-2.9499,-2.9331,-2.9044,-2.9044,-2.8984,-2.9044,-2.9263,-2.9272,-2.9094,-2.9044,-2.8865,-2.8627,-2.8865,-2.8847,-2.86,-2.9066,-2.949,-2.9686,-2.9686,-2.9745,-2.9728,-2.9265,-2.8851,-2.8672,-2.8227,-2.781,-2.7615,-2.7799,-2.796,-2.7906,-2.8184,-2.8291,-2.8291,-2.8344,-2.8558,-2.9026,-2.9079,-2.9026,-2.9036,-2.8824,-2.8568,-2.8398,-2.8344,-2.8344,-2.8344,-2.8354,-2.8344,-2.8344,-2.8344,-2.8398,-2.8398,-2.8354,-2.8344,-2.8398,-2.8504,-2.8674,-2.8834,-2.8983,-2.9353,-2.9827,-3.0088,-3.036,-3.0776,-3.1189,-3.1373,-3.1567,-3.1823,-3.2179,-3.2645,-3.3008,-3.3369,-3.3607,-3.3805,-3.3965,-3.4064,-3.4113,-3.4113,-3.4113,-3.4162,-3.4113,-3.4162,-3.4261,-3.4408,-3.4261,-3.4162,-3.475,-3.5235,-3.5271,-3.5271,-3.5187,-3.5187,-3.5138,-3.5078,-3.4872,-3.4472,-3.4109,-3.3368,-3.308,-3.2959,-3.2717,-3.2646,-3.2945,-3.3107,-3.2928,-3.0225,-3.0225,-3.0108,-3.0049,-3.0039,-2.9931,-2.9804,-2.9627,-2.9627,-2.945,-2.9213,-2.9163,-2.8975,-2.8696,-2.8636,-2.8507,-2.8319,-2.8439,-2.8609,-2.8856,-2.8755,-2.8576,-2.8457,-2.8328,-2.825,-2.8191,-2.831,-2.8489,-2.8618,-2.8609,-2.8618,-2.85,-2.7997,-2.7682,-2.7737,-2.7327,-2.7037,-2.7171,-2.7431,-2.7539,-2.7539,-2.7638,-2.7701,-2.7701,-2.7906,-2.8121,-2.8281,-2.8441,-2.8558,-2.8558,-2.8451,-2.8408,-2.8301,-2.8301,-2.8301,-2.8301,-2.8301,-2.8301,-2.8301,-2.8291,-2.8291,-2.8237,-2.813,-2.8023,-2.8014,-2.7916,-2.8033,-2.8344,-2.8504,-2.8761,-2.9237,-2.9406,-2.9774,-3.0724,-3.0879,-3.0931,-3.1075,-3.127,-3.1578,-3.1924,-3.2229,-3.2594,-3.2958,-3.3158,-3.3308,-3.3457,-3.3607,-3.3755,-3.3755,-3.3866,-3.4075,-3.4075,-3.4075,-3.3965,-3.3866,-3.3767,-3.4052,-3.4506,-3.464,-3.4835,-3.4847,-3.4799,-3.475,-3.4641,-3.4438,-3.4222,-3.3863,-3.3516,-3.32,-3.3088,-3.294,-3.312,-3.3416,-3.3359,-3.3138,-2.9922,-2.9863,-2.9804,-2.9745,-2.9745,-2.9627,-2.945,-2.9331,-2.9331,-2.9163,-2.8865,-2.8806,-2.8627,-2.8397,-2.8337,-2.814,-2.784,-2.7831,-2.796,-2.8259,-2.8388,-2.8277,-2.808,-2.7659,-2.7478,-2.7478,-2.7478,-2.7539,-2.7659,-2.7659,-2.765,-2.7528,-2.6997,-2.6801,-2.6893,-2.6532,-2.6382,-2.6554,-2.6772,-2.6999,-2.7107,-2.7215,-2.7323,-2.7422,-2.7593,-2.7691,-2.7691,-2.7862,-2.8077,-2.8247,-2.8301,-2.8301,-2.8301,-2.8301,-2.8237,-2.8184,-2.813,-2.8077,-2.797,-2.7906,-2.797,-2.7916,-2.7799,-2.7691,-2.7691,-2.7485,-2.7647,-2.7862,-2.8077,-2.8335,-2.8708,-2.892,-2.9353,-3.0036,-3.0245,-3.0401,-3.0609,-3.0868,-3.1086,-3.1322,-3.1578,-3.1874,-3.2088,-3.2443,-3.2544,-3.2734,-3.2996,-3.3197,-3.3247,-3.3358,-3.3457,-3.3507,-3.3408,-3.3369,-3.3469,-3.3469,-3.3457,-3.3717,-3.3915,-3.4211,-3.431,-3.4359,-3.431,-3.4335,-3.4144,-3.4181,-3.3908,-3.3409,-3.3055,-3.3102,-3.3113,-3.3002,-3.3044,-3.3368,-3.3314,-2.9863,-2.9804,-2.9568,-2.945,-2.945,-2.9153,-2.8984,-2.8984,-2.8925,-2.8746,-2.8526,-2.8388,-2.8208,-2.796,-2.7848,-2.7659,-2.7461,-2.734,-2.722,-2.7237,-2.7478,-2.759,-2.734,-2.6805,-2.6631,-2.6571,-2.651,-2.6631,-2.6813,-2.6882,-2.6943,-2.6858,-2.6489,-2.6339,-2.6209,-2.5854,-2.5686,-2.5743,-2.5953,-2.6227,-2.6554,-2.6772,-2.6999,-2.7206,-2.726,-2.7314,-2.7314,-2.7431,-2.7701,-2.813,-2.8184,-2.813,-2.8237,-2.8237,-2.8077,-2.7853,-2.7853,-2.7691,-2.7485,-2.7485,-2.7485,-2.7485,-2.7431,-2.7377,-2.7368,-2.7323,-2.7314,-2.7422,-2.7638,-2.797,-2.8237,-2.8398,-2.8717,-2.9026,-2.9448,-2.9816,-3.0224,-3.0505,-3.0557,-3.0724,-3.092,-3.1127,-3.123,-3.1629,-3.1874,-3.1975,-3.2179,-3.2381,-3.2443,-3.2493,-3.2443,-3.2493,-3.2594,-3.2594,-3.2695,-3.2695,-3.2695,-3.2796,-3.3008,-3.3308,-3.3656,-3.3717,-3.3717,-3.3744,-3.3782,-3.388,-3.3726,-3.3182,-3.2996,-3.3081,-3.2896,-3.2629,-3.2795,-3.3279,-3.3384,-2.9222,-2.9222,-2.9153,-2.9163,-2.9103,-2.8755,-2.8636,-2.8576,-2.8388,-2.8259,-2.808,-2.784,-2.7599,-2.7306,-2.7064,-2.6753,-2.6554,-2.6493,-2.6432,-2.638,-2.6493,-2.6562,-2.6432,-2.6083,-2.5855,-2.5855,-2.5656,-2.5533,-2.5594,-2.5847,-2.5978,-2.5953,-2.5793,-2.5595,-2.536,-2.5161,-2.5069,-2.5051,-2.5284,-2.556,-2.5898,-2.6008,-2.6063,-2.6172,-2.6554,-2.6772,-2.6881,-2.7206,-2.7431,-2.7584,-2.7638,-2.7647,-2.7638,-2.7647,-2.7584,-2.753,-2.7476,-2.7485,-2.7377,-2.7377,-2.7377,-2.7377,-2.7215,-2.7098,-2.7098,-2.689,-2.6944,-2.7053,-2.7206,-2.7368,-2.7593,-2.7701,-2.7906,-2.8228,-2.8751,-2.9237,-2.9448,-2.9491,-2.9606,-2.9879,-3.0203,-3.0412,-3.0609,-3.0868,-3.1116,-3.1178,-3.1373,-3.1578,-3.168,-3.1783,-3.1834,-3.1834,-3.1885,-3.1885,-3.1885,-3.1885,-3.1874,-3.1874,-3.2088,-3.2291,-3.2594,-3.2846,-3.2846,-3.2896,-3.2935,-3.2985,-3.2946,-3.2614,-3.2753,-3.2849,-3.2769,-3.2578,-3.3059,-3.3541,-3.3417,-2.8806,-2.8755,-2.8618,-2.8567,-2.8558,-2.8379,-2.8208,-2.8089,-2.7891,-2.7659,-2.7418,-2.7228,-2.6926,-2.6692,-2.651,-2.6075,-2.5709,-2.5709,-2.5533,-2.5272,-2.5272,-2.5402,-2.5525,-2.548,-2.5234,-2.4988,-2.4795,-2.4734,-2.4734,-2.4865,-2.4988,-2.4978,-2.4867,-2.4767,-2.4617,-2.4515,-2.4472,-2.4474,-2.4611,-2.4795,-2.5136,-2.5136,-2.5293,-2.5459,-2.5889,-2.6045,-2.6227,-2.65,-2.6881,-2.726,-2.7431,-2.7431,-2.7377,-2.726,-2.7206,-2.7098,-2.6944,-2.6881,-2.6836,-2.689,-2.6944,-2.7008,-2.6899,-2.6836,-2.6791,-2.6582,-2.6464,-2.6564,-2.6618,-2.6727,-2.6826,-2.6989,-2.7215,-2.753,-2.795,-2.8432,-2.8857,-2.8953,-2.9079,-2.9343,-2.9511,-2.9669,-2.9869,-3.0141,-3.0297,-3.0453,-3.0713,-3.092,-3.1075,-3.1167,-3.1219,-3.1167,-3.1105,-3.1054,-3.1013,-3.1013,-3.0961,-3.0961,-3.1054,-3.1259,-3.1669,-3.1975,-3.2088,-3.2088,-3.2139,-3.215,-3.2088,-3.2139,-3.2246,-3.2303,-3.2443,-3.2606,-3.2946,-3.3197,-3.3177,-2.8457,-2.8397,-2.8089,-2.796,-2.796,-2.7831,-2.7659,-2.7461,-2.7332,-2.7039,-2.6623,-2.651,-2.6266,-2.6014,-2.577,-2.5525,-2.498,-2.498,-2.4672,-2.4417,-2.4232,-2.4417,-2.4726,-2.4734,-2.4487,-2.4046,-2.3984,-2.386,-2.386,-2.3922,-2.4053,-2.4116,-2.4047,-2.4006,-2.4024,-2.3967,-2.3905,-2.3884,-2.3845,-2.4101,-2.4356,-2.4426,-2.4526,-2.4906,-2.5128,-2.534,-2.5514,-2.5679,-2.6063,-2.7043,-2.7152,-2.7107,-2.7107,-2.6935,-2.6772,-2.6545,-2.6282,-2.6127,-2.6072,-2.6181,-2.6245,-2.6418,-2.6464,-2.6473,-2.6409,-2.619,-2.6072,-2.6118,-2.6072,-2.6127,-2.6172,-2.6336,-2.6554,-2.6772,-2.6881,-2.7413,-2.8165,-2.8538,-2.8698,-2.892,-2.892,-2.8963,-2.9069,-2.929,-2.9596,-2.9711,-2.9973,-3.0141,-3.0287,-3.0339,-3.0391,-3.0443,-3.0339,-3.0287,-3.0183,-3.0088,-3.0036,-3.0036,-3.0078,-3.0276,-3.0744,-3.1105,-3.1311,-3.1373,-3.1322,-3.1373,-3.1424,-3.1516,-3.1618,-3.168,-3.1742,-3.1997,-3.2291,-3.2493,-3.2521,-2.8089,-2.808,-2.7762,-2.7581,-2.7521,-2.7108,-2.6874,-2.6753,-2.6493,-2.6319,-2.6083,-2.5656,-2.5418,-2.5288,-2.4849,-2.4417,-2.4355,-2.4301,-2.417,-2.4108,-2.3798,-2.3611,-2.3611,-2.3549,-2.3487,-2.323,-2.2738,-2.255,-2.2668,-2.3106,-2.3293,-2.3333,-2.37,-2.3925,-2.3665,-2.3624,-2.3655,-2.3532,-2.3378,-2.355,-2.3878,-2.3796,-2.3833,-2.42,-2.4423,-2.4693,-2.4898,-2.5,-2.511,-2.5395,-2.578,-2.6063,-2.6118,-2.6008,-2.5953,-2.5898,-2.5844,-2.5743,-2.5798,-2.5798,-2.5789,-2.5907,-2.5962,-2.5916,-2.5907,-2.5798,-2.5798,-2.5798,-2.5798,-2.5688,-2.5688,-2.5798,-2.5907,-2.5953,-2.6008,-2.6172,-2.6654,-2.7305,-2.7691,-2.7853,-2.8014,-2.8174,-2.8165,-2.8591,-2.8857,-2.8963,-2.9185,-2.9406,-2.9511,-2.9606,-2.9659,-2.9754,-2.9606,-2.9501,-2.9343,-2.9237,-2.9142,-2.9142,-2.9185,-2.9237,-2.9743,-3.012,-3.0276,-3.0443,-3.0505,-3.0599,-3.064,-3.0806,-3.0858,-3.0972,-3.1075,-3.1281,-3.1538,-3.1732,-3.1986,-2.7349,-2.7297,-2.6987,-2.6857,-2.6796,-2.6501,-2.6266,-2.6083,-2.5786,-2.5525,-2.528,-2.4849,-2.4672,-2.461,-2.4301,-2.4046,-2.386,-2.3673,-2.3549,-2.3362,-2.3168,-2.2918,-2.2613,-2.2487,-2.2425,-2.2543,-2.2292,-2.2104,-2.223,-2.2418,-2.2668,-2.2606,-2.3043,-2.2956,-2.2958,-2.3078,-2.3074,-2.3074,-2.3091,-2.3208,-2.3446,-2.3221,-2.3149,-2.3392,-2.3697,-2.4089,-2.4184,-2.4351,-2.4351,-2.4406,-2.4573,-2.4906,-2.5183,-2.5128,-2.5081,-2.509,-2.5081,-2.5191,-2.5247,-2.5404,-2.545,-2.545,-2.5459,-2.5404,-2.5293,-2.5183,-2.5081,-2.5034,-2.497,-2.4859,-2.4859,-2.4859,-2.4915,-2.509,-2.509,-2.5191,-2.5569,-2.6227,-2.6881,-2.7043,-2.7314,-2.7422,-2.7628,-2.7897,-2.8165,-2.8271,-2.8378,-2.8601,-2.9016,-2.9069,-2.9016,-2.9016,-2.8867,-2.8717,-2.8548,-2.8388,-2.8237,-2.8291,-2.8388,-2.8441,-2.8698,-2.9016,-2.93,-2.9511,-2.9774,-2.9764,-2.9816,-2.9984,-3.0141,-3.0245,-3.0349,-3.0557,-3.0776,-3.1075,-3.1384,-2.651,-2.651,-2.6136,-2.5953,-2.5953,-2.5823,-2.5586,-2.5349,-2.5111,-2.4795,-2.4487,-2.4162,-2.4108,-2.4046,-2.3984,-2.3728,-2.3417,-2.3168,-2.2926,-2.2668,-2.248,-2.2292,-2.2048,-2.1803,-2.174,-2.1922,-2.1859,-2.1853,-2.1859,-2.1985,-2.2104,-2.2041,-2.2111,-2.2271,-2.2277,-2.2369,-2.2534,-2.2598,-2.2638,-2.2841,-2.2968,-2.2754,-2.2632,-2.2939,-2.3227,-2.3456,-2.3464,-2.3529,-2.3658,-2.3641,-2.3416,-2.3736,-2.4128,-2.4303,-2.4209,-2.4264,-2.4264,-2.4423,-2.4629,-2.4842,-2.4953,-2.5008,-2.5008,-2.4949,-2.4761,-2.4679,-2.4626,-2.4513,-2.4409,-2.4222,-2.4012,-2.4113,-2.4153,-2.4264,-2.432,-2.4423,-2.474,-2.5348,-2.5789,-2.6327,-2.6427,-2.6536,-2.6763,-2.7043,-2.7314,-2.7584,-2.7691,-2.7843,-2.8271,-2.8475,-2.8368,-2.8378,-2.8237,-2.813,-2.8014,-2.796,-2.7755,-2.7701,-2.7799,-2.7853,-2.7906,-2.8121,-2.8495,-2.8877,-2.9089,-2.9089,-2.9185,-2.9396,-2.9501,-2.9501,-2.9659,-2.9879,-3.0193,-3.0464,-3.0713,-2.6189,-2.6128,-2.5533,-2.5288,-2.5165,-2.4726,-2.4479,-2.4355,-2.4355,-2.4232,-2.417,-2.3852,-2.3666,-2.3604,-2.3362,-2.3106,-2.2856,-2.2738,-2.248,-2.2167,-2.1985,-2.1734,-2.1677,-2.1425,-2.1299,-2.1235,-2.1292,-2.1355,-2.1418,-2.1544,-2.167,-2.174,-2.1922,-2.2041,-2.2034,-2.2166,-2.2172,-2.2185,-2.215,-2.2252,-2.2484,-2.2377,-2.2386,-2.2746,-2.2958,-2.2975,-2.2813,-2.2809,-2.2701,-2.2438,-2.2343,-2.2472,-2.2746,-2.3093,-2.3303,-2.3537,-2.369,-2.3818,-2.4082,-2.4138,-2.4153,-2.4136,-2.4203,-2.4288,-2.4341,-2.4383,-2.4367,-2.454,-2.4392,-2.4261,-2.431,-2.3958,-2.3906,-2.3937,-2.3906,-2.3937,-2.4033,-2.4192,-2.4629,-2.5174,-2.5386,-2.5661,-2.5889,-2.6172,-2.6436,-2.6708,-2.6881,-2.7043,-2.7305,-2.752,-2.7584,-2.7584,-2.7593,-2.7539,-2.7485,-2.7485,-2.7431,-2.7431,-2.7422,-2.7476,-2.753,-2.753,-2.7745,-2.8237,-2.8558,-2.8664,-2.8771,-2.8867,-2.8973,-2.9079,-2.9185,-2.929,-2.9564,-2.9827,-3.0036,-2.5087,-2.5026,-2.4726,-2.461,-2.4548,-2.4239,-2.4108,-2.4046,-2.3922,-2.386,-2.3736,-2.3487,-2.3362,-2.33,-2.3168,-2.2918,-2.2606,-2.2425,-2.2167,-2.1859,-2.167,-2.1481,-2.1362,-2.1172,-2.1109,-2.1102,-2.1102,-2.1102,-2.1102,-2.1235,-2.1362,-2.1362,-2.1481,-2.1544,-2.1614,-2.1727,-2.1859,-2.1811,-2.1832,-2.1997,-2.2279,-2.2015,-2.2057,-2.2086,-2.2483,-2.2498,-2.2468,-2.2769,-2.281,-2.2622,-2.2293,-2.211,-2.2095,-2.2109,-2.2286,-2.2743,-2.3083,-2.3406,-2.3731,-2.3942,-2.4204,-2.3957,-2.3933,-2.3841,-2.3753,-2.3715,-2.3927,-2.3975,-2.3924,-2.37,-2.37,-2.3576,-2.3441,-2.3267,-2.3276,-2.3189,-2.3077,-2.303,-2.3456,-2.4128,-2.4518,-2.4795,-2.5026,-2.5302,-2.5569,-2.5789,-2.6063,-2.6282,-2.6445,-2.6663,-2.6826,-2.6944,-2.6999,-2.6999,-2.6944,-2.6944,-2.6999,-2.7053,-2.7107,-2.7107,-2.7215,-2.7269,-2.7431,-2.7755,-2.7979,-2.8023,-2.8237,-2.8335,-2.8495,-2.8654,-2.8824,-2.893,-2.8983,-2.9195,-2.9459,-2.4108,-2.4108,-2.4046,-2.3984,-2.3976,-2.3929,-2.3922,-2.386,-2.3611,-2.3479,-2.3487,-2.3238,-2.3043,-2.2981,-2.2856,-2.2668,-2.2418,-2.2104,-2.1796,-2.1544,-2.1488,-2.1292,-2.1166,-2.1102,-2.1102,-2.1102,-2.1102,-2.1102,-2.1102,-2.1109,-2.1102,-2.1166,-2.1102,-2.1102,-2.1166,-2.1425,-2.1481,-2.1607,-2.1734,-2.1922,-2.1916,-2.1804,-2.1574,-2.1404,-2.1868,-2.211,-2.2031,-2.2377,-2.2557,-2.2431,-2.217,-2.1893,-2.1855,-2.1435,-2.1432,-2.1881,-2.2458,-2.2906,-2.3356,-2.3774,-2.3943,-2.3693,-2.3771,-2.3539,-2.3484,-2.3478,-2.348,-2.3322,-2.3297,-2.3342,-2.3386,-2.3139,-2.3045,-2.2846,-2.2701,-2.2528,-2.2429,-2.242,-2.2513,-2.307,-2.3641,-2.4033,-2.4303,-2.4526,-2.4795,-2.4962,-2.5183,-2.5514,-2.5679,-2.5889,-2.6054,-2.6345,-2.64,-2.6409,-2.6409,-2.6409,-2.6464,-2.6564,-2.6673,-2.6727,-2.689,-2.7062,-2.7225,-2.7225,-2.7107,-2.7215,-2.7476,-2.7799,-2.8014,-2.8228,-2.8398,-2.8558,-2.8664,-2.8834,-2.9099,-2.4108,-2.4046,-2.3798,-2.3666,-2.3611,-2.3362,-2.323,-2.323,-2.3238,-2.3175,-2.3238,-2.3113,-2.2926,-2.2675,-2.2362,-2.2048,-2.1796,-2.167,-2.1488,-2.1235,-2.1229,-2.1166,-2.1109,-2.1102,-2.1102,-2.1102,-2.1102,-2.1102,-2.1102,-2.1102,-2.1102,-2.1102,-2.1102,-2.1102,-2.1102,-2.1172,-2.1172,-2.1166,-2.1229,-2.1425,-2.167,-2.1867,-2.1867,-2.1902,-2.1984,-2.1948,-2.1751,-2.1954,-2.1875,-2.1648,-2.1477,-2.1329,-2.1314,-2.1254,-2.118,-2.147,-2.1843,-2.2349,-2.2721,-2.3177,-2.3417,-2.338,-2.3326,-2.3359,-2.3444,-2.3635,-2.3764,-2.3986,-2.3673,-2.3437,-2.3384,-2.3254,-2.3094,-2.2898,-2.2703,-2.2602,-2.2405,-2.2042,-2.2131,-2.2173,-2.274,-2.3296,-2.3689,-2.3857,-2.408,-2.4192,-2.4359,-2.4684,-2.4962,-2.5183,-2.5348,-2.5578,-2.5844,-2.5844,-2.5907,-2.5907,-2.6026,-2.6127,-2.6236,-2.6345,-2.6455,-2.6627,-2.6636,-2.6627,-2.6455,-2.6509,-2.6935,-2.726,-2.7584,-2.7809,-2.8023,-2.8184,-2.8291,-2.8504,-2.8727,-2.3549,-2.3549,-2.3362,-2.33,-2.3293,-2.3168,-2.3106,-2.3106,-2.3106,-2.3106,-2.3043,-2.2856,-2.2606,-2.2299,-2.1985,-2.174,-2.1551,-2.1362,-2.1235,-2.1109,-2.1039,-2.1039,-2.1102,-2.1102,-2.1102,-2.1039,-2.1102,-2.1102,-2.1102,-2.1039,-2.1102,-2.1109,-2.1102,-2.1102,-2.1102,-2.1102,-2.1102,-2.1102,-2.1102,-2.1166,-2.1292,-2.1418,-2.1544,-2.1544,-2.1734,-2.1707,-2.1693,-2.1839,-2.1859,-2.165,-2.1589,-2.141,-2.141,-2.1293,-2.1162,-2.1162,-2.1534,-2.1949,-2.2362,-2.2776,-2.3011,-2.3178,-2.3239,-2.3405,-2.3409,-2.3437,-2.3549,-2.3534,-2.3422,-2.3333,-2.331,-2.3214,-2.2981,-2.2871,-2.2714,-2.2453,-2.2273,-2.2028,-2.1879,-2.1852,-2.1896,-2.2456,-2.2901,-2.3183,-2.3352,-2.352,-2.3745,-2.408,-2.4359,-2.4582,-2.4748,-2.4868,-2.5072,-2.5229,-2.5395,-2.545,-2.5624,-2.5734,-2.5852,-2.5962,-2.6017,-2.6072,-2.6136,-2.6136,-2.6017,-2.6172,-2.65,-2.6772,-2.7043,-2.7314,-2.7647,-2.7809,-2.796,-2.8067,-2.8291,-2.2926,-2.2856,-2.3043,-2.3106,-2.3106,-2.3106,-2.305,-2.2981,-2.2988,-2.2918,-2.2793,-2.248,-2.2167,-2.1859,-2.1481,-2.1235,-2.1172,-2.0982,-2.0862,-2.0862,-2.0862,-2.0799,-2.0799,-2.0799,-2.0792,-2.0856,-2.0729,-2.0729,-2.0792,-2.0856,-2.0856,-2.1046,-2.1102,-2.1102,-2.1102,-2.1102,-2.1102,-2.1102,-2.1102,-2.1102,-2.1102,-2.1102,-2.1102,-2.1166,-2.1292,-2.1481,-2.1544,-2.1657,-2.1776,-2.1692,-2.1546,-2.14,-2.1344,-2.1204,-2.1085,-2.1141,-2.1393,-2.1582,-2.1928,-2.235,-2.2772,-2.2981,-2.3168,-2.3157,-2.3193,-2.3106,-2.3106,-2.3168,-2.3153,-2.3146,-2.3098,-2.3076,-2.3014,-2.283,-2.2676,-2.2308,-2.2015,-2.1943,-2.181,-2.1713,-2.1695,-2.1611,-2.2059,-2.24,-2.2619,-2.2796,-2.3135,-2.3464,-2.3753,-2.3977,-2.4144,-2.4312,-2.4415,-2.4565,-2.4731,-2.4898,-2.5072,-2.5293,-2.5404,-2.5459,-2.5459,-2.5514,-2.5569,-2.5569,-2.5514,-2.5569,-2.567,-2.6109,-2.6491,-2.6881,-2.7206,-2.7422,-2.7584,-2.7745,-2.7906,-2.2425,-2.223,-2.2856,-2.3043,-2.3043,-2.3106,-2.2918,-2.2675,-2.2668,-2.2425,-2.2111,-2.1796,-2.1551,-2.1172,-2.0856,-2.0545,-2.0234,-2.0176,-2.0234,-2.0234,-2.017,-2.0297,-2.0304,-2.0297,-2.0234,-2.0234,-2.0297,-2.0297,-2.0234,-2.0361,-2.0609,-2.0982,-2.0919,-2.1039,-2.1039,-2.0982,-2.1046,-2.1102,-2.1102,-2.1102,-2.1102,-2.1102,-2.1102,-2.1102,-2.1102,-2.1102,-2.1172,-2.1235,-2.1292,-2.1292,-2.1229,-2.1229,-2.1229,-2.1166,-2.1102,-2.1102,-2.1166,-2.1252,-2.1483,-2.186,-2.2153,-2.2292,-2.248,-2.2793,-2.2926,-2.305,-2.3113,-2.3043,-2.3043,-2.3106,-2.3106,-2.3098,-2.3054,-2.2981,-2.282,-2.2615,-2.2301,-2.2015,-2.1884,-2.1708,-2.1619,-2.1552,-2.1484,-2.1892,-2.2124,-2.2343,-2.2456,-2.2845,-2.3127,-2.336,-2.3641,-2.3745,-2.3801,-2.3913,-2.3968,-2.4136,-2.4303,-2.4526,-2.4693,-2.4795,-2.4842,-2.4962,-2.5017,-2.4962,-2.4851,-2.4842,-2.4898,-2.5284,-2.5725,-2.6327,-2.6718,-2.6881,-2.726,-2.753,-2.7691,-2.2237,-2.2104,-2.2355,-2.248,-2.248,-2.2487,-2.2418,-2.2299,-2.2299,-2.1985,-2.1488,-2.1362,-2.0982,-2.0545,-2.0418,-2.0227,-2.0106,-2.0113,-2.0113,-2.0113,-2.0113,-2.0113,-2.0113,-2.0049,-2.0113,-2.0043,-2.0113,-2.0113,-2.0113,-2.0049,-2.0176,-2.0425,-2.0482,-2.0482,-2.0545,-2.0729,-2.0856,-2.1046,-2.1046,-2.1109,-2.1102,-2.1102,-2.1102,-2.1102,-2.1102,-2.1102,-2.1102,-2.1102,-2.1102,-2.1039,-2.1039,-2.1039,-2.1039,-2.1039,-2.1039,-2.1039,-2.1046,-2.1039,-2.1102,-2.1481,-2.1859,-2.2111,-2.223,-2.2355,-2.255,-2.2675,-2.2731,-2.2856,-2.2988,-2.2981,-2.3113,-2.3106,-2.3091,-2.3069,-2.2974,-2.282,-2.2601,-2.2301,-2.2111,-2.1979,-2.1759,-2.162,-2.1503,-2.145,-2.167,-2.1839,-2.2002,-2.2173,-2.2513,-2.274,-2.2958,-2.307,-2.3127,-2.3239,-2.3296,-2.3416,-2.3528,-2.3753,-2.3977,-2.4024,-2.4072,-2.4239,-2.4295,-2.4239,-2.4184,-2.4184,-2.4239,-2.4406,-2.4906,-2.556,-2.5999,-2.6282,-2.6718,-2.726,-2.7422,-2.1677,-2.1551,-2.1481,-2.1734,-2.2041,-2.2104,-2.2048,-2.1922,-2.1859,-2.1418,-2.0799,-2.0799,-2.0482,-2.01,-1.9973,-1.9845,-1.9781,-1.9724,-1.9788,-1.9724,-1.9724,-1.9788,-1.9788,-1.9788,-1.9724,-1.9781,-1.9781,-1.9781,-1.9724,-1.9781,-1.9781,-1.9781,-1.9845,-1.9909,-2.017,-2.0297,-2.0545,-2.0736,-2.0799,-2.0799,-2.0792,-2.0792,-2.0729,-2.0729,-2.0729,-2.0729,-2.0729,-2.0736,-2.0729,-2.0736,-2.0736,-2.0799,-2.0792,-2.0792,-2.0792,-2.0799,-2.0799,-2.0799,-2.0919,-2.1235,-2.1607,-2.1859,-2.1922,-2.1985,-2.2111,-2.2299,-2.2418,-2.248,-2.2668,-2.2856,-2.2926,-2.2918,-2.2981,-2.2959,-2.3084,-2.2959,-2.2828,-2.2593,-2.2454,-2.2323,-2.2067,-2.1803,-2.1547,-2.1415,-2.1356,-2.1576,-2.1782,-2.1888,-2.2059,-2.223,-2.2335,-2.2392,-2.2335,-2.2505,-2.2683,-2.274,-2.2853,-2.2909,-2.307,-2.3183,-2.3296,-2.3408,-2.3408,-2.3231,-2.3231,-2.3408,-2.3464,-2.3464,-2.4072,-2.4787,-2.5284,-2.5734,-2.6172,-2.6663,-2.6989,-2.0729,-2.0176,-2.017,-2.0919,-2.1853,-2.2048,-2.1859,-2.1481,-2.1235,-2.0729,-2.017,-2.0106,-1.9909,-1.9577,-1.945,-1.9322,-1.9136,-1.9072,-1.9072,-1.9078,-1.9072,-1.9136,-1.9136,-1.9136,-1.9072,-1.9078,-1.9078,-1.9072,-1.9072,-1.9072,-1.9072,-1.92,-1.9334,-1.9526,-2.0049,-2.0113,-2.0106,-2.017,-2.017,-2.0234,-2.0234,-2.0297,-2.0297,-2.0297,-2.0297,-2.0297,-2.0361,-2.0361,-2.0361,-2.0361,-2.0297,-2.0297,-2.0297,-2.0297,-2.0297,-2.0234,-2.024,-2.0176,-2.024,-2.0799,-2.1172,-2.1418,-2.1355,-2.1481,-2.1859,-2.2041,-2.2048,-2.1985,-2.2174,-2.2362,-2.2487,-2.2606,-2.2793,-2.2856,-2.2918,-2.2889,-2.2697,-2.2624,-2.2411,-2.2303,-2.2231,-2.2059,-2.1679,-2.1431,-2.1234,-2.1327,-2.1511,-2.1668,-2.1725,-2.1774,-2.1831,-2.1831,-2.1831,-2.2002,-2.2173,-2.2116,-2.2116,-2.2173,-2.2222,-2.2328,-2.2384,-2.2498,-2.2441,-2.2279,-2.2392,-2.2675,-2.2562,-2.2456,-2.3231,-2.396,-2.4787,-2.5284,-2.5734,-2.6063,-2.6336,-2.0297,-2.0113,-1.9845,-2.0024,-2.0469,-2.0672,-2.0672,-2.0615,-2.0418,-2.0036,-1.9526,-1.9462,-1.9072,-1.8676,-1.8547,-1.8483,-1.8425,-1.8361,-1.8361,-1.8361,-1.8425,-1.8355,-1.8355,-1.8425,-1.8425,-1.8361,-1.8361,-1.8425,-1.8361,-1.8425,-1.8565,-1.8693,-1.8944,-1.9328,-1.9647,-1.9775,-1.9839,-2.0043,-2.0113,-2.0113,-2.0113,-2.0113,-2.0049,-2.0049,-2.0049,-2.0049,-2.0049,-2.0049,-2.0043,-2.0049,-1.9985,-2.0043,-2.0043,-2.0049,-2.0043,-2.0106,-2.0113,-2.0113,-2.0113,-2.0361,-2.0488,-2.0609,-2.0736,-2.0799,-2.0799,-2.1235,-2.1362,-2.1551,-2.174,-2.1985,-2.2237,-2.2237,-2.2362,-2.2355,-2.2362,-2.2362,-2.2291,-2.227,-2.2199,-2.2121,-2.2006,-2.1754,-2.1508,-2.1391,-2.1225,-2.1133,-2.1329,-2.1327,-2.134,-2.1382,-2.1432,-2.1439,-2.1439,-2.1611,-2.1668,-2.1546,-2.1596,-2.1653,-2.1588,-2.1581,-2.1638,-2.1645,-2.1645,-2.1588,-2.1759,-2.1881,-2.1881,-2.1995,-2.2449,-2.3127,-2.3896,-2.4565,-2.5008,-2.534,-2.567,-1.9532,-1.9328,-1.913,-1.906,-1.913,-1.9526,-1.9724,-1.9602,-1.9532,-1.927,-1.8816,-1.8688,-1.8489,-1.8103,-1.791,-1.7846,-1.7852,-1.7711,-1.7647,-1.7653,-1.7781,-1.7846,-1.7846,-1.791,-1.8098,-1.7969,-1.7969,-1.8033,-1.8098,-1.8033,-1.8168,-1.8366,-1.8623,-1.8746,-1.8996,-1.9194,-1.952,-1.9654,-1.966,-1.9654,-1.9724,-1.9724,-1.9724,-1.9724,-1.9724,-1.9724,-1.9724,-1.9781,-1.9717,-1.9717,-1.9724,-1.9781,-1.9717,-1.9717,-1.9781,-1.9781,-1.9788,-1.9724,-1.9724,-1.9717,-1.9781,-1.9788,-1.9915,-2.0113,-2.0176,-2.0545,-2.0672,-2.0919,-2.1235,-2.1488,-2.167,-2.1734,-2.1796,-2.1859,-2.1985,-2.1985,-2.2041,-2.2013,-2.2006,-2.1881,-2.1832,-2.1533,-2.1282,-2.1275,-2.1146,-2.1116,-2.1092,-2.1017,-2.0939,-2.0967,-2.1018,-2.1018,-2.0989,-2.1031,-2.1024,-2.0967,-2.1024,-2.1131,-2.1017,-2.0895,-2.0895,-2.096,-2.0895,-2.0902,-2.1031,-2.1211,-2.1368,-2.1596,-2.1998,-2.2382,-2.2901,-2.3568,-2.4184,-2.4654,-2.5013,-1.8302,-1.7969,-1.7969,-1.7969,-1.8098,-1.8617,-1.8752,-1.8571,-1.8571,-1.8308,-1.7969,-1.791,-1.7776,-1.7776,-1.7529,-1.74,-1.7335,-1.7071,-1.7007,-1.7007,-1.7206,-1.7271,-1.7459,-1.7588,-1.7523,-1.7717,-1.7711,-1.7518,-1.784,-1.7717,-1.7717,-1.791,-1.791,-1.8039,-1.8232,-1.8489,-1.8874,-1.9008,-1.9008,-1.9008,-1.9008,-1.9078,-1.9078,-1.9072,-1.9072,-1.9072,-1.9072,-1.9072,-1.9072,-1.9072,-1.9078,-1.9072,-1.9072,-1.9078,-1.9072,-1.9072,-1.9078,-1.9078,-1.9072,-1.9072,-1.9072,-1.9136,-1.9532,-1.9851,-2.0043,-2.0036,-2.0164,-2.0227,-2.0482,-2.0729,-2.0919,-2.1109,-2.1299,-2.1488,-2.174,-2.1796,-2.1796,-2.179,-2.1783,-2.1706,-2.1643,-2.1472,-2.1204,-2.1081,-2.0767,-2.0699,-2.0602,-2.0404,-2.0441,-2.0605,-2.0649,-2.0621,-2.0585,-2.0392,-2.0392,-2.0471,-2.045,-2.0558,-2.0392,-2.0277,-2.0277,-2.0284,-2.027,-2.0277,-2.0356,-2.0499,-2.0924,-2.1184,-2.1429,-2.1817,-2.2253,-2.2818,-2.3513,-2.4053,-2.4407,-1.7394,-1.7265,-1.7012,-1.6947,-1.6947,-1.6877,-1.7077,-1.7464,-1.7459,-1.7271,-1.6953,-1.6953,-1.6877,-1.6548,-1.6488,-1.6423,-1.6423,-1.6364,-1.6294,-1.6359,-1.6364,-1.6429,-1.6494,-1.6618,-1.6618,-1.6618,-1.6618,-1.6748,-1.6683,-1.6818,-1.6947,-1.6947,-1.7201,-1.7265,-1.7394,-1.7523,-1.791,-1.8173,-1.8238,-1.8296,-1.8296,-1.8361,-1.8296,-1.8296,-1.8355,-1.8291,-1.8296,-1.8296,-1.8296,-1.8296,-1.8296,-1.8291,-1.8296,-1.8296,-1.8296,-1.8291,-1.8291,-1.8291,-1.8291,-1.8361,-1.8361,-1.8291,-1.8553,-1.8938,-1.92,-1.952,-1.9654,-1.9647,-1.9717,-1.9966,-2.0157,-2.0354,-2.0475,-2.0666,-2.0856,-2.0856,-2.0856,-2.0856,-2.0849,-2.0849,-2.0856,-2.0816,-2.0575,-2.0499,-2.0257,-2.0195,-2.0044,-1.9922,-1.994,-2.0116,-2.0254,-2.0234,-2.0223,-2.0072,-2.0072,-2.0181,-2.0016,-1.9982,-1.9897,-1.9829,-1.9822,-1.9815,-1.9741,-1.9853,-2.0106,-2.0403,-2.0665,-2.0941,-2.1144,-2.1419,-2.1839,-2.2311,-2.2796,-2.3389,-2.3853,-1.6618,-1.6558,-1.6364,-1.6174,-1.5844,-1.5649,-1.5709,-1.5894,-1.6353,-1.6494,-1.6304,-1.6299,-1.6169,-1.6039,-1.5779,-1.5583,-1.5518,-1.5187,-1.5122,-1.5122,-1.5383,-1.5453,-1.5518,-1.5714,-1.5969,-1.5904,-1.5974,-1.6164,-1.6034,-1.6104,-1.6304,-1.6364,-1.6558,-1.6553,-1.6613,-1.6683,-1.6812,-1.7136,-1.7394,-1.7588,-1.7582,-1.7582,-1.7582,-1.7582,-1.7582,-1.7582,-1.7582,-1.7582,-1.7588,-1.7582,-1.7582,-1.7582,-1.7582,-1.7582,-1.7582,-1.7582,-1.7588,-1.7582,-1.7582,-1.7588,-1.7588,-1.7582,-1.7582,-1.784,-1.8232,-1.8553,-1.8746,-1.8868,-1.9066,-1.9264,-1.9398,-1.9532,-1.9596,-1.9717,-1.9717,-1.9717,-1.9717,-1.9717,-1.9717,-1.9717,-1.9781,-1.9775,-1.9699,-1.9654,-1.9693,-1.9606,-1.9581,-1.9631,-1.9564,-1.9702,-1.9787,-1.9767,-1.98,-1.972,-1.9784,-1.9789,-1.9666,-1.966,-1.9747,-1.9635,-1.9529,-1.9654,-1.9891,-1.9998,-2.0052,-2.0337,-2.0676,-2.0826,-2.1043,-2.1289,-2.1452,-2.1756,-2.2281,-2.2882,-2.3271,-1.5839,-1.5839,-1.5839,-1.5388,-1.4866,-1.48,-1.4534,-1.4071,-1.5248,-1.5839,-1.5779,-1.5774,-1.5709,-1.5383,-1.5057,-1.4866,-1.4735,-1.4403,-1.4268,-1.3945,-1.4403,-1.4665,-1.4926,-1.5187,-1.5253,-1.5578,-1.5714,-1.5383,-1.5709,-1.5644,-1.5583,-1.5839,-1.5774,-1.5704,-1.5639,-1.5639,-1.5704,-1.5834,-1.6224,-1.6548,-1.6872,-1.6936,-1.6936,-1.6942,-1.6942,-1.6942,-1.6936,-1.6936,-1.6942,-1.6942,-1.6942,-1.6936,-1.6936,-1.6942,-1.6942,-1.6942,-1.6942,-1.6942,-1.6936,-1.6936,-1.6942,-1.6942,-1.6942,-1.7007,-1.7265,-1.7717,-1.7969,-1.8162,-1.8366,-1.8559,-1.8688,-1.8693,-1.8693,-1.8752,-1.8688,-1.8688,-1.8623,-1.8623,-1.8617,-1.8623,-1.8617,-1.8617,-1.8623,-1.8623,-1.8688,-1.8786,-1.8896,-1.893,-1.9057,-1.9125,-1.929,-1.9341,-1.943,-1.9473,-1.9419,-1.9393,-1.9356,-1.936,-1.9501,-1.9516,-1.9447,-1.9766,-2.014,-2.0167,-2.0181,-2.0396,-2.0645,-2.0821,-2.0958,-2.1148,-2.127,-2.1287,-2.1701,-2.2362,-2.2804,-1.4399,-1.4399,-1.4399,-1.4268,-1.4137,-1.4141,-1.4076,-1.394,-1.4202,-1.4399,-1.4403,-1.4399,-1.4464,-1.4464,-1.4333,-1.4207,-1.4076,-1.3945,-1.3875,-1.3814,-1.3945,-1.401,-1.4141,-1.4338,-1.4403,-1.4333,-1.4399,-1.46,-1.466,-1.453,-1.4469,-1.4464,-1.453,-1.4595,-1.4595,-1.4595,-1.4595,-1.4726,-1.4856,-1.5508,-1.6029,-1.6229,-1.6229,-1.6229,-1.6164,-1.6164,-1.6164,-1.6164,-1.6229,-1.6234,-1.6234,-1.6229,-1.6229,-1.6229,-1.6229,-1.6229,-1.6159,-1.6159,-1.6099,-1.6094,-1.6094,-1.6164,-1.6164,-1.6229,-1.6488,-1.6942,-1.7265,-1.7459,-1.7658,-1.7787,-1.7916,-1.7787,-1.7787,-1.7723,-1.7723,-1.7653,-1.7588,-1.7588,-1.7518,-1.7582,-1.7582,-1.7588,-1.7588,-1.7588,-1.7653,-1.7781,-1.7846,-1.7958,-1.8139,-1.8348,-1.8854,-1.8957,-1.9208,-1.9254,-1.9189,-1.9185,-1.9186,-1.9203,-1.9362,-1.9379,-1.9354,-1.9682,-2.0073,-2.0252,-2.0347,-2.0536,-2.0697,-2.0933,-2.1036,-2.1141,-2.1252,-2.1314,-2.1493,-2.2008,-2.2353,-1.3875,-1.3875,-1.3875,-1.3814,-1.3687,-1.3687,-1.3621,-1.342,-1.3424,-1.342,-1.349,-1.3744,-1.3875,-1.3809,-1.3748,-1.3687,-1.3621,-1.349,-1.3358,-1.3358,-1.349,-1.3555,-1.3621,-1.3687,-1.3884,-1.3814,-1.3875,-1.394,-1.3809,-1.394,-1.394,-1.3875,-1.3875,-1.3875,-1.3875,-1.3875,-1.3875,-1.394,-1.3875,-1.4333,-1.5122,-1.5122,-1.5052,-1.5052,-1.5052,-1.5117,-1.5052,-1.5052,-1.5057,-1.5057,-1.4992,-1.4987,-1.4987,-1.4987,-1.5052,-1.5057,-1.5057,-1.5052,-1.5122,-1.5122,-1.5183,-1.5183,-1.5117,-1.5052,-1.4987,-1.5438,-1.6029,-1.6229,-1.6618,-1.6877,-1.6877,-1.6818,-1.6818,-1.6812,-1.6748,-1.6683,-1.6683,-1.6683,-1.6678,-1.6678,-1.6678,-1.6683,-1.6683,-1.6683,-1.6748,-1.6748,-1.6818,-1.7012,-1.7201,-1.7459,-1.8006,-1.8417,-1.8625,-1.8851,-1.8911,-1.8986,-1.9168,-1.9225,-1.9249,-1.9455,-1.9637,-1.9799,-1.9979,-2.0152,-2.0378,-2.0552,-2.0717,-2.0853,-2.1006,-2.1101,-2.1198,-2.1301,-2.1551,-2.167,-2.1916,-1.3748,-1.3744,-1.3748,-1.3555,-1.3367,-1.3301,-1.3169,-1.2836,-1.2836,-1.2836,-1.2902,-1.3486,-1.3748,-1.3621,-1.349,-1.3367,-1.3301,-1.3099,-1.2902,-1.2902,-1.2902,-1.3099,-1.3235,-1.3371,-1.3428,-1.3555,-1.3617,-1.3617,-1.3613,-1.3617,-1.3617,-1.3744,-1.3748,-1.3748,-1.3748,-1.3748,-1.3617,-1.3617,-1.3617,-1.3678,-1.3814,-1.3879,-1.4006,-1.4006,-1.3875,-1.3875,-1.3875,-1.394,-1.394,-1.4006,-1.4141,-1.4137,-1.4202,-1.4202,-1.4137,-1.4202,-1.4202,-1.4202,-1.4071,-1.4202,-1.4071,-1.4006,-1.3875,-1.3875,-1.394,-1.4268,-1.4856,-1.5187,-1.5578,-1.5904,-1.5904,-1.5909,-1.5909,-1.5774,-1.5774,-1.5704,-1.5704,-1.5704,-1.5704,-1.5704,-1.5704,-1.5704,-1.5709,-1.5709,-1.5779,-1.5839,-1.5974,-1.6169,-1.6364,-1.6618,-1.7028,-1.7393,-1.7688,-1.7983,-1.8448,-1.8726,-1.8915,-1.9048,-1.9108,-1.956,-1.9877,-1.9815,-1.9909,-2.0125,-2.0303,-2.041,-2.0543,-2.0646,-2.0786,-2.0976,-2.0982,-2.1052,-2.1299,-2.1425,-2.1488,-1.303,-1.3034,-1.3034,-1.2968,-1.2902,-1.2902,-1.2906,-1.277,-1.277,-1.277,-1.2836,-1.2902,-1.3034,-1.303,-1.2968,-1.2968,-1.2968,-1.2836,-1.277,-1.277,-1.277,-1.284,-1.2906,-1.3038,-1.2968,-1.3034,-1.3095,-1.303,-1.3223,-1.3161,-1.3034,-1.3095,-1.303,-1.303,-1.303,-1.303,-1.3095,-1.3161,-1.3161,-1.3161,-1.3288,-1.3486,-1.3875,-1.3875,-1.3875,-1.3875,-1.3875,-1.3875,-1.3875,-1.3875,-1.3809,-1.3809,-1.3744,-1.3744,-1.3748,-1.3678,-1.3744,-1.3748,-1.3748,-1.3748,-1.3682,-1.3748,-1.3744,-1.3744,-1.3809,-1.3809,-1.4207,-1.4272,-1.4665,-1.5057,-1.5122,-1.5127,-1.5127,-1.4861,-1.473,-1.4595,-1.453,-1.453,-1.453,-1.453,-1.453,-1.453,-1.453,-1.466,-1.4796,-1.4861,-1.5122,-1.5318,-1.5709,-1.5904,-1.6099,-1.6429,-1.6753,-1.7394,-1.7963,-1.8355,-1.8576,-1.8746,-1.895,-1.927,-1.952,-1.9647,-1.9775,-1.9845,-2.0043,-2.0144,-2.0227,-2.0354,-2.0482,-2.0602,-2.0666,-2.0736,-2.0982,-2.1109,-2.1172]},{"header":{"parameterUnit":"m.s-1","parameterCategory":1,"la1":31.0,"la2":29.5877,"lo1":-88.7671,"lo2":-86.6584,"dy":0.0162,"dx":0.0185,"nx":115,"ny":88,"refTime":"2023-08-15T06:00:00:Z","depth":0,"parameterNumber":3,"parameterNumberName":"V-component_of_WINDS"},"data":[0.0,0.0,0.0,0.0,0.0,0.0,0.0,0.0,0.0,0.0,0.0,0.0,0.0,0.0,0.0,0.0,0.0,0.0,0.0,0.0,0.0,0.0,0.0,0.0,0.0,0.0,0.0,0.0,0.0,0.0,0.0,0.0,0.0,0.0,0.0,0.0,0.0,0.0,0.0,0.0,0.0,0.0,0.0,0.0,0.0,0.0,0.0,0.0,0.0,0.0,0.0,0.0,0.0,0.0,0.0,0.0,0.0,0.0,0.0,0.0,0.0,0.0,0.0,0.0,0.0,0.0,0.0,0.0,0.0,0.0,0.0,0.0,0.0,0.0,0.0,0.0,0.0,0.0,0.0,0.0,0.0,0.0,0.0,0.0,0.0,0.0,0.0,0.0,0.0,0.0,0.0,0.0,0.0,0.0,0.0,0.0,0.0,0.0,0.0,0.0,0.0,0.0,0.0,0.0,0.0,0.0,0.0,0.0,0.0,0.0,0.0,0.0,0.0,0.0,0.0,0.0,0.0,0.0,0.0,0.0,0.0,0.0,0.0,0.0,0.0,0.0,0.0,0.0,0.0,0.0,0.0,0.0,0.0,0.0,0.0,0.0,0.0,0.0,0.0,0.0,0.0,0.0,0.0,0.0,0.0,0.0,0.0,0.0,0.0,0.0,0.0,0.0,0.0,0.0,0.0,0.0,0.0,0.0,0.0,0.0,0.0,0.0,0.0,0.0,0.0,0.0,0.0,0.0,0.0,0.0,0.0,0.0,0.0,0.0,0.0,0.0,0.0,0.0,0.0,0.0,0.0,0.0,0.0,0.0,0.0,0.0,0.0,0.0,0.0,0.0,0.0,0.0,0.0,0.0,0.0,0.0,0.0,0.0,0.0,0.0,0.0,0.0,0.0,0.0,0.0,0.0,0.0,0.0,0.0,0.0,0.0,0.0,0.0,0.0,0.0,0.0,0.0,0.0,0.0,0.0,0.0,0.0,0.0,0.0,0.0,0.0,0.0,0.0,0.0,0.0,0.0,0.0,0.0,0.0,0.0,0.0,0.0,0.0,0.0,0.0,0.0,0.0,0.0,0.0,0.0,0.0,0.0,0.0,0.0,0.0,0.0,0.0,0.0,0.0,0.0,0.0,0.0,0.0,0.0,0.0,0.0,0.0,0.0,0.0,0.0,0.0,0.0,0.0,0.0,0.0,0.0,0.0,0.0,0.0,0.0,0.0,0.0,0.0,0.0,0.0,0.0,0.0,0.0,0.0,0.0,0.0,0.0,0.0,0.0,0.0,0.0,0.0,0.0,0.0,0.0,0.0,0.0,0.0,0.0,0.0,0.0,0.0,0.0,0.0,0.0,0.0,0.0,0.0,0.0,0.0,0.0,0.0,0.0,0.0,0.0,0.0,0.0,0.0,0.0,0.0,0.0,0.0,0.0,0.0,0.0,0.0,0.0,0.0,0.0,0.0,0.0,0.0,0.0,0.0,0.0,0.0,0.0,0.0,0.0,0.0,0.0,0.0,0.0,0.0,0.0,0.0,0.0,0.0,0.0,0.0,0.0,0.0,0.0,0.0,0.0,0.0,0.0,0.0,0.0,0.0,0.0,0.0,0.0,0.0,0.0,0.0,0.0,0.0,0.0,0.0,0.0,0.0,0.0,0.0,0.0,0.0,0.0,0.0,0.0,0.0,0.0,0.0,0.0,0.0,0.0,0.0,0.0,0.0,0.0,0.0,0.0,0.0,0.0,0.0,0.0,0.0,0.0,0.0,0.0,0.0,0.0,0.0,0.0,0.0,0.0,0.0,0.0,0.0,0.0,0.0,0.0,0.0,0.0,0.0,0.0,0.0,0.0,0.0,0.0,0.0,0.0,0.0,0.0,0.0,0.0,0.0,0.0,0.0,0.0,0.0,0.0,0.0,0.0,0.0,0.0,0.0,0.0,0.0,0.0,0.0,0.0,0.0,0.0,0.0,0.0,0.0,0.0,0.0,0.0,0.0,0.0,0.0,0.0,0.0,0.0,0.0,0.0,0.0,0.0,0.0,0.0,0.0,0.0,0.0,0.0,0.0,0.0,0.0,0.0,0.0,0.0,0.0,0.0,0.0,0.0,0.0,0.0,0.0,0.0,0.0,0.0,0.0,0.0,0.0,0.0,0.0,0.0,0.0,0.0,0.0,0.0,0.0,0.0,0.0,0.0,0.0,0.0,0.0,0.0,0.0,0.0,0.0,0.0,0.0,0.0,0.0,0.0,0.0,0.0,0.0,0.0,0.0,0.0,0.0,0.0,0.0,0.0,0.0,0.0,0.0,0.0,0.0,0.0,0.0,0.0,0.0,0.0,0.0,0.0,0.0,0.0,0.0,0.0,0.0,0.0,0.0,0.0,0.0,0.0,0.0,0.0,0.0,0.0,0.0,0.0,0.0,0.0,0.0,0.0,0.0,0.0,0.0,0.0,0.0,0.0,0.0,0.0,0.0,0.0,0.0,0.0,0.0,0.0,0.0,0.0,0.0,0.0,0.0,0.0,0.0,0.0,0.0,0.0,0.0,0.0,0.0,0.0,0.0,0.0,0.0,0.0,0.0,0.0,0.0,0.0,0.0,0.0,0.0,0.0,0.0,0.0,0.0,0.0,0.0,0.0,0.0,0.0,0.0,0.0,0.0,0.0,0.0,0.0,0.0,0.0,0.0,0.0,0.0,0.0,0.0,0.0,0.0,0.0,0.0,0.0,0.0,0.0,0.0,0.0,0.0,0.0,0.0,0.0,0.0,0.0,0.0,0.0,0.0,0.0,0.0,0.0,0.0,0.0,0.0,0.0,0.0,0.0,0.0,0.0,0.0,0.0,0.0,0.0,0.0,0.0,0.0,0.0,0.0,0.0,0.0,0.0,0.0,0.0,0.0,0.0,0.0,0.0,0.0,0.0,0.0,0.0,0.0,0.0,0.0,0.0,0.0,0.0,0.0,0.0,0.0,0.0,0.0,0.0,0.0,0.0,0.0,0.0,0.0,0.0,0.0,0.0,0.0,0.0,0.0,0.0,0.0,0.0,0.0,0.0,0.0,0.0,0.0,0.0,0.0,0.0,0.0,0.0,0.0,0.0,0.0,0.0,0.0,0.0,0.0,0.0,0.0,0.0,0.0,0.0,0.0,0.0,0.0,0.0,0.0,0.0,0.0,0.0,0.0,0.0,0.0,0.0,0.0,0.0,0.0,0.0,0.0,0.0,0.0,0.0,0.0,0.0,0.0,0.0,0.0,0.0,0.0,0.0,0.0,0.0,0.0,0.0,0.0,0.0,0.0,0.0,0.0,0.0,0.0,0.0,0.0,0.0,0.0,0.0,0.0,0.0,0.0,0.0,0.0,0.0,0.0,0.0,0.0,0.0,0.0,0.0,0.0,0.0,0.0,0.0,0.0,0.0,0.0,0.0,0.0,0.0,0.0,0.0,0.0,0.0,0.0,0.0,0.0,0.0,0.0,0.0,0.0,0.0,0.0,0.0,0.0,0.0,0.0,0.0,0.0,0.0,0.0,0.0,0.0,0.0,0.0,0.0,0.0,0.0,0.0,0.0,0.0,0.0,0.0,0.0,0.0,0.0,0.0,0.0,0.0,0.0,0.0,0.0,0.0,0.0,0.0,0.0,0.0,0.0,0.0,0.0,0.0,0.0,0.0,0.0,0.0,0.0,0.0,0.0,0.0,0.0,0.0,0.0,0.0,0.0,0.0,0.0,0.0,0.0,0.0,0.0,0.0,0.0,0.0,0.0,0.0,0.0,0.0,0.0,0.0,0.0,0.0,0.0,0.0,0.0,0.0,0.0,0.0,0.0,0.0,0.0,0.0,0.0,0.0,0.0,0.0,0.0,0.0,0.0,0.0,0.0,0.0,0.0,0.0,0.0,0.0,0.0,0.0,0.0,0.0,0.0,0.0,0.0,0.0,0.0,0.0,0.0,0.0,0.0,0.0,0.0,0.0,0.0,0.0,0.0,0.0,0.0,0.0,0.0,0.0,0.0,0.0,0.0,0.0,0.0,0.0,0.0,0.0,0.0,0.0,0.0,0.0,0.0,0.0,0.0,0.0,0.0,0.0,0.0,0.0,0.0,0.0,0.0,0.0,0.0,0.0,0.0,0.0,0.0,0.0,0.0,0.0,0.0,0.0,0.0,0.0,0.0,0.0,0.0,0.0,0.0,0.0,0.0,0.0,0.0,0.0,0.0,0.0,0.0,0.0,0.0,0.0,0.0,0.0,0.0,0.0,0.0,0.0,0.0,0.0,0.0,0.0,2.7804,0.0,0.0,0.0,0.0,0.0,0.0,0.0,0.0,0.0,0.0,0.0,0.0,0.0,0.0,0.0,0.0,0.0,0.0,0.0,0.0,0.0,0.0,0.0,0.0,0.0,0.0,0.0,0.0,0.0,0.0,0.0,0.0,0.0,0.0,0.0,0.0,0.0,0.0,0.0,0.0,0.0,0.0,0.0,0.0,0.0,0.0,0.0,0.0,0.0,0.0,0.0,0.0,0.0,0.0,0.0,0.0,0.0,0.0,0.0,0.0,0.0,0.0,0.0,0.0,0.0,0.0,0.0,0.0,0.0,0.0,0.0,0.0,0.0,0.0,0.0,0.0,0.0,0.0,0.0,0.0,0.0,0.0,0.0,0.0,0.0,0.0,0.0,0.0,0.0,0.0,0.0,0.0,0.0,0.0,0.0,0.0,0.0,0.0,0.0,0.0,0.0,0.0,0.0,0.0,0.0,0.0,0.0,0.0,0.0,0.0,2.7301,2.7219,2.7179,2.7301,2.751,0.0,0.0,0.0,0.0,0.0,0.0,0.0,0.0,0.0,0.0,0.0,0.0,0.0,0.0,0.0,0.0,0.0,0.0,0.0,0.0,0.0,0.0,0.0,0.0,0.0,0.0,0.0,0.0,0.0,0.0,0.0,0.0,0.0,0.0,0.0,0.0,0.0,0.0,0.0,0.0,0.0,0.0,0.0,0.0,0.0,0.0,0.0,0.0,0.0,0.0,0.0,0.0,0.0,0.0,0.0,0.0,0.0,0.0,0.0,0.0,0.0,0.0,0.0,0.0,0.0,0.0,0.0,0.0,0.0,0.0,0.0,0.0,0.0,0.0,0.0,0.0,0.0,0.0,0.0,0.0,0.0,0.0,0.0,0.0,0.0,0.0,0.0,0.0,0.0,0.0,0.0,0.0,0.0,0.0,0.0,0.0,0.0,0.0,0.0,0.0,0.0,0.0,0.0,0.0,0.0,0.0,0.0,0.0,0.0,0.0,0.0,0.0,2.655,2.6674,2.704,0.0,0.0,0.0,0.0,0.0,0.0,0.0,0.0,0.0,0.0,0.0,0.0,0.0,0.0,0.0,0.0,0.0,0.0,0.0,0.0,0.0,0.0,0.0,0.0,0.0,0.0,0.0,0.0,0.0,0.0,0.0,0.0,0.0,0.0,0.0,0.0,0.0,0.0,0.0,0.0,0.0,0.0,0.0,0.0,0.0,0.0,0.0,0.0,0.0,0.0,0.0,0.0,0.0,0.0,0.0,0.0,0.0,0.0,0.0,0.0,0.0,0.0,0.0,0.0,0.0,0.0,0.0,0.0,0.0,0.0,0.0,0.0,0.0,0.0,0.0,0.0,0.0,0.0,0.0,0.0,0.0,0.0,0.0,0.0,0.0,0.0,0.0,0.0,0.0,0.0,0.0,0.0,0.0,0.0,0.0,0.0,0.0,0.0,0.0,0.0,0.0,0.0,0.0,0.0,0.0,0.0,0.0,0.0,0.0,0.0,2.6362,2.6603,2.6373,0.0,2.6577,0.0,0.0,0.0,0.0,0.0,0.0,0.0,0.0,0.0,0.0,0.0,0.0,0.0,0.0,0.0,0.0,0.0,0.0,0.0,0.0,0.0,0.0,0.0,0.0,0.0,0.0,0.0,0.0,0.0,0.0,0.0,0.0,0.0,0.0,0.0,0.0,0.0,0.0,0.0,0.0,0.0,0.0,0.0,0.0,0.0,0.0,0.0,0.0,0.0,0.0,0.0,0.0,0.0,0.0,0.0,0.0,0.0,0.0,0.0,0.0,0.0,0.0,0.0,0.0,0.0,0.0,0.0,0.0,0.0,0.0,0.0,0.0,0.0,0.0,0.0,0.0,0.0,0.0,0.0,0.0,0.0,0.0,0.0,0.0,0.0,0.0,0.0,0.0,0.0,0.0,0.0,0.0,0.0,0.0,0.0,0.0,0.0,0.0,0.0,0.0,0.0,0.0,0.0,0.0,0.0,0.0,0.0,0.0,0.0,0.0,2.5653,2.579,2.5779,2.5915,0.0,0.0,0.0,0.0,0.0,0.0,0.0,0.0,0.0,0.0,0.0,0.0,0.0,0.0,0.0,0.0,0.0,0.0,0.0,0.0,0.0,0.0,0.0,0.0,0.0,0.0,0.0,0.0,0.0,0.0,0.0,0.0,0.0,0.0,0.0,0.0,0.0,0.0,0.0,0.0,0.0,0.0,0.0,0.0,0.0,0.0,0.0,0.0,0.0,0.0,0.0,0.0,0.0,0.0,0.0,0.0,0.0,0.0,0.0,0.0,0.0,0.0,0.0,0.0,0.0,0.0,0.0,0.0,0.0,0.0,0.0,0.0,0.0,0.0,0.0,0.0,0.0,0.0,0.0,0.0,0.0,0.0,0.0,0.0,0.0,0.0,0.0,0.0,0.0,0.0,0.0,0.0,0.0,0.0,0.0,0.0,0.0,0.0,0.0,0.0,0.0,0.0,0.0,0.0,0.0,0.0,0.0,0.0,0.0,0.0,2.5158,2.5115,2.5115,2.5327,2.5496,2.5717,0.0,0.0,0.0,0.0,0.0,0.0,0.0,0.0,0.0,0.0,0.0,0.0,0.0,0.0,0.0,0.0,0.0,0.0,0.0,0.0,0.0,0.0,0.0,0.0,0.0,0.0,0.0,0.0,0.0,0.0,0.0,0.0,0.0,0.0,0.0,0.0,0.0,0.0,0.0,0.0,0.0,0.0,0.0,0.0,0.0,0.0,0.0,0.0,0.0,0.0,0.0,0.0,0.0,0.0,0.0,0.0,0.0,0.0,0.0,0.0,0.0,0.0,0.0,0.0,0.0,0.0,0.0,0.0,0.0,0.0,0.0,0.0,0.0,0.0,0.0,0.0,0.0,0.0,0.0,0.0,0.0,0.0,0.0,0.0,0.0,0.0,0.0,0.0,0.0,0.0,0.0,0.0,0.0,0.0,0.0,0.0,0.0,0.0,0.0,0.0,0.0,0.0,0.0,0.0,0.0,0.0,0.0,0.0,2.52,2.5041,2.4914,2.4914,2.5115,2.5242,0.0,0.0,0.0,0.0,0.0,0.0,0.0,0.0,0.0,0.0,0.0,0.0,0.0,0.0,0.0,0.0,0.0,0.0,0.0,0.0,0.0,0.0,0.0,0.0,0.0,0.0,0.0,0.0,0.0,0.0,0.0,0.0,0.0,0.0,0.0,0.0,0.0,0.0,0.0,0.0,0.0,0.0,0.0,0.0,0.0,0.0,0.0,0.0,0.0,0.0,0.0,0.0,0.0,0.0,0.0,0.0,0.0,0.0,0.0,0.0,0.0,0.0,0.0,0.0,0.0,0.0,0.0,0.0,0.0,0.0,0.0,0.0,0.0,0.0,0.0,0.0,0.0,0.0,0.0,0.0,0.0,0.0,0.0,0.0,0.0,0.0,0.0,0.0,0.0,0.0,0.0,0.0,0.0,0.0,0.0,0.0,0.0,0.0,0.0,0.0,0.0,0.0,0.0,0.0,0.0,0.0,0.0,0.0,0.0,2.5192,2.542,2.5396,2.5116,2.5159,2.5143,0.0,0.0,0.0,0.0,0.0,0.0,0.0,0.0,0.0,0.0,0.0,0.0,0.0,0.0,0.0,0.0,0.0,0.0,0.0,0.0,0.0,0.0,0.0,0.0,0.0,0.0,0.0,0.0,0.0,0.0,0.0,0.0,0.0,0.0,0.0,0.0,0.0,0.0,0.0,0.0,0.0,0.0,0.0,0.0,0.0,0.0,0.0,0.0,0.0,0.0,0.0,0.0,0.0,0.0,0.0,0.0,0.0,0.0,0.0,0.0,0.0,0.0,0.0,0.0,0.0,0.0,0.0,0.0,0.0,0.0,0.0,0.0,0.0,0.0,0.0,0.0,0.0,0.0,0.0,0.0,0.0,0.0,0.0,0.0,0.0,0.0,0.0,0.0,0.0,0.0,0.0,0.0,0.0,0.0,0.0,0.0,0.0,0.0,0.0,0.0,0.0,0.0,0.0,0.0,0.0,0.0,0.0,0.0,0.0,2.5163,0.0,2.5505,2.5293,2.5173,2.5034,0.0,0.0,0.0,0.0,0.0,0.0,0.0,0.0,0.0,0.0,0.0,0.0,0.0,0.0,0.0,0.0,0.0,0.0,0.0,0.0,0.0,0.0,0.0,0.0,0.0,0.0,0.0,0.0,0.0,0.0,0.0,0.0,0.0,0.0,0.0,0.0,0.0,0.0,0.0,0.0,0.0,0.0,0.0,0.0,0.0,0.0,0.0,0.0,0.0,0.0,0.0,0.0,0.0,0.0,0.0,0.0,0.0,0.0,0.0,0.0,0.0,0.0,0.0,0.0,0.0,0.0,0.0,0.0,0.0,0.0,0.0,0.0,0.0,0.0,0.0,0.0,0.0,0.0,0.0,0.0,0.0,0.0,0.0,0.0,0.0,0.0,0.0,0.0,0.0,0.0,0.0,0.0,0.0,0.0,0.0,0.0,0.0,0.0,0.0,0.0,0.0,0.0,0.0,0.0,0.0,0.0,0.0,0.0,2.4711,2.5113,2.5163,2.533,2.5498,2.5111,2.4945,0.0,0.0,0.0,0.0,0.0,0.0,0.0,0.0,0.0,0.0,0.0,0.0,0.0,0.0,0.0,0.0,0.0,0.0,0.0,0.0,0.0,0.0,0.0,0.0,0.0,0.0,0.0,0.0,0.0,0.0,0.0,0.0,0.0,0.0,0.0,0.0,0.0,0.0,0.0,0.0,0.0,0.0,0.0,0.0,0.0,0.0,0.0,0.0,0.0,0.0,0.0,0.0,0.0,0.0,0.0,0.0,0.0,0.0,0.0,0.0,0.0,0.0,0.0,0.0,0.0,0.0,0.0,0.0,0.0,0.0,0.0,0.0,0.0,0.0,0.0,0.0,0.0,0.0,0.0,0.0,0.0,0.0,0.0,0.0,0.0,0.0,0.0,0.0,0.0,0.0,0.0,0.0,0.0,0.0,0.0,0.0,0.0,0.0,0.0,0.0,0.0,0.0,0.0,0.0,0.0,0.0,0.0,0.0,0.0,2.6026,2.6328,2.6386,2.6189,2.6178,2.5763,0.0,0.0,0.0,0.0,0.0,0.0,0.0,0.0,0.0,0.0,0.0,0.0,0.0,0.0,0.0,0.0,0.0,0.0,0.0,0.0,0.0,0.0,0.0,0.0,0.0,0.0,0.0,0.0,0.0,0.0,0.0,0.0,0.0,0.0,0.0,0.0,0.0,0.0,0.0,0.0,0.0,0.0,0.0,0.0,0.0,0.0,0.0,0.0,0.0,0.0,0.0,0.0,0.0,0.0,0.0,0.0,0.0,0.0,0.0,0.0,0.0,0.0,0.0,0.0,0.0,0.0,0.0,0.0,0.0,0.0,0.0,0.0,0.0,0.0,0.0,0.0,0.0,0.0,0.0,0.0,0.0,0.0,0.0,0.0,0.0,0.0,0.0,0.0,0.0,0.0,0.0,0.0,0.0,0.0,0.0,0.0,0.0,0.0,0.0,0.0,0.0,0.0,0.0,0.0,0.0,0.0,0.0,0.0,0.0,2.6933,2.6993,2.6963,2.6842,2.6609,2.6246,2.5554,0.0,0.0,0.0,0.0,0.0,0.0,0.0,0.0,0.0,0.0,0.0,0.0,0.0,0.0,0.0,0.0,0.0,0.0,0.0,0.0,0.0,0.0,0.0,0.0,0.0,0.0,0.0,0.0,0.0,0.0,0.0,0.0,0.0,0.0,0.0,0.0,0.0,0.0,0.0,0.0,0.0,0.0,0.0,0.0,0.0,0.0,0.0,0.0,0.0,0.0,0.0,0.0,0.0,0.0,0.0,0.0,0.0,0.0,0.0,0.0,0.0,0.0,0.0,0.0,0.0,0.0,0.0,0.0,0.0,0.0,0.0,0.0,0.0,0.0,0.0,0.0,0.0,0.0,0.0,0.0,0.0,0.0,0.0,0.0,0.0,0.0,0.0,0.0,0.0,0.0,0.0,0.0,0.0,0.0,0.0,0.0,0.0,0.0,0.0,0.0,0.0,0.0,0.0,0.0,0.0,0.0,0.0,0.0,2.7708,2.7285,2.7172,2.7368,2.6646,2.6422,0.0,0.0,0.0,0.0,0.0,0.0,0.0,0.0,0.0,0.0,0.0,0.0,0.0,0.0,0.0,0.0,0.0,0.0,0.0,0.0,0.0,0.0,0.0,0.0,0.0,0.0,0.0,0.0,0.0,0.0,0.0,0.0,0.0,0.0,0.0,0.0,0.0,0.0,0.0,0.0,0.0,0.0,0.0,0.0,0.0,0.0,0.0,0.0,0.0,0.0,0.0,0.0,0.0,0.0,0.0,0.0,0.0,0.0,0.0,0.0,0.0,0.0,0.0,0.0,0.0,0.0,0.0,0.0,0.0,0.0,0.0,0.0,0.0,0.0,0.0,0.0,0.0,0.0,0.0,0.0,0.0,0.0,0.0,0.0,0.0,0.0,0.0,0.0,0.0,0.0,0.0,0.0,0.0,0.0,0.0,0.0,0.0,0.0,0.0,0.0,0.0,0.0,0.0,0.0,0.0,0.0,0.0,0.0,0.0,2.7699,2.7861,2.7865,2.7656,2.7523,2.7192,0.0,0.0,0.0,0.0,0.0,0.0,0.0,0.0,0.0,0.0,0.0,0.0,0.0,0.0,0.0,0.0,0.0,0.0,0.0,0.0,0.0,0.0,0.0,0.0,0.0,0.0,0.0,0.0,0.0,0.0,0.0,0.0,0.0,0.0,0.0,0.0,0.0,0.0,0.0,0.0,0.0,0.0,0.0,0.0,0.0,0.0,0.0,0.0,0.0,0.0,0.0,0.0,0.0,0.0,0.0,0.0,0.0,0.0,0.0,0.0,0.0,0.0,0.0,0.0,0.0,0.0,0.0,0.0,0.0,0.0,0.0,0.0,0.0,0.0,0.0,0.0,0.0,0.0,0.0,0.0,0.0,0.0,0.0,0.0,0.0,0.0,0.0,0.0,0.0,0.0,0.0,0.0,0.0,0.0,0.0,0.0,0.0,0.0,0.0,0.0,0.0,0.0,0.0,0.0,0.0,0.0,0.0,0.0,2.749,2.792,2.8174,2.8184,2.7992,2.7911,2.7586,0.0,0.0,0.0,0.0,0.0,0.0,0.0,0.0,0.0,0.0,0.0,0.0,0.0,0.0,0.0,0.0,0.0,0.0,0.0,0.0,0.0,0.0,0.0,0.0,0.0,0.0,0.0,0.0,0.0,0.0,0.0,0.0,0.0,0.0,0.0,0.0,0.0,0.0,0.0,0.0,0.0,0.0,0.0,0.0,0.0,0.0,0.0,0.0,0.0,0.0,0.0,0.0,0.0,0.0,0.0,0.0,0.0,0.0,0.0,0.0,0.0,0.0,0.0,0.0,0.0,0.0,0.0,0.0,0.0,0.0,0.0,0.0,0.0,0.0,0.0,0.0,0.0,0.0,0.0,0.0,0.0,0.0,0.0,0.0,0.0,0.0,0.0,0.0,0.0,0.0,0.0,0.0,0.0,0.0,0.0,0.0,0.0,0.0,0.0,0.0,0.0,0.0,0.0,0.0,0.0,0.0,0.0,0.0,2.7871,2.8281,2.8301,2.8291,2.8281,2.793,2.7656,0.0,0.0,0.0,0.0,0.0,0.0,0.0,0.0,0.0,0.0,0.0,0.0,0.0,0.0,0.0,0.0,0.0,0.0,0.0,0.0,0.0,0.0,0.0,0.0,0.0,0.0,0.0,0.0,0.0,0.0,0.0,0.0,0.0,0.0,0.0,0.0,0.0,0.0,0.0,0.0,0.0,0.0,0.0,0.0,0.0,0.0,0.0,0.0,0.0,0.0,0.0,0.0,0.0,0.0,0.0,0.0,0.0,0.0,0.0,0.0,0.0,0.0,0.0,0.0,0.0,0.0,0.0,0.0,0.0,0.0,0.0,0.0,0.0,0.0,0.0,0.0,0.0,0.0,0.0,0.0,0.0,0.0,0.0,0.0,0.0,0.0,0.0,0.0,0.0,0.0,0.0,0.0,0.0,0.0,0.0,0.0,0.0,0.0,0.0,0.0,0.0,0.0,0.0,0.0,0.0,0.0,0.0,0.0,2.7924,2.8281,2.8301,2.8301,2.8301,2.8203,2.795,0.0,0.0,0.0,0.0,0.0,0.0,0.0,0.0,0.0,0.0,0.0,0.0,0.0,0.0,0.0,0.0,0.0,0.0,0.0,0.0,0.0,0.0,0.0,0.0,0.0,0.0,0.0,0.0,0.0,0.0,0.0,0.0,0.0,0.0,0.0,0.0,0.0,0.0,0.0,0.0,0.0,0.0,0.0,0.0,0.0,0.0,0.0,0.0,3.0611,0.0,0.0,0.0,0.0,0.0,0.0,0.0,0.0,0.0,0.0,0.0,0.0,0.0,0.0,0.0,0.0,0.0,0.0,0.0,0.0,0.0,0.0,0.0,0.0,0.0,0.0,0.0,0.0,0.0,0.0,0.0,0.0,0.0,0.0,0.0,0.0,0.0,0.0,0.0,0.0,0.0,0.0,0.0,0.0,0.0,0.0,0.0,0.0,0.0,0.0,0.0,0.0,0.0,0.0,0.0,0.0,0.0,0.0,0.0,2.8333,2.8564,2.8584,2.8594,2.8584,2.8584,2.8237,0.0,0.0,0.0,0.0,0.0,0.0,0.0,0.0,0.0,0.0,0.0,0.0,0.0,0.0,0.0,0.0,0.0,0.0,0.0,0.0,0.0,0.0,0.0,0.0,0.0,0.0,0.0,0.0,0.0,0.0,0.0,0.0,0.0,0.0,0.0,0.0,0.0,0.0,0.0,0.0,0.0,0.0,0.0,0.0,0.0,0.0,0.0,0.0,0.0,0.0,0.0,0.0,0.0,0.0,0.0,0.0,0.0,0.0,0.0,0.0,0.0,0.0,0.0,0.0,0.0,0.0,0.0,0.0,0.0,0.0,0.0,0.0,0.0,0.0,0.0,0.0,0.0,0.0,0.0,0.0,0.0,0.0,0.0,0.0,0.0,0.0,0.0,0.0,0.0,0.0,0.0,0.0,0.0,0.0,0.0,0.0,0.0,0.0,0.0,0.0,0.0,0.0,0.0,0.0,0.0,0.0,0.0,2.8298,2.8941,2.9015,2.9094,2.9094,2.898,2.8971,2.8609,2.7836,0.0,0.0,0.0,0.0,0.0,0.0,0.0,0.0,0.0,0.0,0.0,0.0,0.0,0.0,0.0,0.0,0.0,0.0,0.0,0.0,0.0,0.0,0.0,0.0,0.0,0.0,0.0,0.0,0.0,0.0,0.0,0.0,0.0,0.0,0.0,0.0,0.0,0.0,3.1037,3.1118,0.0,0.0,0.0,0.0,0.0,0.0,0.0,0.0,3.3646,0.0,0.0,0.0,0.0,0.0,0.0,0.0,0.0,0.0,0.0,0.0,0.0,0.0,0.0,0.0,0.0,0.0,0.0,0.0,0.0,0.0,0.0,0.0,0.0,0.0,0.0,0.0,0.0,0.0,0.0,0.0,0.0,0.0,0.0,0.0,0.0,0.0,0.0,0.0,0.0,0.0,0.0,0.0,0.0,0.0,0.0,0.0,0.0,0.0,0.0,0.0,0.0,0.0,0.0,0.0,0.0,2.7662,2.8946,2.9617,2.9643,3.0058,2.9959,2.9372,2.9298,2.8962,2.8247,0.0,0.0,0.0,0.0,0.0,0.0,0.0,0.0,0.0,0.0,0.0,0.0,0.0,0.0,0.0,0.0,0.0,0.0,0.0,0.0,0.0,0.0,0.0,0.0,0.0,0.0,0.0,0.0,0.0,0.0,0.0,0.0,0.0,0.0,0.0,0.0,0.0,0.0,0.0,3.2767,3.3357,0.0,0.0,0.0,0.0,0.0,0.0,0.0,0.0,3.3847,0.0,0.0,0.0,0.0,0.0,0.0,0.0,0.0,0.0,0.0,0.0,0.0,0.0,0.0,0.0,0.0,0.0,0.0,0.0,0.0,0.0,0.0,0.0,0.0,0.0,0.0,0.0,0.0,0.0,0.0,0.0,0.0,0.0,0.0,0.0,0.0,0.0,0.0,0.0,0.0,0.0,0.0,0.0,0.0,0.0,0.0,0.0,0.0,0.0,0.0,0.0,0.0,0.0,0.0,0.0,2.8186,2.9391,3.0069,3.0148,3.058,3.0535,2.9993,2.9973,2.9499,0.0,0.0,0.0,0.0,0.0,0.0,0.0,0.0,0.0,0.0,0.0,0.0,0.0,0.0,0.0,0.0,0.0,0.0,0.0,0.0,0.0,0.0,0.0,0.0,0.0,0.0,0.0,0.0,0.0,0.0,0.0,0.0,0.0,0.0,0.0,0.0,0.0,0.0,0.0,0.0,3.3382,3.3997,3.4286,0.0,0.0,0.0,0.0,0.0,0.0,3.4693,3.4595,0.0,0.0,0.0,0.0,0.0,0.0,0.0,0.0,0.0,0.0,0.0,0.0,0.0,0.0,0.0,0.0,0.0,0.0,0.0,0.0,0.0,0.0,0.0,0.0,0.0,0.0,0.0,0.0,0.0,0.0,0.0,0.0,0.0,0.0,0.0,0.0,0.0,0.0,0.0,0.0,0.0,0.0,0.0,0.0,0.0,0.0,0.0,0.0,0.0,0.0,0.0,0.0,0.0,0.0,0.0,2.8859,3.0009,3.0696,3.0856,3.132,3.1324,3.0832,3.0741,3.0089,0.0,0.0,0.0,0.0,0.0,0.0,0.0,0.0,0.0,0.0,0.0,0.0,0.0,0.0,0.0,0.0,0.0,0.0,0.0,0.0,0.0,0.0,0.0,0.0,0.0,0.0,0.0,0.0,0.0,0.0,0.0,0.0,0.0,0.0,0.0,0.0,0.0,0.0,0.0,0.0,0.0,3.4261,3.4756,3.4989,0.0,0.0,0.0,0.0,3.5115,3.5282,0.0,0.0,0.0,0.0,0.0,0.0,0.0,0.0,0.0,0.0,0.0,0.0,0.0,0.0,0.0,0.0,0.0,0.0,0.0,0.0,0.0,0.0,0.0,0.0,0.0,0.0,0.0,0.0,0.0,0.0,0.0,0.0,0.0,0.0,0.0,0.0,0.0,0.0,0.0,0.0,0.0,0.0,0.0,0.0,0.0,0.0,0.0,0.0,0.0,0.0,0.0,0.0,0.0,0.0,0.0,0.0,2.9944,3.1286,3.1984,3.2025,3.286,3.2868,3.1961,3.1492,3.0908,0.0,0.0,0.0,0.0,0.0,0.0,0.0,0.0,0.0,0.0,0.0,0.0,0.0,0.0,0.0,0.0,0.0,0.0,0.0,0.0,0.0,0.0,0.0,0.0,0.0,0.0,0.0,0.0,0.0,0.0,0.0,0.0,0.0,0.0,0.0,0.0,0.0,0.0,0.0,0.0,0.0,3.4781,3.5332,3.5868,3.6216,0.0,0.0,3.6292,3.6216,3.5818,0.0,0.0,0.0,0.0,0.0,0.0,0.0,0.0,0.0,0.0,0.0,0.0,0.0,0.0,0.0,0.0,0.0,0.0,0.0,0.0,0.0,0.0,0.0,0.0,0.0,0.0,0.0,0.0,0.0,0.0,0.0,0.0,0.0,0.0,0.0,0.0,0.0,0.0,0.0,0.0,0.0,0.0,0.0,0.0,0.0,0.0,0.0,0.0,0.0,0.0,0.0,0.0,0.0,0.0,0.0,3.0042,3.0891,3.1763,3.2338,3.2614,3.3274,3.3289,3.2601,3.1973,3.1322,0.0,0.0,0.0,0.0,0.0,0.0,0.0,0.0,0.0,0.0,0.0,0.0,0.0,0.0,0.0,0.0,0.0,0.0,0.0,0.0,0.0,0.0,0.0,0.0,0.0,0.0,0.0,0.0,0.0,0.0,0.0,0.0,0.0,0.0,0.0,0.0,0.0,0.0,0.0,0.0,0.0,0.0,3.5893,3.6254,0.0,0.0,0.0,3.6417,3.6417,0.0,0.0,0.0,0.0,0.0,0.0,0.0,0.0,0.0,0.0,0.0,0.0,0.0,0.0,0.0,0.0,0.0,0.0,0.0,0.0,0.0,0.0,0.0,0.0,0.0,0.0,0.0,0.0,0.0,0.0,0.0,0.0,0.0,0.0,0.0,0.0,0.0,0.0,0.0,0.0,0.0,0.0,0.0,0.0,0.0,0.0,0.0,0.0,0.0,0.0,0.0,0.0,0.0,0.0,0.0,0.0,0.0,3.1887,3.2405,3.2868,3.3353,3.3828,3.3847,3.3437,3.2639,0.0,0.0,0.0,0.0,0.0,0.0,0.0,0.0,0.0,0.0,0.0,0.0,0.0,0.0,0.0,0.0,0.0,0.0,0.0,0.0,0.0,0.0,0.0,0.0,0.0,0.0,0.0,3.1273,0.0,0.0,0.0,0.0,0.0,0.0,0.0,0.0,0.0,0.0,0.0,0.0,0.0,0.0,3.5115,3.6254,3.6417,3.6417,0.0,0.0,3.6405,3.6452,3.6581,3.6625,0.0,0.0,0.0,0.0,0.0,0.0,0.0,0.0,0.0,0.0,0.0,0.0,0.0,0.0,0.0,0.0,0.0,0.0,0.0,0.0,0.0,0.0,0.0,0.0,0.0,0.0,0.0,0.0,0.0,0.0,0.0,0.0,0.0,0.0,0.0,0.0,0.0,0.0,0.0,0.0,0.0,0.0,0.0,0.0,0.0,0.0,0.0,0.0,0.0,0.0,0.0,0.0,0.0,0.0,0.0,3.3034,3.3529,3.4019,3.4564,3.5044,3.5124,3.4869,3.3876,3.3336,0.0,0.0,0.0,0.0,0.0,0.0,0.0,0.0,0.0,0.0,0.0,0.0,0.0,0.0,0.0,0.0,0.0,0.0,0.0,0.0,0.0,0.0,0.0,0.0,0.0,0.0,0.0,0.0,0.0,0.0,0.0,0.0,0.0,0.0,0.0,0.0,0.0,0.0,0.0,0.0,0.0,3.5127,3.6254,3.6417,3.6417,0.0,0.0,3.6452,3.6662,3.6709,3.6671,3.658,0.0,0.0,0.0,0.0,0.0,0.0,0.0,0.0,0.0,0.0,0.0,0.0,0.0,0.0,0.0,0.0,0.0,0.0,0.0,0.0,0.0,0.0,0.0,0.0,0.0,0.0,0.0,0.0,0.0,0.0,0.0,0.0,0.0,0.0,0.0,0.0,0.0,0.0,0.0,0.0,0.0,0.0,0.0,0.0,0.0,0.0,0.0,0.0,0.0,0.0,0.0,0.0,0.0,3.2479,3.417,3.4147,3.4527,3.5337,3.5421,3.5412,3.5499,3.4663,3.4294,0.0,0.0,0.0,0.0,0.0,0.0,0.0,0.0,0.0,0.0,0.0,0.0,0.0,0.0,0.0,0.0,0.0,0.0,0.0,0.0,0.0,0.0,0.0,0.0,0.0,0.0,0.0,0.0,3.43,3.4424,3.3658,0.0,0.0,0.0,0.0,0.0,0.0,0.0,0.0,0.0,0.0,3.5504,3.6304,3.6417,0.0,0.0,3.6487,3.6615,3.6675,3.6968,3.7183,3.7149,3.6629,0.0,0.0,0.0,0.0,0.0,0.0,0.0,0.0,0.0,0.0,0.0,0.0,0.0,0.0,0.0,0.0,0.0,0.0,0.0,0.0,0.0,0.0,0.0,0.0,0.0,0.0,0.0,0.0,0.0,0.0,0.0,0.0,0.0,0.0,0.0,0.0,0.0,0.0,0.0,0.0,0.0,0.0,0.0,0.0,0.0,0.0,0.0,0.0,0.0,0.0,0.0,0.0,3.3658,3.5155,3.5068,3.5393,3.6177,3.5993,3.5993,3.6177,3.5546,3.5295,0.0,0.0,0.0,0.0,0.0,0.0,0.0,0.0,0.0,0.0,0.0,0.0,0.0,0.0,0.0,0.0,0.0,0.0,0.0,0.0,0.0,0.0,0.0,0.0,0.0,0.0,0.0,0.0,3.5028,3.4754,3.4363,0.0,0.0,0.0,0.0,0.0,0.0,0.0,0.0,0.0,0.0,3.5683,3.6329,3.6417,3.6417,3.6417,3.6581,3.6709,3.6815,3.7214,3.7551,3.7677,0.0,0.0,0.0,0.0,0.0,0.0,0.0,0.0,0.0,0.0,0.0,0.0,0.0,0.0,0.0,0.0,0.0,0.0,0.0,0.0,0.0,0.0,0.0,0.0,0.0,0.0,0.0,0.0,0.0,0.0,3.6626,0.0,0.0,0.0,0.0,0.0,0.0,0.0,0.0,0.0,0.0,0.0,0.0,0.0,0.0,0.0,0.0,0.0,0.0,0.0,0.0,0.0,0.0,3.5206,3.5991,3.649,3.6855,3.7066,3.7078,3.7089,3.7066,3.6608,3.6391,3.6379,0.0,0.0,0.0,0.0,0.0,0.0,0.0,0.0,0.0,0.0,0.0,0.0,0.0,0.0,0.0,0.0,0.0,0.0,0.0,0.0,0.0,0.0,0.0,0.0,0.0,0.0,3.559,3.5442,3.5398,0.0,0.0,0.0,0.0,0.0,0.0,0.0,0.0,0.0,0.0,3.5495,3.5696,3.6329,3.6417,3.6417,3.6417,3.6593,3.6815,3.7062,3.7353,3.7677,0.0,0.0,0.0,0.0,0.0,0.0,0.0,0.0,0.0,0.0,0.0,0.0,0.0,0.0,0.0,0.0,0.0,0.0,0.0,0.0,0.0,0.0,0.0,0.0,0.0,0.0,0.0,4.0124,3.9576,0.0,0.0,0.0,0.0,0.0,0.0,0.0,0.0,0.0,0.0,0.0,3.9533,3.8739,0.0,0.0,0.0,0.0,0.0,0.0,0.0,0.0,0.0,0.0,0.0,0.0,3.615,3.7584,3.7457,3.7561,3.7921,3.7773,3.7773,3.7921,3.7829,3.7553,3.7197,0.0,0.0,0.0,0.0,0.0,0.0,0.0,0.0,0.0,0.0,0.0,0.0,0.0,0.0,0.0,0.0,0.0,0.0,0.0,0.0,0.0,0.0,0.0,0.0,0.0,3.704,0.0,0.0,0.0,0.0,0.0,0.0,0.0,0.0,0.0,0.0,0.0,3.4951,3.5658,3.5936,3.6157,3.638,3.6417,3.6452,0.0,0.0,0.0,0.0,0.0,0.0,0.0,0.0,0.0,0.0,0.0,0.0,0.0,0.0,3.7986,3.7363,3.7487,3.7498,3.6959,0.0,0.0,0.0,0.0,0.0,0.0,0.0,0.0,0.0,0.0,0.0,0.0,0.0,0.0,4.2187,0.0,4.1192,0.0,0.0,0.0,0.0,0.0,0.0,0.0,0.0,4.1699,4.1675,4.1572,4.0797,4.0069,0.0,3.923,3.8434,0.0,0.0,0.0,0.0,0.0,0.0,0.0,0.0,3.7391,3.868,3.8561,3.8576,3.8828,3.8684,3.8684,3.8841,3.8841,3.8617,3.8141,3.7904,3.7288,0.0,0.0,0.0,0.0,0.0,0.0,0.0,0.0,0.0,0.0,0.0,0.0,0.0,0.0,0.0,0.0,0.0,0.0,0.0,0.0,0.0,0.0,0.0,3.805,0.0,0.0,0.0,0.0,0.0,0.0,0.0,0.0,0.0,3.4953,3.536,3.5807,3.6251,3.6506,3.664,3.664,0.0,0.0,0.0,0.0,0.0,0.0,0.0,3.8395,3.889,3.8803,3.8872,3.9253,3.931,3.9309,3.9389,0.0,0.0,3.9061,3.9145,3.91,3.8543,3.8283,3.7805,3.659,3.6279,3.5845,0.0,0.0,0.0,0.0,0.0,0.0,0.0,0.0,4.5013,4.5025,0.0,4.4078,0.0,0.0,0.0,0.0,0.0,4.3469,0.0,0.0,4.3443,4.3237,4.2958,4.2737,4.2379,4.1973,4.1886,4.1521,4.0628,3.7569,0.0,0.0,0.0,0.0,0.0,0.0,3.8983,3.9283,3.9779,3.9981,3.9736,3.9749,3.9736,3.9736,3.9736,3.9613,3.9271,3.8996,3.8479,3.7577,3.7053,0.0,0.0,0.0,0.0,0.0,0.0,0.0,0.0,0.0,0.0,0.0,0.0,0.0,0.0,0.0,0.0,0.0,0.0,0.0,0.0,3.8331,0.0,0.0,0.0,0.0,0.0,0.0,0.0,0.0,0.0,0.0,3.5613,3.6212,3.6813,3.7078,0.0,0.0,0.0,0.0,3.7108,3.7108,3.7353,3.7677,3.8122,3.8258,3.8549,3.9472,0.0,0.0,3.9788,3.9681,3.9676,3.9848,4.0567,4.0796,3.9802,3.9636,3.9541,3.9297,3.9215,3.8841,3.7887,3.7247,3.6675,4.6824,0.0,0.0,0.0,0.0,4.587,4.5962,4.5772,4.6379,4.636,4.5915,4.553,0.0,0.0,0.0,0.0,0.0,0.0,4.5511,4.5327,4.5039,4.4836,4.4559,4.3936,4.3326,4.2885,4.2885,4.2452,4.1581,4.0636,3.957,3.8439,0.0,0.0,0.0,0.0,3.9734,4.036,4.0401,4.0453,4.0542,4.0542,4.063,4.082,4.082,4.0698,4.036,4.0288,3.9817,3.8992,3.8357,0.0,0.0,0.0,0.0,0.0,0.0,0.0,0.0,0.0,0.0,0.0,0.0,0.0,0.0,0.0,0.0,0.0,0.0,0.0,4.1432,4.0775,4.0594,0.0,0.0,0.0,0.0,0.0,0.0,0.0,0.0,0.0,3.7621,3.7312,3.7387,0.0,0.0,3.7559,3.74,3.7413,3.74,3.74,3.7618,0.0,0.0,3.8769,3.9203,3.9807,4.0243,4.0546,4.0647,4.0897,4.1073,4.1155,4.1507,4.1703,4.1461,4.1169,4.0915,4.0459,4.01,3.9572,3.8721,3.796,3.722,4.789,4.7342,4.7174,4.6947,4.6698,4.7232,4.742,4.7307,4.786,4.7935,4.7599,4.7201,4.6991,4.6951,4.6776,0.0,0.0,0.0,4.6963,4.6736,4.6494,4.6294,4.6048,4.5534,4.5054,4.4617,4.4587,4.4129,4.3153,4.3048,4.2449,4.1355,0.0,0.0,4.0507,4.0386,4.066,4.1358,4.1198,4.1248,4.1385,4.1484,4.1647,4.1918,4.1918,4.175,4.1261,4.1392,4.1093,4.0305,3.9698,3.9073,0.0,0.0,0.0,0.0,0.0,0.0,0.0,0.0,0.0,0.0,0.0,3.647,3.7749,0.0,0.0,0.0,4.0534,4.1114,4.232,4.1611,0.0,0.0,0.0,0.0,0.0,0.0,0.0,3.9377,3.9577,3.9634,3.9345,3.8853,3.8505,3.84,3.8213,3.8063,3.7965,0.0,3.792,3.792,3.8135,3.8472,3.8922,3.9234,3.9587,4.017,4.0674,4.1085,4.1254,4.1521,4.1744,4.1841,4.1995,4.2092,4.2092,4.1939,4.174,4.1254,4.092,4.0373,3.9249,3.8511,3.7836,4.8841,4.9037,4.862,4.8521,4.8661,4.8702,4.8934,4.9356,4.9356,4.9477,4.963,4.9001,4.8826,4.8984,4.8769,0.0,4.7793,4.8219,4.8271,4.7988,4.7779,4.7581,4.7396,4.7381,4.7121,4.6683,4.6683,4.618,4.5233,4.4975,4.4606,4.4078,4.217,4.1207,4.1349,4.1328,4.1594,4.2115,4.2128,4.2177,4.2226,4.2484,4.2755,4.297,4.3032,4.2712,4.2154,4.2336,4.2175,4.1512,4.0968,4.0236,3.9293,0.0,0.0,0.0,0.0,0.0,0.0,0.0,0.0,0.0,0.0,0.0,0.0,0.0,0.0,0.0,4.1092,0.0,4.1064,4.1581,0.0,0.0,0.0,4.0648,3.9857,3.9759,3.9989,4.059,0.0,0.0,4.0703,4.0545,3.9968,3.8904,3.8737,3.8679,3.8679,3.8679,3.8679,3.8647,3.8832,3.9118,3.953,3.9706,3.9998,4.0588,4.0887,4.1212,4.1604,4.1744,4.1856,4.2036,4.2092,4.2092,4.2092,4.2092,4.2036,4.1771,4.1673,4.1189,3.9762,3.9108,3.8401,4.9477,4.9693,4.9741,4.9622,4.9396,4.9501,4.9741,4.9963,4.9979,5.0113,5.0324,4.9946,4.9781,4.9661,4.9597,4.9503,4.9362,4.9334,4.9194,4.8975,4.8774,4.8442,4.8091,4.8091,4.7837,4.7366,4.7381,4.7047,4.6476,4.624,4.5867,4.5358,4.4704,4.371,4.2484,4.2269,4.2266,4.24,4.24,4.2666,4.3218,4.3485,4.3737,4.4035,4.4035,4.3965,4.3798,4.3385,4.2887,4.2272,4.1672,4.1046,4.0334,3.955,0.0,0.0,0.0,0.0,0.0,0.0,0.0,0.0,0.0,3.9107,4.004,0.0,4.1934,0.0,4.315,4.3634,4.3675,4.3382,0.0,0.0,4.2573,4.2151,4.195,4.1935,4.1927,4.1939,4.1734,4.1461,4.1255,4.1015,4.0659,4.0243,3.9865,3.9587,3.9397,3.9339,3.9309,3.9203,3.9309,3.9574,3.9895,4.0358,4.0688,4.0873,4.1269,4.1563,4.1688,4.1897,4.2036,4.2092,4.2092,4.2092,4.2092,4.2092,4.2092,4.1995,4.1841,4.1445,4.056,3.9731,3.8799,5.0034,5.0379,5.0579,5.0579,5.0441,5.0363,5.0518,5.0771,5.0788,5.094,5.1092,5.0902,5.0695,5.0596,5.0502,5.0425,5.0324,5.0097,4.99,4.9701,4.9396,4.9128,4.8867,4.8785,4.8552,4.8233,4.8218,4.7964,4.7523,4.7307,4.6974,4.6594,4.6284,4.5506,4.434,4.3743,4.3451,4.3369,4.3369,4.3594,4.4101,4.4256,4.4504,4.4723,4.4815,4.4794,4.4524,4.4487,4.4063,4.3163,4.2808,4.2209,4.1311,4.0875,4.0101,0.0,0.0,0.0,0.0,0.0,0.0,0.0,0.0,0.0,0.0,0.0,4.2448,4.282,4.3378,4.3806,4.3874,4.3563,4.3356,4.3412,4.3057,4.2809,4.2714,4.2688,4.2648,4.2541,4.2418,4.2213,4.1897,4.1702,4.1479,4.1213,4.0944,4.0588,4.0142,4.0012,3.9867,3.9763,3.9851,4.0069,4.0372,4.0845,4.1198,4.1311,4.1521,4.1744,4.1841,4.2009,4.2092,4.2092,4.2092,4.2092,4.2092,4.2092,4.2092,4.2049,4.1749,4.1206,4.0478,3.9605,3.8658,5.0596,5.0972,5.1199,5.1408,5.1573,5.1237,5.1275,5.1536,5.1573,5.1668,5.1851,5.1647,5.1573,5.1536,5.1285,5.1129,5.101,5.0749,5.0525,5.0354,4.9955,4.9757,4.9717,4.9501,4.9275,4.9078,4.9078,4.8841,4.8412,4.8172,4.7961,4.7764,4.7351,4.6873,4.6373,4.5551,4.4911,4.4551,4.4537,4.4737,4.4968,4.5014,4.5152,4.5338,4.5595,4.547,4.4993,4.5519,4.5287,4.4152,4.3949,4.3353,4.216,4.2249,4.1723,0.0,4.049,0.0,0.0,0.0,0.0,0.0,0.0,0.0,0.0,4.2382,4.2495,4.3006,4.289,4.2835,4.3036,4.3036,4.3036,4.3036,4.3021,4.2955,4.2809,4.2769,4.2769,4.2729,4.2729,4.2648,4.2474,4.2433,4.2295,4.191,4.1813,4.1604,4.1071,4.0659,4.0445,4.0431,4.0487,4.0659,4.0986,4.1241,4.1507,4.166,4.1729,4.1841,4.2036,4.2092,4.2092,4.2092,4.2092,4.2092,4.2092,4.2092,4.2063,4.1947,4.141,4.0735,4.004,3.9251,3.8328,5.1183,5.1387,5.161,5.1871,5.2145,5.2073,5.1944,5.1741,5.1871,5.2,5.2164,5.2,5.1908,5.1891,5.1725,5.1684,5.1594,5.1408,5.1296,5.1237,5.0842,5.0557,5.0331,5.012,4.9821,4.9493,4.9493,4.9356,4.9113,4.8898,4.8774,4.8733,4.8412,4.8061,4.7621,0.0,0.0,0.0,4.5444,4.5671,4.5941,4.6135,4.6358,4.6565,4.68,0.0,4.6811,4.628,4.5602,4.4805,4.4118,0.0,0.0,0.0,0.0,0.0,0.0,0.0,0.0,0.0,0.0,0.0,4.1788,4.1959,4.2208,4.2728,4.3115,4.3235,4.321,4.321,4.325,4.3235,4.325,4.325,4.325,4.325,4.317,4.317,4.313,4.2955,4.2955,4.2875,4.2688,4.2648,4.2607,4.2526,4.2526,4.247,4.2322,4.1619,4.1213,4.1213,4.117,4.1227,4.1297,4.1507,4.166,4.1702,4.1897,4.2036,4.2092,4.2092,4.2092,4.2092,4.2092,4.2092,4.2092,4.2092,4.1903,4.1395,4.0757,4.0249,4.0079,3.9415,3.8562,5.1668,0.0,5.2,5.2252,0.0,5.259,5.2501,5.234,5.2395,5.2501,5.2589,5.2501,5.2447,5.243,5.2376,5.2233,5.2053,5.1944,5.1798,5.1647,5.135,5.1124,5.0978,5.0695,5.0441,5.0246,5.0129,5.005,4.9931,4.9629,4.9452,4.9452,4.9113,4.8769,4.8453,4.8297,4.7636,4.6403,4.6491,4.6624,4.6756,4.6858,4.699,4.7106,0.0,0.0,0.0,0.0,0.0,0.0,0.0,0.0,0.0,0.0,0.0,4.2836,4.2575,4.2246,4.1946,4.2278,4.2573,4.268,4.3098,4.324,4.3046,4.344,4.366,4.366,4.366,4.366,4.366,4.366,4.366,4.366,4.3542,4.3518,4.3463,4.3384,4.325,4.3155,4.317,4.3115,4.301,4.3025,4.297,4.289,4.2835,4.2809,4.2703,4.2254,4.1856,4.1702,4.1702,4.1717,4.1675,4.1814,4.1897,4.1939,4.1995,4.2092,4.2092,4.2092,4.2092,4.2092,4.2092,4.2092,4.2063,4.1831,4.1497,4.1105,4.0321,3.9697,3.9639,3.9006,3.8294,5.2073,5.2343,5.2395,5.2607,5.2938,5.2938,5.2972,5.3007,0.0,0.0,0.0,5.2972,5.2938,5.2955,5.2903,5.2712,5.2414,5.2378,5.2252,5.1924,5.1741,5.1647,5.1573,5.1237,5.1048,5.0972,5.0858,5.0689,5.0628,5.0246,5.0034,4.9995,4.9677,4.9412,4.9144,4.8924,4.8412,4.7709,4.7538,4.7553,4.751,4.7611,4.7611,4.7596,4.7689,4.7713,4.7713,4.7258,4.6671,4.6026,4.5437,4.4789,4.415,4.4089,4.4104,4.4089,4.4089,4.3845,4.3328,4.3838,4.3937,4.3426,4.3915,4.4181,4.4026,4.4003,4.4003,4.4003,4.4003,4.3988,4.4003,4.4003,4.4003,4.4003,4.3832,4.3769,4.3729,4.3596,4.3423,4.3384,4.3384,4.3344,4.3305,4.3305,4.3235,4.3115,4.3076,4.2996,4.2809,4.2581,4.2336,4.2184,4.2102,4.2117,4.2131,4.2187,4.2201,4.2201,4.2201,4.2216,4.2216,4.2201,4.2201,4.2257,4.2201,4.2143,4.2027,4.1564,4.1098,4.0826,3.9983,3.916,3.8962,3.8457,3.7973,5.2359,5.2553,5.2764,5.2938,5.3144,5.3144,5.3264,5.3382,5.3246,5.323,5.3382,5.323,5.3161,5.3144,5.2972,5.2852,5.2799,5.2799,5.2694,0.0,5.2288,5.2125,5.1977,5.1794,5.1573,5.1424,5.1387,5.1199,5.0858,5.0781,5.0666,5.055,5.0457,5.0223,4.9812,4.9557,4.9316,4.9031,4.862,4.8412,4.8412,4.865,4.8764,4.8718,4.8382,4.8193,4.8177,4.7382,4.6607,4.5951,4.5673,4.5202,4.4557,4.4496,4.4496,4.4496,4.4496,4.4465,4.4373,4.4639,4.4821,4.4893,4.4971,4.4754,4.408,4.4003,4.4003,4.4003,4.4026,4.4003,4.4003,4.4026,4.4026,4.4026,4.3988,4.3949,4.3949,4.391,4.3817,4.3636,4.3636,4.3557,4.3384,4.3344,4.329,4.3235,4.325,4.321,4.313,4.289,4.2648,4.2607,4.2607,4.2622,4.2566,4.2607,4.2581,4.2607,4.2581,4.2581,4.2581,4.2581,4.2581,4.2581,4.2581,4.2375,4.188,4.1565,4.0944,4.013,3.9445,3.9024,3.8559,3.8289,3.8104,5.2747,5.2938,5.3007,5.3195,5.3382,5.3382,5.3433,5.3501,5.3399,5.3433,5.3501,5.3382,5.3348,5.3348,5.328,5.3161,5.3093,5.3076,5.2938,5.2764,5.2677,5.2589,5.2499,5.2217,5.2053,5.1944,5.1741,5.1557,5.1387,5.1275,5.1162,5.1086,5.0874,5.0589,5.0285,5.0168,5.0073,4.9971,4.9316,4.899,4.8975,4.8746,4.8615,4.8584,4.8034,4.7715,4.7715,4.7045,4.653,4.624,4.5865,4.5575,4.5262,4.5247,4.5247,4.5247,4.5247,4.5231,4.5247,4.5321,4.5431,4.552,4.552,4.5373,4.5024,4.4776,4.4641,4.4641,4.4641,4.4603,4.4511,4.4511,4.4473,4.4343,4.4205,4.4166,4.4143,4.405,4.3949,4.3886,4.3871,4.3793,4.3557,4.3503,4.3463,4.3344,4.3305,4.3305,4.3305,4.313,4.301,4.301,4.293,4.2875,4.2835,4.2769,4.2688,4.2688,4.2688,4.2688,4.2688,4.2688,4.2688,4.2688,4.2688,4.2438,4.1848,4.1342,4.07,3.9927,3.9272,3.886,3.8597,3.8427,3.8254,5.3041,5.3179,5.3264,5.3348,5.3501,5.3518,5.3518,5.3518,5.3518,5.3518,5.3518,5.3518,5.3518,5.3518,5.3518,5.3416,5.3298,5.3264,5.3161,5.2972,5.2972,5.2938,5.2868,5.2572,5.2414,5.2378,5.2161,5.1997,5.1908,5.1725,5.1647,5.1536,5.1237,5.101,5.082,5.082,5.0701,5.0464,4.9796,4.9441,4.9346,4.8679,4.8318,4.8286,4.7628,4.7267,4.722,4.6743,4.6439,4.646,4.6154,4.5977,4.5961,4.6012,4.6048,4.6048,4.6048,4.6048,4.6048,4.6048,4.6048,4.6048,4.6048,4.6032,4.6012,4.5724,4.5426,4.5331,4.5241,4.5167,4.5002,4.4927,4.4836,4.4701,4.4473,4.4343,4.4358,4.4205,4.4104,4.405,4.4065,4.3988,4.3832,4.3769,4.3675,4.3463,4.3384,4.3369,4.3329,4.3305,4.3305,4.329,4.3155,4.3076,4.3076,4.297,4.285,4.285,4.285,4.285,4.285,4.285,4.285,4.2835,4.2702,4.2372,4.1755,4.108,4.0391,3.9712,3.9165,3.8826,3.876,3.8649,3.8478,5.3179,5.3213,5.3382,5.3467,5.3518,5.3518,5.3518,5.3518,5.3518,5.3518,5.3518,5.3518,5.3518,5.3518,5.3518,5.3467,5.3467,5.3467,5.3382,5.3195,5.3179,5.3076,5.2938,5.2868,5.2834,5.2834,5.2764,5.2572,5.2288,5.2252,5.2089,5.1815,5.1741,5.1594,5.1408,5.1408,5.0971,5.0191,5.0084,4.9877,4.9451,4.8759,4.8408,4.8408,4.7722,4.7392,4.7324,4.6706,4.6323,4.6323,4.6471,4.6528,4.6563,4.6703,4.6789,4.6772,4.6772,4.6772,4.6772,4.6823,4.6772,4.6807,4.6772,4.6772,4.6789,4.6598,4.6175,4.5687,4.552,4.541,4.5167,4.5039,4.4911,4.4874,4.4701,4.4572,4.4572,4.4572,4.4458,4.4281,4.4281,4.4205,4.4011,4.3949,4.3871,4.3675,4.3636,4.3596,4.3423,4.3384,4.3344,4.3329,4.329,4.325,4.325,4.3265,4.317,4.321,4.321,4.321,4.317,4.317,4.321,4.3086,4.2787,4.2249,4.1539,4.0785,4.001,3.9513,3.9062,3.8819,3.8819,3.8782,3.8686,5.3382,5.3382,5.3467,5.3518,5.3518,5.3518,5.3518,5.3518,5.3518,5.3518,5.3518,5.3518,5.3518,5.3518,5.3518,5.3518,5.3518,5.3518,5.3467,5.3382,5.3382,5.3348,5.3246,5.3127,5.3093,5.3076,5.2989,5.2834,5.2677,5.2642,5.2553,5.2288,5.2272,5.1966,5.1388,5.1228,5.0762,4.9919,4.9439,4.9085,4.8858,4.8401,4.8095,4.8031,4.7471,4.7084,4.7103,4.6899,4.6823,4.6839,4.7012,4.7132,4.7149,4.7217,4.7251,4.7251,4.7251,4.7251,4.7251,4.7251,4.7251,4.7267,4.7251,4.7251,4.7251,4.7183,4.6892,4.6388,4.6028,4.5771,4.5589,4.5389,4.5188,4.5092,4.5002,4.4942,4.4927,4.4852,4.4723,4.4648,4.4549,4.4396,4.4205,4.405,4.3988,4.3871,4.3871,4.3832,4.3754,4.3699,4.3675,4.3542,4.3557,4.3463,4.3344,4.3305,4.3305,4.3305,4.3305,4.3305,4.3305,4.3305,4.329,4.3305,4.2776,4.2201,4.1549,4.0808,4.0077,3.9518,3.9265,3.9141,3.9156,3.9053,3.8943,5.3518,5.3518,5.3518,5.3518,5.3518,5.3518,5.3518,5.3518,5.3518,5.3534,5.3551,5.3551,5.3584,5.3618,5.3534,5.3534,5.3551,5.3568,5.3601,5.3618,5.3618,5.3635,5.3618,5.3433,5.3349,5.3315,5.3144,5.3058,5.2989,5.2903,5.2817,5.2712,5.2677,5.2241,5.1453,5.1264,5.0731,4.9788,4.909,4.871,4.8511,4.8241,4.7967,4.7744,4.7306,4.7064,4.7064,4.7217,4.7301,4.7285,4.752,4.7654,4.7637,4.7737,4.7803,4.7754,4.777,4.7754,4.7803,4.7754,4.7754,4.7787,4.7754,4.777,4.7754,4.7704,4.7537,4.7201,4.67,4.631,4.5936,4.5755,4.5609,4.5478,4.5368,4.5294,4.5278,4.5114,4.5002,4.4964,4.4799,4.461,4.4419,4.4281,4.4166,4.4089,4.4104,4.4065,4.4026,4.3988,4.3949,4.3808,4.3769,4.3636,4.3384,4.3305,4.3305,4.3305,4.3305,4.3305,4.3305,4.3305,4.3305,4.3245,4.2731,4.2201,4.1542,4.0861,4.0172,3.9664,3.9388,3.9388,3.9352,3.9265,3.9213,5.3518,5.3518,5.3518,5.3518,5.3518,5.3518,5.3501,5.3501,5.3501,5.3601,5.3684,5.3684,5.3783,5.3932,5.3651,5.3584,5.3684,5.3717,5.3783,5.3932,5.3948,5.3948,5.3965,5.3783,5.3684,5.3634,5.3551,5.3382,5.323,5.299,5.2903,5.2886,5.2888,5.2485,5.1815,5.163,5.1011,4.969,4.9457,4.9189,4.8587,4.8471,4.8165,4.7636,4.7486,4.7504,4.7486,4.7486,4.7504,4.7504,4.7803,4.7968,4.8001,4.8276,4.842,4.842,4.842,4.842,4.842,4.8388,4.8388,4.842,4.8356,4.842,4.8356,4.8115,4.7968,4.7935,4.742,4.6892,4.6404,4.6171,4.6048,4.5992,4.5687,4.5541,4.5505,4.5373,4.5204,4.5167,4.5002,4.4799,4.461,4.4587,4.4473,4.4358,4.4281,4.4243,4.4104,4.4026,4.4026,4.4011,4.3949,4.3832,4.3423,4.3423,4.3384,4.3423,4.3463,4.3384,4.3305,4.3305,4.3344,4.321,4.2833,4.2278,4.1542,4.0868,4.0179,3.97,3.9505,3.946,3.9424,3.9388,3.9352,5.3518,5.3518,5.3518,5.3518,5.3518,5.3518,5.3568,5.3634,5.3634,5.3717,5.3899,5.3882,5.3948,5.398,5.3866,5.3833,5.3899,5.3882,5.3948,5.398,5.398,5.398,5.398,5.3915,5.3882,5.3882,5.3816,5.3767,5.3717,5.3651,5.3617,5.3465,5.3075,5.2432,5.1674,5.0986,5.0165,4.9211,4.8966,4.8751,4.8549,4.8483,4.8356,4.8163,4.813,4.813,4.8147,4.813,4.813,4.813,4.8276,4.834,4.834,4.842,4.8483,4.8483,4.8483,4.8483,4.8483,4.8483,4.8483,4.8483,4.8483,4.8515,4.8483,4.8388,4.8244,4.8033,4.7853,4.7521,4.7115,4.6684,4.6353,4.6243,4.612,4.6012,4.5977,4.5868,4.5719,4.5589,4.5315,4.5002,4.4874,4.4799,4.4723,4.4549,4.4511,4.4473,4.4435,4.4396,4.4374,4.4243,4.4166,4.4089,4.3817,4.3738,4.3738,4.3738,4.3778,4.3754,4.3754,4.3714,4.3714,4.3639,4.3171,4.2628,4.1957,4.0917,4.0269,3.9875,3.9679,3.9532,3.9424,3.946,3.946,5.3518,5.3501,5.3551,5.3551,5.3551,5.3618,5.3701,5.3816,5.3816,5.3898,5.4045,5.4078,5.411,5.4143,5.4143,5.416,5.4143,5.4127,5.411,5.416,5.4143,5.4175,5.4224,5.4192,5.4175,5.4207,5.4093,5.4028,5.4013,5.398,5.398,5.3929,5.3195,5.2379,5.1537,5.0694,4.9839,4.9137,4.8846,4.8736,4.8719,4.8673,4.8673,4.8673,4.8642,4.861,4.8515,4.8483,4.8483,4.8515,4.8564,4.861,4.8642,4.869,4.869,4.8673,4.8642,4.8642,4.8673,4.8673,4.8673,4.8673,4.8673,4.869,4.8658,4.8627,4.8468,4.8276,4.8196,4.8033,4.7688,4.7268,4.6961,4.6719,4.6631,4.6545,4.6493,4.6333,4.6171,4.59,4.5609,4.5352,4.5151,4.5039,4.4927,4.4814,4.4814,4.4776,4.4776,4.4776,4.4739,4.4641,4.4641,4.4587,4.4473,4.4435,4.4143,4.4065,4.4011,4.4065,4.4104,4.4065,4.405,4.3935,4.3616,4.3031,4.2227,4.1149,4.0582,4.0202,3.9924,3.9747,3.9676,3.9553,3.9628,5.3501,5.3568,5.3668,5.3717,5.375,5.3882,5.398,5.398,5.3997,5.4078,5.419,5.419,5.4303,5.448,5.448,5.4512,5.448,5.4318,5.4335,5.4431,5.448,5.4575,5.47,5.4575,5.454,5.4648,5.4379,5.4173,5.411,5.411,5.4078,5.3909,5.3205,5.2452,5.1725,5.0923,5.0171,4.9564,4.926,4.9168,4.9199,4.9063,4.9001,4.9001,4.897,4.8846,4.8547,4.8515,4.8547,4.8564,4.869,4.8863,4.894,4.897,4.897,4.897,4.8987,4.897,4.897,4.897,4.894,4.894,4.8987,4.897,4.894,4.8877,4.8801,4.8707,4.8595,4.8373,4.8082,4.7919,4.777,4.7504,4.7233,4.7064,4.6911,4.6738,4.6493,4.6191,4.5956,4.5719,4.552,4.5373,4.5278,4.5204,4.5167,4.5167,4.5167,4.5129,4.5167,4.5129,4.5055,4.4942,4.5055,4.5129,4.4678,4.4297,4.4243,4.4243,4.4335,4.4335,4.4374,4.4297,4.4037,4.3531,4.317,4.2138,4.1494,4.1066,4.0583,4.0314,4.0323,4.0341,4.0034,5.3833,5.3833,5.3899,5.3932,5.3915,5.3997,5.4045,5.4143,5.4143,5.4239,5.4367,5.4416,5.4494,5.4686,5.4717,5.4762,5.4838,5.4776,5.4665,5.4557,5.4655,5.4749,5.4811,5.4855,5.4852,5.4882,5.4821,5.4728,5.4683,5.4665,5.4683,5.4458,5.3354,5.2615,5.2166,5.0858,4.9926,4.9654,4.9488,4.9428,4.9428,4.935,4.9337,4.9337,4.9199,4.9077,4.8984,4.8892,4.8846,4.8846,4.8909,4.8956,4.9018,4.9018,4.9018,4.9018,4.9018,4.9018,4.9018,4.9001,4.9001,4.9032,4.9094,4.9155,4.9138,4.9216,4.9172,4.897,4.8877,4.8704,4.842,4.834,4.8115,4.7537,4.7436,4.7403,4.7285,4.7132,4.6927,4.6668,4.6458,4.6227,4.5992,4.5848,4.5739,4.563,4.552,4.541,4.541,4.5352,4.522,4.522,4.522,4.5278,4.5352,4.5426,4.5188,4.4867,4.4739,4.4587,4.4603,4.4641,4.4678,4.4639,4.4377,4.4099,4.3735,4.3189,4.2494,4.216,4.1879,4.1637,4.145,4.1195,4.0921,5.398,5.4013,5.4045,5.4078,5.4078,5.4143,5.4239,5.4303,5.4303,5.4416,5.4575,5.4606,5.47,5.4842,5.4873,5.493,5.5083,5.5066,5.5022,5.4869,5.4824,5.4904,5.4961,5.5174,5.5264,5.5264,5.5264,5.5234,5.5174,5.5174,5.5156,5.4912,5.3561,5.2741,5.2497,5.0968,5.0011,4.9942,4.9825,4.9725,4.9666,4.9607,4.9547,4.9471,4.9398,4.932,4.932,4.9246,4.9124,4.9049,4.9018,4.9018,4.9018,4.9018,4.9032,4.9063,4.9094,4.9124,4.9185,4.9199,4.9185,4.9216,4.926,4.932,4.932,4.9458,4.9367,4.9246,4.9124,4.8954,4.8736,4.861,4.8373,4.7951,4.782,4.7721,4.7588,4.742,4.7301,4.7098,4.6927,4.6703,4.658,4.6333,4.6262,4.6104,4.5941,4.5796,4.576,4.5703,4.563,4.5594,4.5667,4.5719,4.5646,4.5646,4.563,4.5463,4.5315,4.5092,4.5017,4.498,4.5017,4.4949,4.48,4.4747,4.439,4.3935,4.3371,4.3237,4.3056,4.2623,4.2294,4.2138,4.1882,5.4013,5.4045,5.4175,5.4239,5.4239,5.4399,5.4512,5.4512,5.4543,5.4637,5.4797,5.4824,5.4917,5.5022,5.5101,5.5174,5.5229,5.5289,5.5348,5.5383,5.5264,5.5187,5.5289,5.5572,5.5677,5.5706,5.5735,5.5677,5.559,5.5578,5.5549,5.5373,5.401,5.2973,5.2711,5.1294,5.0547,5.0387,5.0257,5.0114,4.9942,4.9825,4.9725,4.959,4.956,4.953,4.953,4.9488,4.9337,4.9094,4.9063,4.9094,4.9032,4.9032,4.9124,4.9229,4.9229,4.932,4.9458,4.9458,4.9458,4.9458,4.9488,4.9518,4.95,4.9547,4.953,4.9471,4.935,4.9185,4.9032,4.894,4.8753,4.8547,4.8292,4.8065,4.7787,4.7654,4.7621,4.7537,4.7386,4.7251,4.7183,4.6892,4.6703,4.6633,4.6493,4.6353,4.6333,4.6298,4.6333,4.6298,4.6227,4.6227,4.6156,4.6156,4.6156,4.6084,4.5956,4.5739,4.5484,4.5463,4.5463,4.5395,4.5342,4.5268,4.5164,4.4741,4.449,4.4402,4.4053,4.3497,4.3323,4.3273,4.3019,5.4385,5.4385,5.4399,5.4416,5.4448,5.4655,5.4717,5.4749,5.4824,5.4869,5.4961,5.5083,5.5204,5.5371,5.549,5.5619,5.5671,5.57,5.5729,5.5775,5.57,5.5689,5.5729,5.5936,5.6085,5.6085,5.6134,5.6189,5.6162,5.6067,5.6028,5.5975,5.4843,5.3964,5.3319,5.231,5.14,5.0799,5.0575,5.0436,5.0285,5.0228,5.02,5.0143,4.9942,4.9825,4.9767,4.959,4.9488,4.9381,4.935,4.9367,4.935,4.9367,4.9381,4.9411,4.9441,4.9458,4.9518,4.9518,4.9518,4.9518,4.9607,4.9649,4.9649,4.9784,4.9755,4.9696,4.959,4.95,4.9398,4.9337,4.9199,4.9015,4.8688,4.842,4.8292,4.8243,4.8195,4.8049,4.7869,4.7737,4.7588,4.742,4.7235,4.7217,4.7064,4.6927,4.6858,4.6789,4.6754,4.6754,4.6719,4.6719,4.6719,4.6719,4.6703,4.6703,4.658,4.6439,4.6227,4.6048,4.6048,4.6012,4.5961,4.5925,4.5977,4.5829,4.5707,4.5421,4.531,4.4942,4.4881,4.4815,4.4346,5.4606,5.4655,5.4683,5.4731,5.4714,5.4807,5.4917,5.4978,5.5035,5.5174,5.5294,5.5366,5.5514,5.5648,5.5735,5.5918,5.6088,5.6088,5.6189,5.6265,5.6265,5.6227,5.6172,5.6235,5.6346,5.6455,5.6519,5.6546,5.6546,5.651,5.6455,5.6267,5.5526,5.4821,5.4331,5.3025,5.2183,5.1599,5.1166,5.0838,5.0692,5.0692,5.0592,5.0509,5.0268,5.0165,5.0114,4.9971,4.9767,4.956,4.9488,4.9488,4.9518,4.956,4.959,4.9649,4.9755,4.9767,4.9813,4.9784,4.9755,4.9742,4.9801,4.9813,4.986,4.9993,5.0034,4.9959,4.993,4.9872,4.9796,4.9708,4.9607,4.9411,4.9152,4.8875,4.8625,4.8545,4.8515,4.8356,4.8276,4.8179,4.8033,4.7886,4.7787,4.7688,4.7521,4.7386,4.7285,4.7201,4.7167,4.7201,4.7218,4.7252,4.7302,4.7302,4.7336,4.7336,4.7252,4.7116,4.6842,4.6633,4.658,4.658,4.6545,4.6561,4.658,4.6545,4.6375,4.624,4.6333,4.6243,4.5977,4.5796,4.5351,5.4811,5.4842,5.4978,5.5022,5.5022,5.5066,5.5174,5.5229,5.5271,5.5437,5.566,5.5735,5.585,5.5947,5.606,5.6172,5.6437,5.6437,5.6573,5.6662,5.6742,5.6662,5.6528,5.6546,5.6653,5.6821,5.6847,5.6899,5.6899,5.6873,5.6839,5.6642,5.5971,5.5542,5.5087,5.3831,5.3067,5.2713,5.2022,5.1538,5.1352,5.1211,5.099,5.0784,5.0675,5.0547,5.0481,5.0397,5.02,4.9679,4.9619,4.9666,4.9666,4.9737,4.9825,4.9924,5.0086,5.0189,5.0217,5.016,5.0149,5.008,5.0034,5.0051,5.0063,5.0178,5.0217,5.0171,5.0217,5.0189,5.0143,5.0057,4.9942,4.9825,4.9767,4.9453,4.9029,4.8813,4.8719,4.861,4.861,4.8562,4.8498,4.8388,4.8178,4.813,4.7968,4.7886,4.777,4.7737,4.7704,4.7671,4.7737,4.777,4.7836,4.7919,4.7951,4.7951,4.7902,4.7754,4.7454,4.7218,4.7082,4.7064,4.7098,4.7064,4.703,4.6945,4.6876,4.6858,4.6839,4.6666,4.6439,4.6298,4.6016,5.4978,5.4961,5.5079,5.5169,5.5199,5.5425,5.5561,5.5619,5.57,5.5804,5.5936,5.6134,5.6263,5.63,5.6474,5.6662,5.6689,5.6733,5.6768,5.6794,5.6925,5.7003,5.7003,5.7028,5.7054,5.7138,5.7356,5.7431,5.7363,5.7188,5.7112,5.7033,5.6691,5.6193,5.5582,5.5153,5.4566,5.3959,5.3131,5.2585,5.2243,5.1765,5.1404,5.1167,5.1061,5.0909,5.0766,5.0694,5.064,5.0519,5.0324,5.02,5.0171,5.0228,5.0257,5.0285,5.0313,5.0387,5.0359,5.0359,5.0341,5.0302,5.0274,5.032,5.0302,5.0359,5.0359,5.0359,5.0359,5.0415,5.0415,5.0359,5.0302,5.0257,5.0228,5.0143,4.9866,4.9513,4.932,4.9229,4.9138,4.9046,4.9029,4.8781,4.8625,4.8562,4.8452,4.834,4.8276,4.8195,4.8163,4.8081,4.8195,4.826,4.8356,4.842,4.85,4.85,4.8452,4.842,4.8065,4.7853,4.7754,4.7671,4.7654,4.7571,4.7521,4.7437,4.7404,4.7352,4.7285,4.7149,4.6977,4.6823,4.6649,5.5306,5.5354,5.5484,5.5525,5.5555,5.5718,5.585,5.5936,5.6095,5.6172,5.6282,5.6474,5.6573,5.66,5.6733,5.6821,5.6899,5.6977,5.7028,5.7105,5.7163,5.7264,5.7406,5.7455,5.748,5.7412,5.751,5.7583,5.7534,5.7461,5.7363,5.7388,5.7213,5.6996,5.6468,5.6061,5.5534,5.5026,5.4234,5.3695,5.3442,5.2773,5.1993,5.1627,5.1402,5.122,5.1132,5.1052,5.1052,5.1026,5.0946,5.0784,5.0647,5.0675,5.0719,5.0737,5.0719,5.0665,5.0637,5.0537,5.0492,5.0492,5.0509,5.0537,5.0592,5.0647,5.0719,5.0764,5.0774,5.0828,5.0828,5.0828,5.0801,5.0737,5.0737,5.0665,5.0453,5.0114,4.9767,4.9679,4.953,4.9471,4.9333,4.9182,4.9029,4.8968,4.8906,4.8798,4.853,4.8498,4.853,4.853,4.8642,4.8753,4.8829,4.8923,4.9032,4.9001,4.8923,4.8892,4.8719,4.853,4.8405,4.8276,4.8115,4.8098,4.8065,4.7984,4.7886,4.782,4.7754,4.7621,4.7504,4.7285,4.708,5.5735,5.5735,5.589,5.5975,5.5975,5.6014,5.6144,5.6273,5.6401,5.6519,5.6653,5.675,5.6794,5.6821,5.6847,5.6933,5.7061,5.7163,5.7282,5.7363,5.7437,5.751,5.7625,5.7739,5.7763,5.7673,5.7697,5.7679,5.7697,5.7649,5.7583,5.7607,5.7601,5.7456,5.7286,5.6788,5.6303,5.6108,5.5333,5.4806,5.4604,5.3932,5.3156,5.2598,5.2322,5.207,5.1938,5.178,5.1614,5.1428,5.1531,5.1341,5.1158,5.1097,5.1185,5.1158,5.1158,5.1061,5.0919,5.0793,5.0739,5.0712,5.0712,5.0871,5.105,5.1307,5.1484,5.1537,5.1608,5.1503,5.1493,5.1273,5.1211,5.1158,5.1132,5.1061,5.0865,5.0564,5.0341,5.004,4.9965,4.9907,4.9808,4.9679,4.953,4.9381,4.932,4.9212,4.8968,4.8827,4.8889,4.8906,4.9032,4.9094,4.9138,4.9168,4.9307,4.9337,4.926,4.9229,4.9199,4.9077,4.8861,4.8658,4.8532,4.8532,4.8452,4.8324,4.826,4.826,4.8163,4.8049,4.7853,4.7704,4.7521,5.5844,5.5872,5.6189,5.63,5.6355,5.6528,5.6635,5.6689,5.6689,5.6742,5.6768,5.6881,5.6959,5.6984,5.7105,5.7188,5.7289,5.7356,5.7437,5.7559,5.7649,5.7745,5.7786,5.7881,5.7927,5.795,5.7909,5.7886,5.7862,5.7815,5.7768,5.7763,5.7673,5.7607,5.7589,5.737,5.7201,5.7049,5.6412,5.5952,5.5649,5.5039,5.4381,5.3914,5.376,5.3476,5.31,5.2931,5.268,5.207,5.2005,5.1992,5.2001,5.1869,5.1732,5.1497,5.1534,5.1518,5.1352,5.1326,5.1211,5.1176,5.1317,5.1644,5.2051,5.229,5.2555,5.2777,5.2608,5.2325,5.2281,5.197,5.1413,5.1334,5.1413,5.1334,5.1246,5.1149,5.0919,5.063,5.0502,5.0363,5.0268,5.0143,4.9982,4.9837,4.9767,4.9679,4.9513,4.9394,4.9381,4.9381,4.9398,4.9428,4.9458,4.9458,4.9488,4.9488,4.9471,4.9441,4.9411,4.9411,4.929,4.9032,4.8846,4.8784,4.8721,4.8642,4.8578,4.8515,4.8452,4.8388,4.8244,4.8082,4.7951,5.6347,5.6374,5.6528,5.66,5.6626,5.676,5.6794,5.6821,5.6873,5.6899,5.6951,5.7054,5.7105,5.713,5.7163,5.7264,5.7388,5.748,5.7559,5.7697,5.7768,5.7839,5.7904,5.7973,5.7997,5.7978,5.7978,5.7978,5.7978,5.795,5.7904,5.7904,5.7839,5.7815,5.781,5.7726,5.7697,5.7569,5.7248,5.6933,5.674,5.6067,5.5462,5.5009,5.4785,5.4483,5.4242,5.3968,5.3738,5.3457,5.3489,5.3544,5.3508,5.3376,5.2984,5.2151,5.2151,5.2264,5.2224,5.2385,5.2652,5.2722,5.2669,5.2925,5.335,5.358,5.3742,5.3849,5.3893,5.3544,5.3544,5.3108,5.2804,5.2411,5.2279,5.2083,5.1833,5.1726,5.147,5.1158,5.0972,5.0838,5.0747,5.061,5.0453,5.0341,5.02,5.0086,4.9999,4.9884,4.9796,4.9755,4.9725,4.9725,4.9755,4.9755,4.9725,4.9696,4.9666,4.9666,4.9607,4.9577,4.9488,4.9307,4.9202,4.9155,4.9032,4.8954,4.8861,4.8767,4.869,4.8627,4.8595,4.8468,4.8308,5.6794,5.6794,5.6821,5.6847,5.6829,5.6891,5.6873,5.6899,5.7003,5.7036,5.7054,5.7156,5.7213,5.7239,5.7289,5.7363,5.7461,5.7583,5.7721,5.7815,5.7857,5.7909,5.7955,5.7978,5.7978,5.7978,5.7978,5.7978,5.7978,5.7997,5.7978,5.7955,5.7978,5.7978,5.7955,5.7881,5.7839,5.7792,5.7745,5.7673,5.7467,5.6987,5.6385,5.5759,5.5516,5.542,5.5221,5.5039,5.4796,5.4658,5.4701,5.4876,5.4954,5.5119,5.4407,5.3153,5.323,5.3315,5.3396,5.3554,5.3778,5.3846,5.4025,5.4297,5.4661,5.4812,5.4981,5.4943,5.4719,5.4658,5.4597,5.4511,5.4126,5.3659,5.3318,5.3073,5.2521,5.2184,5.1932,5.1665,5.1428,5.1246,5.1097,5.099,5.0838,5.0757,5.0647,5.0481,5.0397,5.0268,5.0183,5.0074,5.0046,5.0063,5.0063,5.0063,5.0034,4.9959,4.9901,4.9872,4.9784,4.9713,4.9624,4.9624,4.9666,4.9607,4.9441,4.926,4.9138,4.9015,4.894,4.8846,4.8784,4.8707,4.8549,5.6794,5.6821,5.6925,5.6959,5.7003,5.7105,5.7138,5.7138,5.7156,5.7181,5.7156,5.7206,5.7282,5.7381,5.7504,5.7625,5.7721,5.7768,5.7857,5.795,5.7932,5.7955,5.7997,5.7978,5.7978,5.7978,5.7978,5.7978,5.7978,5.7978,5.7978,5.7978,5.7978,5.7978,5.7978,5.7973,5.7973,5.7955,5.7932,5.7881,5.7768,5.7527,5.7339,5.7242,5.7085,5.6806,5.6296,5.6091,5.5891,5.5309,5.5229,5.5202,5.5166,5.5189,5.5176,5.4854,5.4749,5.4628,5.4517,5.4601,5.4668,5.4748,5.4622,5.4863,5.54,5.6019,5.6325,5.6507,5.5939,5.5551,5.5425,5.495,5.4572,5.4273,5.3974,5.3572,5.3104,5.2726,5.2456,5.2078,5.1833,5.1564,5.1384,5.1307,5.1202,5.1149,5.107,5.0892,5.0757,5.0647,5.0564,5.0471,5.0313,5.0313,5.0302,5.0302,5.0263,5.0189,5.0132,5.0074,5.0017,4.9947,4.9964,4.9947,5.0017,4.9988,4.9737,4.956,4.9381,4.9277,4.9155,4.9063,4.9001,4.8877,4.8769,5.7028,5.7028,5.7105,5.713,5.7112,5.7163,5.7188,5.7188,5.7188,5.7188,5.7213,5.7289,5.7388,5.7528,5.7649,5.7763,5.7834,5.7904,5.795,5.7997,5.8001,5.8001,5.7978,5.7978,5.7978,5.8001,5.7978,5.7978,5.7978,5.8001,5.7978,5.7997,5.7978,5.7978,5.7978,5.7978,5.7978,5.7978,5.7978,5.7955,5.7909,5.7862,5.7815,5.7815,5.7745,5.7483,5.7259,5.7078,5.6945,5.6585,5.6609,5.6698,5.6698,5.6762,5.679,5.679,5.6651,5.6261,5.5698,5.5846,5.5898,5.5956,5.5931,5.6158,5.6515,5.6757,5.7028,5.6992,5.6721,5.6505,5.6451,5.6216,5.5826,5.5385,5.4837,5.4206,5.3773,5.3346,5.2984,5.2594,5.2216,5.1956,5.174,5.1615,5.1538,5.1462,5.1359,5.1202,5.107,5.0963,5.0883,5.0846,5.0702,5.0602,5.0519,5.0492,5.0425,5.0369,5.0331,5.0274,5.0246,5.0217,5.0206,5.0206,5.0246,5.0143,4.9971,4.9825,4.9679,4.953,4.9367,4.9277,4.9168,4.9107,4.9001,5.7282,5.7289,5.7213,5.7188,5.7188,5.7188,5.7232,5.7239,5.7257,5.7264,5.7313,5.7437,5.7559,5.7697,5.7839,5.795,5.7973,5.8042,5.8106,5.8106,5.8106,5.8129,5.8129,5.8129,5.8111,5.8088,5.8133,5.8133,5.8111,5.8088,5.8088,5.802,5.7978,5.7978,5.7978,5.7978,5.7978,5.7978,5.7978,5.7978,5.7978,5.7978,5.7978,5.7955,5.7909,5.7839,5.7815,5.7732,5.7666,5.7635,5.7627,5.7619,5.7661,5.767,5.7735,5.7694,5.7601,5.7342,5.6939,5.6921,5.7259,5.7239,5.7163,5.6957,5.7047,5.7188,5.7188,5.7163,5.7127,5.7109,5.717,5.7116,5.6783,5.633,5.595,5.5214,5.449,5.3971,5.3477,5.3074,5.2701,5.2335,5.2126,5.198,5.1864,5.1808,5.1658,5.1487,5.1376,5.1272,5.1193,5.1114,5.1043,5.0928,5.0847,5.0766,5.0702,5.0592,5.0537,5.0509,5.0509,5.0481,5.0453,5.0453,5.0481,5.0453,5.038,5.0154,4.9953,4.9767,4.959,4.9471,4.9381,4.929,4.9199,5.748,5.7534,5.7289,5.7213,5.7213,5.7188,5.7264,5.7381,5.7363,5.748,5.7601,5.7721,5.7834,5.7973,5.8088,5.8219,5.8349,5.839,5.8349,5.8349,5.8371,5.8327,5.8345,5.8327,5.8349,5.8349,5.8327,5.8327,5.8349,5.8305,5.8197,5.8042,5.8065,5.8001,5.8001,5.8042,5.802,5.7978,5.7978,5.7978,5.7978,5.7978,5.7978,5.7978,5.7978,5.7978,5.7973,5.795,5.7909,5.7909,5.7932,5.7932,5.7932,5.7955,5.7978,5.7978,5.7955,5.7799,5.7651,5.7509,5.7522,5.751,5.7437,5.7313,5.7282,5.7232,5.7206,5.7213,5.7213,5.7188,5.7188,5.717,5.7062,5.688,5.6482,5.5975,5.5196,5.449,5.3995,5.3561,5.3175,5.2844,5.2513,5.2366,5.212,5.2005,5.1956,5.1765,5.164,5.1556,5.1428,5.1359,5.1333,5.1281,5.1255,5.1176,5.1097,5.099,5.0909,5.0838,5.0793,5.0757,5.0729,5.0757,5.0811,5.0793,5.0766,5.0575,5.0352,5.004,4.9854,4.9767,4.956,4.9411,4.932,5.7553,5.7583,5.7486,5.7437,5.7437,5.7455,5.7461,5.7528,5.7528,5.7649,5.7857,5.7904,5.8042,5.8219,5.8264,5.8331,5.8393,5.8411,5.8411,5.8411,5.8411,5.8411,5.8411,5.8433,5.8411,5.8415,5.8411,5.8411,5.8411,5.8433,5.839,5.8282,5.8242,5.8242,5.8219,5.8133,5.8088,5.802,5.802,5.7997,5.7978,5.7978,5.7978,5.7978,5.7978,5.7978,5.7978,5.7978,5.7978,5.8001,5.8001,5.8001,5.8001,5.8001,5.8001,5.8001,5.802,5.8001,5.7978,5.7839,5.7697,5.7601,5.7534,5.7486,5.7431,5.7381,5.7338,5.7289,5.7257,5.7239,5.7206,5.7188,5.7152,5.7098,5.6862,5.6482,5.5939,5.5196,5.4725,5.4399,5.3856,5.3344,5.3054,5.2759,5.2479,5.224,5.215,5.2078,5.1932,5.1833,5.1715,5.1665,5.164,5.1589,5.1564,5.1531,5.1479,5.1376,5.1272,5.1228,5.1184,5.1105,5.1079,5.1105,5.1132,5.1132,5.1105,5.1026,5.0784,5.0436,5.0211,5.0086,4.9854,4.956,4.9471,5.7786,5.7834,5.7839,5.7745,5.7607,5.7583,5.7625,5.7673,5.7697,5.7862,5.8129,5.8129,5.8242,5.8375,5.8418,5.8462,5.8483,5.8523,5.8502,5.8523,5.8523,5.8502,5.8502,5.8502,5.8523,5.8483,5.8483,5.8483,5.8523,5.8483,5.8483,5.8483,5.8462,5.844,5.8371,5.8327,5.8219,5.8152,5.8129,5.8129,5.8111,5.8111,5.8133,5.8133,5.8133,5.8133,5.8133,5.8152,5.8133,5.8152,5.8152,5.8129,5.8111,5.8111,5.8111,5.8129,5.8129,5.8129,5.8065,5.795,5.7792,5.7697,5.7673,5.7649,5.7601,5.7528,5.7461,5.7437,5.7363,5.7289,5.7282,5.7264,5.7239,5.7184,5.7134,5.6826,5.65,5.5921,5.5577,5.5251,5.4617,5.3965,5.3331,5.3005,5.2692,5.2412,5.2264,5.2198,5.2126,5.2054,5.1987,5.1963,5.1987,5.1914,5.1858,5.1833,5.1783,5.1758,5.1665,5.1615,5.1564,5.1513,5.1513,5.1571,5.1571,5.1513,5.1487,5.1487,5.1184,5.082,5.0575,5.0369,5.0143,4.9884,4.9708,5.8133,5.839,5.8371,5.8065,5.7679,5.7625,5.7697,5.7839,5.795,5.8133,5.8371,5.8393,5.844,5.8511,5.8553,5.8596,5.8677,5.8698,5.8698,5.8716,5.8698,5.8677,5.8677,5.8677,5.8698,5.8716,5.8716,5.8698,5.8698,5.8698,5.8698,5.8656,5.8633,5.8569,5.8433,5.8411,5.8393,5.8371,5.8371,5.8349,5.8349,5.8327,5.8327,5.8327,5.8327,5.8327,5.8305,5.8305,5.8305,5.8305,5.8327,5.8327,5.8327,5.8327,5.8327,5.8349,5.8367,5.839,5.8367,5.8129,5.7973,5.7862,5.7886,5.7839,5.7697,5.7607,5.7625,5.7649,5.7577,5.7504,5.7455,5.7388,5.7313,5.7289,5.7264,5.7191,5.6889,5.6708,5.6352,5.6079,5.5372,5.4599,5.3826,5.321,5.2889,5.262,5.2418,5.2311,5.2287,5.2246,5.2222,5.2222,5.2222,5.215,5.2078,5.2102,5.2102,5.2078,5.2036,5.1969,5.1945,5.1896,5.192,5.2011,5.1963,5.184,5.1889,5.1956,5.1571,5.1237,5.082,5.0575,5.0369,5.02,5.0057,5.8327,5.8411,5.8462,5.8359,5.8205,5.8174,5.8174,5.8215,5.8264,5.8396,5.8569,5.859,5.8698,5.8784,5.8825,5.8845,5.8884,5.8904,5.8904,5.8904,5.8884,5.8885,5.8885,5.8884,5.8884,5.8904,5.8904,5.8884,5.8904,5.8884,5.8881,5.884,5.8739,5.8614,5.8508,5.8465,5.8443,5.8415,5.8411,5.8411,5.8411,5.8411,5.8433,5.8433,5.8433,5.8433,5.8433,5.8433,5.8415,5.8433,5.8455,5.8415,5.8415,5.8433,5.8415,5.8393,5.8411,5.8411,5.8411,5.8305,5.826,5.8197,5.8152,5.8129,5.8129,5.795,5.7904,5.7834,5.7763,5.7649,5.7553,5.7553,5.7504,5.7486,5.7504,5.7504,5.7322,5.7267,5.7085,5.6885,5.6406,5.5582,5.4776,5.413,5.3712,5.3308,5.3124,5.262,5.2488,5.2428,5.2387,5.2405,5.2405,5.2335,5.2311,5.234,5.2298,5.2275,5.228,5.2262,5.2239,5.2257,5.2257,5.228,5.2209,5.218,5.218,5.2132,5.1938,5.164,5.1245,5.0928,5.0712,5.0547,5.038,5.8588,5.8614,5.8658,5.8661,5.8658,5.8569,5.8523,5.8585,5.8588,5.8654,5.8781,5.8821,5.8864,5.8983,5.9042,5.9062,5.9081,5.9082,5.9101,5.912,5.9081,5.9062,5.9062,5.9042,5.8965,5.9004,5.9004,5.8984,5.8965,5.8984,5.8964,5.8922,5.8842,5.8782,5.8681,5.8638,5.8551,5.8526,5.8545,5.8526,5.8523,5.8523,5.8523,5.8523,5.8523,5.8523,5.8523,5.8483,5.8505,5.8505,5.8523,5.8483,5.8505,5.8505,5.8483,5.8483,5.8502,5.8523,5.8523,5.8505,5.8483,5.8502,5.8459,5.8411,5.839,5.8219,5.8174,5.8065,5.795,5.7857,5.7768,5.7745,5.7721,5.7697,5.7649,5.7649,5.7607,5.7534,5.7516,5.7375,5.7248,5.6463,5.5806,5.5244,5.4729,5.43,5.389,5.3354,5.2817,5.2722,5.2681,5.2681,5.2608,5.2549,5.2531,5.2554,5.2531,5.2467,5.2513,5.254,5.254,5.2536,5.254,5.2559,5.2549,5.2498,5.2392,5.2298,5.23,5.2095,5.174,5.1418,5.1132,5.0972,5.0862,5.8942,5.9004,5.9004,5.9004,5.8965,5.8823,5.8801,5.8899,5.8899,5.8961,5.9004,5.9042,5.9063,5.9063,5.9177,5.9215,5.9234,5.929,5.9309,5.9309,5.9272,5.9253,5.9177,5.9139,5.9158,5.9101,5.9082,5.914,5.9043,5.9101,5.9101,5.9042,5.9042,5.9003,5.8944,5.8864,5.8741,5.8719,5.8719,5.8719,5.8719,5.8716,5.8716,5.8698,5.8698,5.8698,5.8698,5.8698,5.8698,5.8698,5.8716,5.8698,5.8698,5.8716,5.8698,5.8698,5.8716,5.8716,5.8698,5.8698,5.8698,5.8677,5.8588,5.848,5.8415,5.8396,5.8353,5.8331,5.8242,5.8133,5.8065,5.7997,5.7927,5.7857,5.7763,5.7721,5.7721,5.7703,5.7684,5.7671,5.7695,5.7238,5.6712,5.6196,5.5916,5.5546,5.5103,5.4572,5.3953,5.3158,5.3099,5.3026,5.2935,5.2779,5.2779,5.2812,5.2757,5.2694,5.2779,5.2824,5.2824,5.2842,5.2806,5.2824,5.2856,5.2885,5.2949,5.293,5.2873,5.2672,5.2744,5.2012,5.1744,5.1582,5.1458,5.9196,5.9234,5.9328,5.9346,5.9346,5.9346,5.9309,5.9196,5.9177,5.9253,5.9365,5.9365,5.9346,5.9418,5.9455,5.9473,5.9473,5.951,5.9509,5.9491,5.951,5.9492,5.9474,5.9419,5.9419,5.9419,5.9419,5.9383,5.9401,5.9383,5.9346,5.9346,5.9253,5.9234,5.9196,5.9158,5.9042,5.8982,5.8962,5.8924,5.8924,5.8904,5.8924,5.8924,5.8885,5.8905,5.8924,5.8924,5.8924,5.8924,5.8924,5.8905,5.8924,5.8924,5.8924,5.8905,5.8905,5.8905,5.8905,5.8904,5.8904,5.8905,5.8843,5.8721,5.8656,5.8551,5.8526,5.8508,5.8505,5.84,5.8334,5.8286,5.8223,5.8156,5.8088,5.8088,5.8088,5.8088,5.807,5.807,5.8088,5.7978,5.7504,5.749,5.7203,5.6831,5.6408,5.5871,5.5159,5.4345,5.3814,5.376,5.3555,5.3507,5.3153,5.3091,5.3007,5.2915,5.3218,5.339,5.3371,5.3353,5.3152,5.3276,5.3599,5.3675,5.3658,5.3677,5.3849,5.4202,5.4224,5.3207,5.2426,5.2378,5.234,5.9419,5.9456,5.951,5.9582,5.965,5.9702,5.9666,5.9576,5.9472,5.9474,5.9546,5.9528,5.9563,5.9598,5.9668,5.9719,5.9736,5.9801,5.9817,5.9817,5.9751,5.9753,5.9736,5.9685,5.9597,5.9614,5.9616,5.9544,5.9579,5.9581,5.9546,5.951,5.9456,5.9437,5.94,5.9401,5.9364,5.9272,5.9196,5.9139,5.912,5.912,5.912,5.912,5.912,5.912,5.912,5.912,5.9139,5.912,5.912,5.912,5.912,5.912,5.912,5.912,5.9139,5.912,5.912,5.9139,5.9139,5.912,5.912,5.9043,5.8944,5.8843,5.8782,5.8723,5.8679,5.8635,5.8612,5.8588,5.8566,5.8505,5.8505,5.8505,5.8505,5.8505,5.8505,5.8505,5.8483,5.8465,5.8449,5.8526,5.8431,5.7965,5.7685,5.742,5.6617,5.5638,5.511,5.4868,5.4586,5.4366,5.3989,5.3821,5.4032,5.4201,5.4439,5.4501,5.4207,5.4182,5.4283,5.4389,5.4536,5.4576,5.4574,5.4789,5.4998,5.528,5.5343,5.4531,5.3791,5.358,5.3519,5.9631,5.9631,5.9631,5.977,5.9902,5.9918,5.9963,6.0053,5.9765,5.9631,5.9668,5.9649,5.9666,5.9751,5.9834,5.9902,5.9934,5.9994,6.0007,6.0103,5.9994,5.9931,5.9866,5.9801,5.9784,5.97,5.9685,5.9751,5.9666,5.9683,5.9719,5.9631,5.9649,5.9647,5.9664,5.9664,5.9647,5.9613,5.9508,5.9418,5.9327,5.9309,5.9309,5.9327,5.9327,5.9327,5.9309,5.9309,5.9327,5.9327,5.9327,5.9309,5.9309,5.9327,5.9327,5.9327,5.9327,5.9327,5.9309,5.9309,5.9327,5.9327,5.9327,5.9309,5.9234,5.9101,5.9004,5.8945,5.8922,5.8862,5.8821,5.884,5.884,5.8801,5.8821,5.8821,5.8842,5.8842,5.8823,5.8842,5.8823,5.8823,5.8842,5.8842,5.8821,5.8688,5.8591,5.8477,5.8004,5.6953,5.6422,5.5971,5.5444,5.518,5.522,5.5146,5.5428,5.5634,5.5647,5.5496,5.5107,5.5242,5.5522,5.5409,5.5258,5.5471,5.5587,5.5875,5.6054,5.6003,5.5957,5.5637,5.5267,5.5003,5.4715,5.9975,5.9975,5.9975,6.0007,6.0038,6.0057,6.0072,6.0084,6.0022,5.9975,5.9994,5.9975,5.996,5.996,5.9991,6.0041,6.0072,6.0103,6.0099,6.0133,6.0103,6.0087,6.0057,6.001,5.9994,5.9991,5.9975,5.9947,5.9912,5.9944,5.9979,5.996,5.9944,5.9928,5.9928,5.9928,5.9928,5.9896,5.9864,5.9698,5.956,5.9526,5.9526,5.9526,5.9544,5.9544,5.9544,5.9544,5.9526,5.9545,5.9545,5.9526,5.9526,5.9526,5.9526,5.9526,5.9525,5.9525,5.9562,5.9543,5.9543,5.9544,5.9544,5.9526,5.9455,5.9327,5.9234,5.9177,5.9139,5.91,5.9061,5.91,5.91,5.9119,5.9119,5.912,5.9139,5.9139,5.914,5.912,5.912,5.9139,5.9139,5.9139,5.912,5.9081,5.9062,5.8967,5.887,5.8191,5.7598,5.707,5.6182,5.5918,5.6127,5.6314,5.652,5.6369,5.6232,5.6082,5.6008,5.6163,5.6294,5.6022,5.5904,5.6231,5.6671,5.7125,5.7212,5.6923,5.6841,5.6629,5.6729,5.6594,5.6206,6.0099,6.0099,6.0099,6.0133,6.0182,6.0182,6.0197,6.0222,6.0241,6.0222,6.0226,6.0129,6.0099,6.0114,6.0148,6.0182,6.0197,6.0226,6.0256,6.0256,6.0226,6.0212,6.0197,6.0182,6.0137,6.0133,6.0099,6.0084,6.0114,6.0084,6.0084,6.0099,6.0099,6.0099,6.0099,6.0099,6.0099,6.0084,6.0099,5.9991,5.9817,5.9817,5.9815,5.9815,5.9815,5.9798,5.9815,5.9815,5.9834,5.9834,5.985,5.9831,5.9831,5.9831,5.9815,5.9834,5.9834,5.9815,5.9817,5.9817,5.9782,5.9782,5.9798,5.9815,5.9831,5.9696,5.956,5.9526,5.9419,5.9346,5.9346,5.9383,5.9383,5.9364,5.9383,5.9401,5.9401,5.9401,5.9382,5.9382,5.9382,5.9401,5.9401,5.9401,5.9383,5.9383,5.9383,5.9328,5.9253,5.9177,5.8666,5.819,5.7323,5.7167,5.7559,5.7575,5.7494,5.7249,5.6911,5.7109,5.7233,5.7094,5.7011,5.6908,5.6952,5.7242,5.7702,5.7882,5.7909,5.7584,5.7652,5.7739,5.7834,5.7768,5.7279,6.0148,6.0129,6.0148,6.0212,6.0294,6.0308,6.0337,6.0389,6.0389,6.0389,6.0375,6.0207,6.0148,6.0197,6.0226,6.0294,6.0308,6.0332,6.0375,6.0375,6.0375,6.0332,6.0323,6.0313,6.026,6.0212,6.0178,6.0178,6.0159,6.0178,6.0178,6.0129,6.0148,6.0148,6.0148,6.0148,6.0178,6.0178,6.0178,6.0144,6.0133,6.0118,6.0068,6.0068,6.0099,6.0099,6.0099,6.0084,6.0084,6.0068,6.0057,6.0038,6.0022,6.0022,6.0038,6.0022,6.0022,6.0022,6.0053,6.0022,6.0053,6.0068,6.0099,6.0099,6.0084,6.0007,5.9864,5.9801,5.97,5.9614,5.9614,5.9633,5.9633,5.9649,5.9649,5.9647,5.9647,5.9647,5.9647,5.9647,5.9647,5.9647,5.9666,5.9666,5.9668,5.9631,5.9616,5.9563,5.951,5.9419,5.914,5.8953,5.8538,5.8591,5.8733,5.8502,5.8215,5.8192,5.7946,5.8249,5.8348,5.7956,5.7821,5.8035,5.8139,5.8039,5.8013,5.8101,5.8092,5.8024,5.8042,5.8038,5.7927,5.7881,5.7857,6.0328,6.0347,6.0347,6.0361,6.0375,6.0375,6.0394,6.0403,6.0403,6.0403,6.0389,6.0375,6.0347,6.0328,6.0361,6.0361,6.0361,6.0389,6.0403,6.0403,6.0403,6.0408,6.0394,6.0366,6.0361,6.0347,6.0313,6.0328,6.0266,6.0299,6.0347,6.0313,6.0328,6.0328,6.0328,6.0328,6.0313,6.0299,6.0299,6.0299,6.0251,6.0207,6.0099,6.0099,6.0099,6.0099,6.0099,6.0099,6.0099,6.0099,6.0114,6.0114,6.0129,6.0129,6.0148,6.0144,6.0129,6.0148,6.0148,6.0148,6.0163,6.0148,6.0129,6.0129,6.0114,6.0114,6.0041,6.0026,5.9931,5.9834,5.9817,5.9836,5.9836,5.9883,5.9915,5.9928,5.9944,5.9944,5.9944,5.9944,5.9944,5.9944,5.9944,5.9912,5.9899,5.9883,5.9817,5.9767,5.9666,5.9614,5.9562,5.9492,5.9401,5.9196,5.8985,5.8885,5.8693,5.8782,5.8758,5.8654,5.8551,5.8508,5.8465,5.8462,5.8415,5.8297,5.8331,5.8286,5.8242,5.8179,5.8156,5.8152,5.8042,5.7997,5.7973]}]]